[[{"header":{"parameterUnit":"m.s-1","parameterCategory":1,"la1":30.6,"la2":29.2853,"lo1":-89.7004,"lo2":-87.6739,"dy":0.0162,"dx":0.0183,"nx":112,"ny":82,"refTime":"2026-02-22T12:00:00:Z","depth":0,"parameterNumber":2,"parameterNumberName":"U-component_of_WINDS"},"data":[0.0,0.0,0.0,0.0,0.0,0.0,0.0,0.0,0.0,0.0,0.0,0.0,0.0,0.0,0.0,0.0,0.0,0.0,0.0,0.0,0.0,0.0,0.0,0.0,0.0,0.0,0.0,0.0,0.0,0.0,0.0,0.0,0.0,0.0,0.0,0.0,0.0,0.0,0.0,0.0,0.0,0.0,0.0,0.0,0.0,0.0,0.0,0.0,0.0,0.0,0.0,0.0,0.0,0.0,0.0,0.0,0.0,0.0,0.0,0.0,0.0,0.0,0.0,0.0,0.0,0.0,0.0,0.0,0.0,0.0,0.0,0.0,0.0,0.0,0.0,0.0,0.0,0.0,0.0,0.0,0.0,0.0,0.0,0.0,0.0,0.0,0.0,0.0,0.0,0.0,-5.3312,-5.8104,-6.4845,-6.8921,-6.8853,-6.7614,-6.3648,-5.6174,0.0,0.0,0.0,0.0,0.0,0.0,0.0,0.0,0.0,0.0,0.0,0.0,0.0,0.0,0.0,0.0,0.0,0.0,0.0,0.0,0.0,0.0,0.0,0.0,0.0,0.0,0.0,0.0,0.0,0.0,0.0,0.0,0.0,0.0,0.0,0.0,0.0,0.0,0.0,0.0,0.0,0.0,0.0,0.0,0.0,0.0,0.0,0.0,0.0,0.0,0.0,0.0,0.0,0.0,0.0,0.0,0.0,0.0,0.0,0.0,0.0,0.0,0.0,0.0,0.0,0.0,0.0,0.0,0.0,0.0,0.0,0.0,0.0,0.0,0.0,0.0,0.0,0.0,0.0,0.0,0.0,0.0,0.0,0.0,0.0,0.0,0.0,0.0,0.0,0.0,0.0,0.0,0.0,0.0,0.0,0.0,0.0,0.0,0.0,0.0,0.0,0.0,0.0,0.0,-5.439,-6.3162,-6.6455,-6.8039,-6.8039,-6.5469,-6.1427,-5.5659,0.0,0.0,0.0,0.0,0.0,0.0,0.0,0.0,0.0,0.0,0.0,0.0,0.0,0.0,0.0,0.0,0.0,0.0,0.0,0.0,0.0,0.0,0.0,0.0,0.0,0.0,0.0,0.0,0.0,0.0,0.0,0.0,0.0,0.0,0.0,0.0,0.0,0.0,0.0,0.0,0.0,0.0,0.0,0.0,0.0,0.0,0.0,0.0,0.0,0.0,0.0,0.0,0.0,0.0,0.0,0.0,0.0,0.0,0.0,0.0,0.0,0.0,0.0,0.0,0.0,0.0,0.0,0.0,0.0,0.0,0.0,0.0,0.0,0.0,0.0,0.0,0.0,0.0,0.0,0.0,0.0,0.0,0.0,0.0,0.0,0.0,0.0,0.0,0.0,0.0,0.0,0.0,0.0,0.0,0.0,0.0,0.0,0.0,0.0,0.0,0.0,0.0,0.0,-5.2467,-5.7406,-6.4547,-6.6737,-6.7669,-6.7701,-6.4614,-6.0447,-5.5104,-5.1156,0.0,0.0,0.0,0.0,0.0,0.0,0.0,0.0,0.0,0.0,0.0,0.0,0.0,0.0,0.0,0.0,0.0,0.0,0.0,0.0,0.0,0.0,0.0,0.0,0.0,0.0,0.0,0.0,0.0,0.0,0.0,0.0,0.0,0.0,0.0,0.0,0.0,0.0,0.0,0.0,0.0,0.0,0.0,0.0,0.0,0.0,0.0,0.0,0.0,0.0,0.0,0.0,0.0,0.0,0.0,0.0,0.0,0.0,0.0,0.0,0.0,0.0,0.0,0.0,0.0,0.0,0.0,0.0,0.0,0.0,0.0,0.0,0.0,0.0,0.0,0.0,0.0,0.0,0.0,0.0,0.0,0.0,0.0,0.0,0.0,0.0,0.0,0.0,0.0,0.0,0.0,0.0,0.0,0.0,0.0,0.0,0.0,0.0,0.0,0.0,0.0,0.0,-5.6313,-5.9936,-6.4513,-6.6262,-6.6955,-6.6654,-6.3311,-5.9139,-5.4274,-4.9015,0.0,0.0,0.0,0.0,0.0,0.0,0.0,0.0,0.0,0.0,0.0,0.0,0.0,0.0,0.0,0.0,0.0,0.0,0.0,0.0,0.0,0.0,0.0,0.0,0.0,0.0,0.0,0.0,0.0,0.0,0.0,0.0,0.0,0.0,0.0,0.0,0.0,0.0,0.0,0.0,0.0,0.0,0.0,0.0,0.0,0.0,0.0,0.0,0.0,0.0,0.0,0.0,0.0,0.0,0.0,0.0,0.0,0.0,0.0,0.0,0.0,0.0,0.0,0.0,0.0,0.0,0.0,0.0,0.0,0.0,0.0,0.0,0.0,0.0,0.0,0.0,0.0,0.0,0.0,0.0,0.0,0.0,0.0,0.0,0.0,0.0,0.0,0.0,0.0,0.0,0.0,0.0,0.0,0.0,0.0,0.0,0.0,0.0,0.0,0.0,0.0,0.0,-5.6023,-6.0404,-6.3812,-6.4963,-6.5096,-6.4134,-6.0335,-5.6523,-5.3044,-4.6771,0.0,0.0,0.0,0.0,0.0,0.0,0.0,0.0,0.0,0.0,0.0,0.0,0.0,0.0,0.0,0.0,0.0,0.0,0.0,0.0,0.0,0.0,0.0,0.0,0.0,0.0,0.0,0.0,0.0,0.0,0.0,0.0,0.0,0.0,0.0,0.0,0.0,0.0,0.0,0.0,0.0,0.0,0.0,0.0,0.0,0.0,0.0,0.0,0.0,0.0,0.0,0.0,0.0,0.0,0.0,0.0,0.0,0.0,0.0,0.0,0.0,0.0,0.0,0.0,0.0,0.0,0.0,0.0,0.0,0.0,0.0,0.0,0.0,0.0,0.0,0.0,0.0,0.0,0.0,0.0,0.0,0.0,0.0,0.0,0.0,0.0,0.0,0.0,0.0,0.0,0.0,0.0,0.0,0.0,0.0,0.0,0.0,0.0,0.0,0.0,0.0,0.0,-5.5106,-5.9536,-6.3638,-6.4192,-6.3878,-6.2986,-5.9998,-5.6104,-5.1375,0.0,0.0,0.0,0.0,0.0,0.0,0.0,0.0,0.0,0.0,0.0,0.0,0.0,0.0,0.0,0.0,0.0,0.0,0.0,0.0,0.0,0.0,0.0,0.0,0.0,0.0,0.0,0.0,0.0,0.0,0.0,0.0,0.0,0.0,0.0,0.0,0.0,0.0,0.0,0.0,0.0,0.0,0.0,0.0,0.0,0.0,0.0,0.0,0.0,0.0,0.0,0.0,0.0,0.0,0.0,0.0,0.0,0.0,0.0,0.0,0.0,0.0,0.0,0.0,0.0,0.0,0.0,0.0,0.0,0.0,0.0,0.0,0.0,0.0,0.0,0.0,0.0,0.0,0.0,0.0,0.0,0.0,0.0,0.0,0.0,0.0,0.0,0.0,0.0,0.0,0.0,0.0,0.0,0.0,0.0,0.0,0.0,0.0,0.0,0.0,0.0,0.0,-5.019,-5.4728,-5.9085,-6.3551,-6.3785,-6.3408,-6.2781,-5.987,-5.5897,-5.08,0.0,0.0,0.0,0.0,0.0,0.0,0.0,0.0,0.0,0.0,0.0,0.0,0.0,0.0,0.0,0.0,0.0,0.0,0.0,0.0,0.0,0.0,0.0,0.0,0.0,0.0,0.0,0.0,0.0,0.0,0.0,0.0,0.0,0.0,0.0,0.0,0.0,0.0,0.0,0.0,0.0,0.0,0.0,0.0,0.0,0.0,0.0,0.0,0.0,0.0,0.0,0.0,0.0,0.0,0.0,0.0,0.0,0.0,0.0,0.0,0.0,0.0,0.0,0.0,0.0,0.0,0.0,0.0,0.0,0.0,0.0,0.0,0.0,0.0,0.0,0.0,0.0,0.0,0.0,0.0,0.0,0.0,0.0,0.0,0.0,0.0,0.0,0.0,0.0,0.0,0.0,0.0,0.0,0.0,0.0,0.0,0.0,0.0,0.0,0.0,0.0,0.0,-5.0509,-5.5073,-5.9347,-6.3382,-6.3785,-6.368,-6.3412,-5.9714,-5.5668,0.0,0.0,0.0,0.0,0.0,0.0,0.0,0.0,0.0,0.0,0.0,0.0,0.0,0.0,0.0,0.0,0.0,0.0,0.0,0.0,0.0,0.0,0.0,0.0,0.0,0.0,0.0,0.0,0.0,0.0,0.0,0.0,0.0,0.0,0.0,0.0,0.0,0.0,0.0,0.0,0.0,0.0,0.0,0.0,0.0,0.0,0.0,0.0,0.0,0.0,0.0,0.0,0.0,0.0,0.0,0.0,0.0,0.0,0.0,0.0,0.0,0.0,0.0,0.0,0.0,0.0,0.0,0.0,0.0,0.0,0.0,0.0,0.0,0.0,0.0,0.0,0.0,0.0,0.0,0.0,0.0,0.0,0.0,0.0,0.0,0.0,0.0,0.0,0.0,0.0,0.0,0.0,0.0,0.0,0.0,0.0,0.0,0.0,0.0,0.0,0.0,0.0,0.0,-5.1146,-5.6277,-6.0822,-6.4286,-6.4502,-6.3866,-6.2658,-6.0336,-5.6296,-5.0017,0.0,0.0,0.0,0.0,0.0,0.0,0.0,0.0,0.0,0.0,0.0,0.0,0.0,0.0,0.0,0.0,0.0,0.0,0.0,0.0,0.0,0.0,0.0,0.0,0.0,0.0,0.0,0.0,0.0,0.0,0.0,0.0,0.0,0.0,0.0,0.0,0.0,0.0,0.0,0.0,0.0,0.0,0.0,0.0,0.0,0.0,0.0,0.0,0.0,0.0,0.0,0.0,0.0,0.0,0.0,0.0,0.0,0.0,0.0,0.0,0.0,0.0,0.0,0.0,0.0,0.0,0.0,0.0,0.0,0.0,0.0,0.0,0.0,0.0,0.0,0.0,0.0,0.0,0.0,0.0,0.0,0.0,0.0,0.0,0.0,0.0,0.0,0.0,0.0,0.0,0.0,0.0,0.0,0.0,0.0,0.0,0.0,0.0,0.0,0.0,0.0,0.0,-5.079,-5.6437,-6.1255,-6.4502,-6.4958,-6.4556,-6.3194,-6.1552,-5.7514,-5.0307,0.0,0.0,0.0,0.0,0.0,0.0,0.0,0.0,0.0,0.0,0.0,0.0,0.0,0.0,0.0,0.0,0.0,0.0,0.0,0.0,0.0,0.0,0.0,0.0,0.0,0.0,0.0,0.0,0.0,0.0,0.0,0.0,0.0,0.0,0.0,0.0,0.0,0.0,0.0,0.0,0.0,0.0,0.0,0.0,0.0,0.0,0.0,0.0,0.0,0.0,0.0,0.0,0.0,0.0,0.0,0.0,0.0,0.0,0.0,0.0,0.0,0.0,0.0,0.0,0.0,0.0,0.0,0.0,0.0,0.0,0.0,0.0,0.0,0.0,0.0,0.0,0.0,0.0,0.0,0.0,0.0,0.0,0.0,0.0,0.0,0.0,0.0,0.0,0.0,0.0,0.0,0.0,0.0,0.0,0.0,0.0,0.0,0.0,0.0,0.0,0.0,0.0,-4.9977,-5.6079,-6.124,-6.4402,-6.5355,-6.5408,-6.4496,-6.2875,-5.8927,-5.1937,0.0,0.0,0.0,0.0,0.0,0.0,0.0,0.0,0.0,0.0,0.0,0.0,0.0,0.0,0.0,0.0,0.0,0.0,0.0,0.0,0.0,0.0,0.0,0.0,0.0,0.0,0.0,0.0,0.0,0.0,0.0,0.0,0.0,0.0,0.0,0.0,0.0,0.0,0.0,0.0,0.0,0.0,0.0,0.0,0.0,0.0,0.0,0.0,0.0,0.0,0.0,0.0,0.0,0.0,0.0,0.0,0.0,0.0,0.0,0.0,-5.6931,-5.4715,0.0,0.0,0.0,0.0,0.0,0.0,0.0,0.0,0.0,0.0,0.0,0.0,0.0,0.0,0.0,0.0,0.0,0.0,0.0,0.0,0.0,0.0,0.0,0.0,0.0,0.0,0.0,0.0,0.0,0.0,0.0,0.0,0.0,0.0,0.0,0.0,0.0,0.0,0.0,0.0,-5.0957,-5.7449,-6.2667,-6.5274,-6.5597,-6.5294,-6.4468,-6.2331,-5.8818,-5.353,-4.8061,0.0,0.0,0.0,0.0,0.0,0.0,0.0,0.0,0.0,0.0,0.0,0.0,0.0,0.0,0.0,0.0,0.0,0.0,0.0,0.0,0.0,0.0,0.0,0.0,0.0,0.0,0.0,0.0,0.0,0.0,0.0,0.0,0.0,0.0,0.0,0.0,0.0,0.0,0.0,0.0,0.0,0.0,0.0,0.0,0.0,0.0,0.0,0.0,0.0,0.0,0.0,0.0,0.0,0.0,0.0,0.0,0.0,0.0,0.0,-6.1554,-5.8842,0.0,0.0,0.0,0.0,0.0,0.0,0.0,0.0,0.0,0.0,0.0,0.0,0.0,0.0,0.0,0.0,0.0,0.0,0.0,0.0,0.0,0.0,0.0,0.0,0.0,0.0,0.0,0.0,0.0,0.0,0.0,0.0,0.0,0.0,0.0,0.0,0.0,0.0,0.0,0.0,-5.0496,-5.7145,-6.2295,-6.4327,-6.4851,-6.4685,-6.3889,-6.1969,-5.8927,-5.4544,-4.9365,0.0,0.0,0.0,0.0,0.0,0.0,0.0,0.0,0.0,0.0,0.0,0.0,0.0,0.0,0.0,0.0,0.0,0.0,0.0,0.0,0.0,0.0,0.0,0.0,0.0,0.0,0.0,0.0,0.0,0.0,0.0,0.0,0.0,0.0,0.0,0.0,0.0,0.0,0.0,0.0,0.0,0.0,0.0,0.0,0.0,0.0,0.0,0.0,0.0,0.0,0.0,0.0,0.0,-6.7782,-6.8702,-6.9725,-7.0703,-7.0686,-6.9731,-6.7286,-6.442,-6.1402,-6.0141,0.0,0.0,0.0,0.0,0.0,0.0,0.0,0.0,0.0,0.0,0.0,0.0,0.0,0.0,0.0,0.0,0.0,0.0,0.0,0.0,0.0,0.0,-5.2453,-5.3702,-5.4654,-5.3802,-4.8495,0.0,0.0,0.0,0.0,0.0,0.0,0.0,0.0,0.0,0.0,0.0,-5.0134,-5.6536,-6.1426,-6.3019,-6.378,-6.3925,-6.3237,-6.1607,-5.9144,-5.574,-5.0995,-4.6794,0.0,0.0,0.0,0.0,0.0,0.0,0.0,0.0,0.0,0.0,0.0,0.0,0.0,0.0,0.0,0.0,0.0,0.0,0.0,0.0,0.0,0.0,0.0,0.0,0.0,0.0,0.0,0.0,0.0,0.0,0.0,0.0,-5.805,-5.683,0.0,0.0,0.0,0.0,0.0,0.0,0.0,0.0,0.0,0.0,0.0,0.0,0.0,-6.6551,-6.7552,-7.2006,-7.3575,-7.2347,-7.6624,-7.8011,-7.6824,-7.8326,-7.8557,-7.7849,-7.8863,0.0,-6.591,-6.6369,0.0,0.0,0.0,0.0,0.0,0.0,0.0,0.0,0.0,0.0,0.0,0.0,0.0,0.0,0.0,0.0,0.0,0.0,0.0,0.0,0.0,0.0,-5.898,-5.8501,-5.8447,-5.8143,-5.661,-5.1279,-4.5975,-4.3238,-4.1026,-3.8951,0.0,0.0,0.0,0.0,0.0,0.0,-5.176,-5.725,-6.1426,-6.3019,-6.3273,-6.3309,-6.32,-6.1064,-5.9253,-5.8021,-5.3458,-5.0271,-4.9039,-4.3824,0.0,0.0,0.0,0.0,0.0,0.0,0.0,0.0,0.0,0.0,0.0,0.0,0.0,0.0,0.0,0.0,0.0,0.0,0.0,0.0,0.0,0.0,0.0,0.0,0.0,0.0,0.0,0.0,0.0,-5.7742,-6.0165,-5.7973,-6.0165,-6.0089,0.0,0.0,0.0,0.0,0.0,0.0,0.0,0.0,0.0,-6.9513,-7.1245,-7.2976,-7.4784,-7.7385,-7.8315,-7.7585,-7.9706,-8.0269,-7.9542,-8.0714,-8.1041,-8.0773,-8.1958,-7.9436,-7.4278,-7.1794,-6.7782,-6.2877,0.0,0.0,0.0,0.0,-5.6163,-5.6975,-5.9051,-5.9398,-5.8874,-5.8348,0.0,0.0,0.0,0.0,0.0,0.0,0.0,-5.1377,-5.4328,-5.7201,-5.9536,-6.0357,-6.0896,-6.0982,-6.0199,-5.7152,-5.3078,-4.7921,-4.5993,-4.3797,-3.9495,-3.9118,0.0,0.0,0.0,-4.9053,-5.215,-5.6996,-6.0593,-6.1716,-6.186,-6.186,-6.186,-6.005,-5.8601,-5.7768,-5.4508,-5.2082,-5.0836,-4.6685,-4.3063,0.0,0.0,0.0,0.0,0.0,0.0,0.0,0.0,0.0,0.0,0.0,0.0,0.0,0.0,0.0,0.0,0.0,0.0,0.0,0.0,0.0,0.0,0.0,0.0,0.0,0.0,0.0,0.0,-5.9754,-6.2435,-5.9896,-6.3512,-6.3974,0.0,0.0,0.0,0.0,0.0,0.0,-6.6782,-6.8859,-7.1591,-7.5014,-7.6746,-7.8438,-8.0131,-8.1106,-8.1497,-8.1266,-8.1312,-8.1339,-8.1301,-8.1862,-8.2015,-8.1955,-8.2756,-8.2086,-8.0139,-7.6231,-7.1718,-6.7025,-6.397,-6.1977,-6.0828,-6.0936,-6.1327,-6.2172,-6.4936,-6.5728,-6.5224,-6.3463,-6.1166,-5.8267,-5.375,0.0,0.0,0.0,0.0,-5.3177,-5.7497,-5.9265,-6.0379,-6.2145,-6.2842,-6.2989,-6.2365,-6.1263,-5.8621,-5.2601,-5.1014,-4.8866,-4.3264,-4.3046,0.0,-4.2941,-4.6739,-5.0562,-5.3083,-5.6862,-5.9615,-6.0412,-6.0484,-6.0484,-6.0484,-5.9216,-5.8058,-5.7261,-5.5196,-5.3385,-5.1973,-4.9003,-4.5997,-4.2972,0.0,0.0,0.0,0.0,0.0,0.0,0.0,0.0,0.0,0.0,0.0,0.0,0.0,0.0,0.0,0.0,0.0,0.0,0.0,0.0,0.0,0.0,0.0,0.0,0.0,0.0,0.0,0.0,0.0,-6.3358,-6.7513,0.0,0.0,0.0,0.0,-6.4089,-6.7398,-7.0398,-7.2937,-7.613,-7.84,-7.9438,-8.1093,-8.167,-8.1054,-8.2631,-8.3054,-8.2247,-8.2873,-8.317,-8.3152,-8.3008,-8.2678,-8.2238,-8.3051,-8.2193,-8.0153,-7.93,-7.6456,-7.252,-7.1472,-6.96,-6.7331,-6.6589,-6.6819,-6.7499,-6.7697,-6.7751,-6.798,-6.9415,-6.6612,-6.2048,-5.9008,-5.6327,0.0,0.0,-5.6841,-5.8776,-6.1728,-6.316,-6.4042,-6.4897,-6.4567,-6.4016,-6.398,-6.2071,-5.9612,-5.6969,-5.5082,-5.2914,-4.9571,0.0,-4.8111,-4.8664,-5.032,-5.2512,-5.5438,-5.7369,-5.8782,-5.9579,-5.9651,-5.9651,-5.9651,-5.8891,-5.8058,-5.7261,-5.5703,-5.4472,-5.3603,-5.1212,-4.8749,-4.6323,-4.2356,0.0,0.0,0.0,0.0,0.0,0.0,0.0,0.0,0.0,0.0,0.0,0.0,0.0,0.0,0.0,0.0,0.0,0.0,0.0,0.0,0.0,0.0,0.0,0.0,0.0,0.0,0.0,0.0,-6.7513,-7.236,0.0,-6.8706,-6.9398,-7.0244,-7.0321,-7.3976,-7.6861,-7.8323,-8.0554,-8.19,-8.2247,-8.3362,-8.3555,-8.2708,-8.3285,-8.317,-8.2285,-8.2451,-8.2211,-8.1713,-8.2052,-8.211,-8.201,-8.281,-8.2403,-8.1195,-8.0392,-7.7835,-7.4304,-7.3191,-7.1713,-7.0128,-6.9207,-6.9835,-7.0976,-7.0307,-7.0284,-7.0248,-6.8481,-6.6351,-6.3973,-6.1305,-5.9844,-5.9313,-6.0126,-6.0806,-6.1739,-6.3858,-6.464,-6.4824,-6.4567,-6.431,-6.3943,-6.3392,-6.2585,-6.1374,-5.9501,-5.7363,-5.5016,-5.2323,-5.1904,-5.1667,-5.0994,-5.2512,-5.4301,-5.5922,-5.7456,-5.8528,-5.8818,-5.8818,-5.8818,-5.8818,-5.7623,-5.6717,-5.6428,-5.4472,-5.3241,-5.2951,-5.1104,-4.922,-4.7301,-4.4331,-4.0456,0.0,0.0,0.0,0.0,0.0,0.0,0.0,0.0,0.0,0.0,0.0,0.0,0.0,0.0,0.0,0.0,0.0,0.0,0.0,0.0,0.0,0.0,0.0,0.0,0.0,-6.6513,-7.0975,-7.0975,-7.5938,-7.7707,-7.3476,-7.5091,-7.6322,-7.6092,-7.9169,-8.1477,-8.2324,-8.3978,-8.4747,-8.4439,-8.4747,-8.4478,-8.3593,-8.3016,-8.2477,-8.19,-8.1738,-8.1368,-8.0831,-8.121,-8.127,-8.1133,-8.1933,-8.1586,-8.0376,-7.9886,-7.7817,-7.4885,-7.441,-7.3536,-7.2476,-7.1702,-7.2162,-7.3091,-7.2444,-7.2232,-7.1827,-6.9384,-6.7642,-6.6211,-6.4439,-6.348,-6.3174,-6.3847,-6.4053,-6.4383,-6.5742,-6.5925,-6.5558,-6.5044,-6.4494,-6.3943,-6.3356,-6.2805,-6.2071,-6.1006,-5.9281,-5.7262,-5.484,-5.4663,-5.4464,-5.3178,-5.4332,-5.5547,-5.6152,-5.7227,-5.7985,-5.7985,-5.7985,-5.7876,-5.7623,-5.6391,-5.5377,-5.4834,-5.2842,-5.1574,-5.1285,-4.9474,-4.7989,-4.6902,-4.3751,-4.0437,-3.6995,0.0,0.0,0.0,0.0,0.0,0.0,0.0,0.0,0.0,0.0,0.0,0.0,0.0,0.0,0.0,0.0,0.0,0.0,0.0,0.0,0.0,0.0,0.0,-6.4666,-6.9898,-7.3668,-7.3822,-7.8246,-8.0323,-7.7861,-7.9092,-8.04,-8.1208,-8.2747,-8.4055,-8.4901,-8.6517,-8.6978,-8.6055,-8.5286,-8.4478,-8.3516,-8.19,-8.1093,-8.1093,-8.0877,-8.0792,-8.0792,-8.0598,-8.0219,-7.9746,-8.0482,-7.9645,-7.7729,-7.7926,-7.6632,-7.4618,-7.5569,-7.5422,-7.4623,-7.4169,-7.3986,-7.3963,-7.3925,-7.3339,-7.2641,-7.2604,-7.0954,-6.8915,-6.8514,-6.7256,-6.606,-6.6449,-6.6549,-6.6696,-6.7467,-6.7063,-6.6476,-6.6439,-6.5228,-6.409,-6.4016,-6.2732,-6.1594,-6.152,-6.0896,-5.9612,-5.7299,-5.6745,-5.6383,-5.5578,-5.5895,0.0,-5.6237,-5.6792,-5.7188,-5.7152,-5.7152,-5.6826,-5.6066,-5.5269,-5.4146,-5.2589,-5.0923,-4.9691,-4.8873,-4.6613,-4.5345,-4.5309,-4.0673,-3.7865,-3.7031,0.0,0.0,0.0,0.0,0.0,0.0,0.0,0.0,0.0,0.0,0.0,0.0,0.0,0.0,0.0,0.0,0.0,0.0,0.0,0.0,0.0,-6.4282,-6.8898,-6.9129,-7.3245,-7.74,-8.0439,-8.367,-8.5401,-8.467,-8.5055,-8.5132,-8.4747,-8.5132,-8.5517,-8.5747,-8.6824,-8.644,-8.4362,-8.4709,-8.3901,-8.1823,-8.1323,-8.1093,-8.1093,-8.0943,-8.0855,-8.0877,-8.0667,-8.0316,-7.9815,-7.9334,-7.8595,-7.7614,-7.653,-7.5694,-7.5095,-7.4935,-7.4424,-7.3652,-7.3541,-7.3235,-7.2852,-7.2234,-7.1901,-7.1495,-7.0312,-6.9499,-6.8808,-6.8125,-6.7557,-6.7211,-6.7337,-6.7357,-6.7283,-6.6916,-6.6659,-6.6219,-6.5044,-6.442,-6.3759,-6.2548,-6.1924,-6.1263,-6.0089,-5.9661,-5.9294,-5.8634,-5.7847,-5.7253,-5.7152,-5.7025,-5.6962,-5.7036,-5.7155,-5.6971,-5.6391,-5.6319,-5.6247,-5.6029,-5.4255,-5.2987,-5.2516,-4.9908,-4.8279,-4.804,-4.683,-4.5888,-4.5309,-4.1723,-3.9224,0.0,0.0,0.0,0.0,0.0,0.0,0.0,0.0,0.0,0.0,0.0,0.0,0.0,0.0,0.0,0.0,0.0,0.0,0.0,0.0,0.0,0.0,-6.9283,-7.4053,-7.5476,-7.7823,-8.0708,-8.4209,-8.6286,-8.7555,-8.7902,-8.7594,-8.7171,-8.6671,-8.6324,-8.6094,-8.6094,-8.694,-8.6555,-8.4709,-8.4824,-8.4016,-8.217,-8.1439,-8.1093,-8.1093,-8.0959,-8.091,-8.0822,-8.034,-7.9933,-7.9588,-7.8691,-7.7921,-7.7192,-7.6073,-7.5269,-7.4699,0.0,0.0,0.0,0.0,-7.277,-7.2386,-7.1578,-7.1293,-7.1073,-6.9816,-6.9192,-6.8825,-6.8348,-6.7944,-6.7687,-6.7687,-6.7467,-6.71,-6.6623,-6.5999,-6.5264,-6.431,-6.409,-6.3613,-6.1961,-6.1594,-6.1117,-5.9515,-5.8927,0.0,-5.8694,-5.8126,-5.7606,-5.7348,-5.7267,-5.7205,-5.6927,-5.7046,-5.7007,-5.6536,-5.65,-5.6355,-5.6029,-5.4146,0.0,0.0,0.0,-4.712,-4.5743,-4.5236,0.0,0.0,0.0,0.0,0.0,-3.9441,0.0,0.0,-3.7631,-3.716,0.0,0.0,0.0,0.0,0.0,0.0,0.0,0.0,0.0,0.0,0.0,0.0,0.0,0.0,0.0,0.0,-7.4207,-7.8669,-8.1862,-8.2477,-8.3516,-8.5978,-8.7017,-8.7863,-8.8632,-8.7979,-8.7517,-8.7401,-8.6594,-8.6094,-8.6094,-8.6824,0.0,0.0,0.0,-8.4286,-8.3324,-8.1823,-8.1093,-8.1093,-8.086,-8.074,-8.0656,-7.9671,-7.9183,-7.9017,-7.8159,-7.732,-7.6483,-7.5921,-7.4982,-7.3798,-7.3364,-7.3246,-7.3246,-7.2686,-7.2459,-7.2275,-7.1468,0.0,0.0,-7.0073,-6.9339,-6.8752,-6.8752,-6.8274,-6.7687,-6.7687,-6.71,-6.6476,-6.6402,-6.5228,-6.4053,-6.398,-6.3943,-6.3503,-6.1814,-6.1447,-6.097,-5.9368,-5.851,-5.7997,-5.7997,-5.7904,-5.7554,-5.6859,-5.7121,-5.7158,-5.6418,-5.6853,-5.7177,-5.708,-5.7043,0.0,-5.6066,-5.4581,-5.3059,-5.1538,-4.9184,-4.654,-4.3679,-4.357,-4.357,-4.357,-4.281,-4.3406,-4.5562,-4.4838,-4.4512,-4.4367,-3.926,-3.8302,0.0,0.0,0.0,0.0,0.0,0.0,0.0,0.0,0.0,0.0,0.0,0.0,0.0,0.0,0.0,-7.0244,-7.5515,-8.0015,-8.2016,-8.3516,-8.5093,-8.694,-8.7902,-8.8517,-8.8671,-8.8556,-8.8171,-8.744,-8.6594,-8.6094,-8.6094,-8.6247,-8.5632,-8.4132,-8.3939,-8.3131,-8.1593,-8.1246,-8.1093,-8.1093,-8.0322,0.0,-7.9873,-7.8824,-7.8101,-7.7642,-7.6764,-7.6062,-7.5404,-7.4273,-7.341,-7.2798,-7.2686,-7.2936,-7.3246,-7.2686,-7.2092,-7.1431,-7.0624,-6.9926,-6.9229,-6.8421,-6.8054,-6.7907,-6.7907,-6.7797,0.0,-6.7687,-6.71,-6.6366,-6.5705,-6.4824,-6.3906,-6.3209,-6.3062,-6.2622,-6.097,-6.0639,-6.0162,-5.8547,-5.8107,-5.7997,-5.7997,-5.7904,-5.7737,-5.7591,-5.7582,-5.7474,-5.7194,-5.729,-5.7059,-5.6308,-5.621,-5.6174,-5.5993,-5.4581,-5.3277,-5.2335,-5.0017,-4.8366,-4.7772,-4.7714,-4.7714,-4.7714,-4.6954,-4.6773,-4.7265,-4.7083,-4.7011,-4.6975,-4.4584,-4.3425,0.0,0.0,0.0,0.0,0.0,0.0,0.0,0.0,0.0,0.0,0.0,-6.205,-6.4205,0.0,-7.1937,-7.4861,-7.8554,-8.167,-8.3362,-8.4709,-8.5978,-8.7248,-8.7786,-8.8209,-8.8671,-8.8286,-8.7863,-8.744,-8.6594,-8.594,-8.5517,-8.5517,-8.4709,-8.2978,-8.2939,-8.2362,-8.1093,-8.0669,-8.0439,-8.0439,-7.9515,-7.9028,-7.898,-7.7965,-7.7314,-7.696,-7.6104,-7.5588,-7.525,-7.4127,-7.3338,-7.2881,-7.261,-7.263,-7.2844,-7.2169,-7.1651,-7.1138,-6.9926,-6.9229,-6.8788,-6.7944,-6.7687,-6.7687,-6.7687,-6.7687,-6.7687,-6.7687,-6.6843,-6.5815,-6.5411,-6.4383,-6.3356,-6.2915,-6.3135,-6.2879,-6.086,-6.0713,-6.0419,-5.84,-5.7997,-5.7997,-5.7997,-5.7904,-5.7786,-5.7703,-5.7255,-5.7,-5.7277,-5.6926,-5.6647,-5.6634,-5.6609,-5.6609,-5.6609,-5.4834,-5.3349,-5.2552,-5.0597,-4.9329,-4.8909,-4.8909,-4.8909,-4.8909,-4.8511,-4.8496,-4.8894,-4.8894,-4.8894,-4.8894,-4.8061,-4.7265,0.0,0.0,0.0,0.0,0.0,0.0,0.0,0.0,-5.9088,-6.1473,-6.3974,-6.6821,-7.0283,-7.286,-7.5707,-7.9438,-8.1477,-8.3093,-8.467,-8.5593,-8.6286,-8.6863,-8.7209,-8.7594,-8.8132,-8.7709,-8.7325,-8.7171,-8.6517,-8.5747,-8.4939,-8.4747,-8.3939,-8.2362,-8.2131,-8.167,-8.0862,-8.0169,-7.9692,-7.9523,-7.8561,-7.8097,-7.8015,-7.7071,-7.6582,-7.6418,-7.5659,-7.5281,-7.5152,-7.4237,-7.3554,-7.3087,-7.2511,-7.2275,-7.2202,-7.1541,-7.1073,-7.0632,-6.9376,-6.8788,-6.8568,-6.7907,-6.7687,-6.7687,-6.7687,-6.7687,-6.765,-6.7504,-6.6402,-6.5264,-6.5118,-6.3943,-6.278,-6.278,-6.3356,-6.3246,-6.1117,-6.1006,-6.075,-5.8621,-5.8107,-5.7997,-5.7973,-5.7857,-5.7703,-5.7631,-5.6964,-5.6588,-5.6949,-5.6441,-5.6296,-5.6899,-5.6971,-5.7043,-5.7188,-5.5305,-5.3856,-5.3204,-5.1828,-5.0669,-4.9872,-4.9814,-4.9742,-4.9619,-4.9619,-4.9908,-5.0583,-5.0583,-5.0583,-5.0583,-5.0583,-5.0053,-5.5773,-5.4562,-5.4863,-5.7098,-5.8274,-6.0538,0.0,0.0,-6.8629,-7.0398,-7.2822,-7.4745,-7.5207,-7.6746,-7.8592,-8.0631,-8.2362,-8.3785,-8.4747,-8.5593,-8.5863,-8.5247,-8.6478,-8.7132,-8.6478,-8.7017,-8.7094,-8.6286,-8.617,-8.5747,-8.4939,-8.417,-8.3285,-8.2324,-8.1593,-8.0823,-7.9939,-7.9862,-7.9369,-7.8561,-7.7598,-7.7133,-7.7033,-7.6067,-7.5633,-7.5598,-7.5018,-7.4561,-7.4147,-7.3616,-7.3061,-7.2508,-7.1753,-7.1431,-7.1403,-7.1329,-7.0403,-6.9155,-6.8972,-6.8421,-6.7797,-6.7724,-6.7687,-6.7687,-6.7687,-6.7687,-6.754,-6.6843,-6.5999,-6.5154,-6.442,-6.3539,-6.278,-6.278,-6.2879,-6.2695,-6.1667,-6.097,-6.0236,-5.9258,-5.851,-5.7973,-5.7857,-5.7703,-5.7667,-5.7786,-5.7582,-5.7146,-5.6406,-5.6225,-5.6176,-5.6126,-5.6138,-5.6428,-5.7152,-5.6283,-5.5703,-5.5595,-5.4834,-5.4001,-5.3204,-5.3168,-5.2842,-5.2118,-5.2082,-5.2154,-5.2226,-5.2226,-5.2226,-5.2226,-5.2226,-5.1393,-6.0365,0.0,0.0,0.0,-6.4613,-6.688,-7.022,-7.1444,-7.2371,-7.3921,-7.591,-7.7693,-7.8606,-7.979,-8.1222,0.0,-8.3868,-8.4632,-8.5478,-8.5478,-8.5286,-8.4939,-8.5055,-8.5247,-8.5401,-8.5747,-8.5978,-8.6094,-8.6094,-8.5517,-8.4209,-8.3324,-8.2247,-8.09,-8.0015,-7.94,-7.9054,-7.8592,-7.8085,-7.7623,-7.6699,-7.6219,-7.6135,-7.5706,-7.5518,-7.5483,-7.4942,-7.4417,-7.3963,-7.3491,-7.2694,-7.1798,-7.1431,-7.0706,-6.9926,-6.9926,-6.9486,-6.8825,-6.8348,-6.7981,-6.7687,-6.7687,-6.7687,-6.7687,-6.7687,-6.7687,-6.7614,-6.7283,-6.6292,-6.5228,-6.4897,-6.3796,-6.278,-6.278,-6.278,-6.2585,-6.1777,-6.097,-6.0162,-5.9368,-5.8547,-5.795,-5.7834,-5.7715,-5.7583,-5.7559,-5.7037,-5.6685,-5.6781,-5.5994,-5.5414,-5.5377,-5.574,-5.6138,-5.6464,-5.6174,-5.5993,-5.5993,-5.5305,-5.4544,-5.3748,-5.3711,-5.3313,-5.2516,-5.248,-5.248,-5.248,-5.248,-5.248,-5.248,-5.248,-5.2118,-6.2247,0.0,0.0,-6.727,-7.0149,-7.2702,-7.376,-7.4774,-7.5833,-7.6897,-7.8141,-7.9402,-8.0579,-8.1534,-8.2621,-8.4114,-8.4626,-8.5137,-8.5978,-8.5401,-8.4709,-8.4247,-8.3208,-8.2785,-8.3439,-8.4132,-8.4786,-8.5363,-8.5401,-8.467,-8.2978,-8.2324,-8.1208,-7.9477,-7.8823,-7.84,-7.8169,-7.7538,-7.7055,-7.6709,-7.5999,-7.5649,-7.5566,-7.5535,-7.5409,-7.5263,-7.4725,-7.4221,-7.3774,-7.3038,-7.2189,-7.1284,-7.0779,-6.9926,-6.8862,-6.8641,-6.8568,-6.8495,-6.7907,-6.7687,-6.7687,-6.7687,-6.7687,-6.7687,-6.7687,-6.7687,-6.7677,-6.743,-6.6366,-6.5264,-6.5044,-6.3906,-6.278,-6.278,-6.278,-6.2658,-6.2071,-6.13,-6.0493,-5.9685,-5.8831,-5.816,-5.7823,-5.7607,-5.7486,-5.7363,-5.6792,-5.6464,-5.6826,-5.574,-5.4907,-5.4907,-5.5377,-5.5776,-5.5957,-5.5993,-5.6066,-5.6319,-5.5848,-5.5088,-5.4074,-5.4037,-5.3566,-5.2516,-5.248,-5.248,-5.248,-5.248,-5.248,-5.248,-5.248,-5.248,0.0,0.0,-6.8378,-7.0065,-7.3658,-7.7248,-7.8897,-7.9949,-8.0601,-8.0639,-8.0677,-8.0754,-8.0792,-8.1444,-8.2361,-8.3384,-8.4191,-8.5032,-8.5962,-8.5401,-8.4286,-8.2593,-8.0939,-7.9939,-7.9939,-8.217,-8.3632,-8.367,-8.367,-8.2939,-8.1285,-8.1131,-8.0323,-7.8592,-7.8515,-7.813,-7.7323,-7.717,-7.667,-7.5731,-7.5649,-7.5549,-7.5518,-7.5518,-7.5226,-7.4705,-7.4221,-7.375,-7.3198,-7.1895,-7.1321,-7.1109,-6.9596,-6.8935,-6.8825,-6.8017,-6.7724,-6.7724,-6.7714,-6.7687,-6.7687,-6.7687,-6.7687,-6.7687,-6.7687,-6.7687,-6.754,-6.6769,-6.5925,-6.5118,-6.4347,-6.3466,-6.278,-6.278,-6.278,-6.278,-6.2743,-6.2144,-6.1337,-6.0529,-5.9602,-5.8677,-5.7753,-5.7486,-5.7363,-5.7213,-5.7188,-5.6899,-5.6138,-5.5377,-5.4907,-5.4907,-5.4943,-5.5233,-5.5921,-5.5993,-5.6319,-5.7116,-5.7152,-5.6464,-5.4943,-5.487,-5.411,-5.2516,-5.248,-5.248,-5.248,-5.248,-5.248,-5.248,-5.248,-5.248,0.0,0.0,-7.2729,-7.4941,-7.79,-8.0517,-8.1573,-8.1701,-8.1409,-8.0749,-7.9312,-7.8199,-7.8091,-7.8884,-8.0004,-8.1457,-8.3478,-8.5137,-8.5978,-8.5401,-8.4247,-8.2516,-8.1323,0.0,-7.9054,-7.9708,-8.09,-8.2593,-8.2247,-8.1708,-8.1131,-8.0015,-7.8861,-7.7746,-7.713,-7.6677,-7.6363,-7.6333,-7.6086,-7.5649,-7.5549,-7.5535,-7.5518,-7.5518,-7.5226,-7.4685,-7.4199,-7.3426,-7.2355,-7.1582,-7.0697,-6.9669,-6.9119,-6.8568,-6.8054,-6.7797,-6.7687,-6.7687,-6.7687,-6.7687,-6.7687,-6.7687,-6.7687,-6.7687,-6.7687,-6.7687,-6.7614,-6.7357,-6.6329,-6.5264,-6.4971,-6.387,-6.278,-6.278,-6.278,-6.278,-6.278,-6.2181,-6.1349,-6.0445,-5.9591,-5.8689,-5.7631,-5.7412,-5.7338,-5.7213,-5.7188,-5.6899,-5.6102,-5.5776,-5.5233,-5.4218,-5.4581,-5.5015,-5.5269,-5.5703,-5.6319,-5.7152,-5.7188,-5.65,-5.4979,-5.4907,-5.4146,-5.2516,-5.248,-5.248,-5.248,-5.248,-5.248,-5.248,-5.248,-5.248,-6.9129,-7.3067,-7.6662,-7.9187,-8.1288,-8.2798,-8.297,-8.2434,-8.1494,-7.9913,-7.7673,-7.5851,-7.5476,-7.5501,-7.652,-7.9462,-8.1426,-8.3374,-8.5769,-8.4863,-8.3439,-8.2054,-8.0592,-7.9169,0.0,-7.7592,-7.8669,-8.1208,-8.0631,-8.0169,-8.0169,-7.8823,-7.7669,-7.6861,-7.6254,-7.594,-7.5895,-7.5833,-7.5737,-7.5549,-7.5535,-7.5518,-7.5501,-7.53,-7.4922,-7.4417,-7.3625,-7.2683,-7.1659,-7.08,-6.9853,-6.8862,-6.8568,-6.8164,-6.7687,-6.7687,-6.7687,-6.7687,-6.7687,-6.7687,-6.7687,-6.7687,-6.7687,-6.7687,-6.7687,-6.7687,-6.7687,-6.7687,-6.6549,-6.5301,-6.5301,-6.4053,-6.278,-6.278,-6.278,-6.278,-6.278,-6.2352,-6.1679,-6.0799,-5.9895,-5.8969,-5.7994,-5.752,-5.7289,-5.7213,-5.7188,-5.7007,-5.65,-5.6174,-5.5595,-5.4617,-5.4508,-5.4581,-5.487,-5.5341,-5.5921,-5.6717,-5.7043,-5.65,-5.4979,-5.4907,-5.4146,-5.2516,-5.248,-5.248,-5.248,-5.248,-5.248,-5.248,-5.248,-5.248,-7.356,-7.6967,-8.0142,-8.2455,-8.3677,-8.4059,-8.3181,-8.2302,-8.0964,-7.8404,-7.5782,-7.3707,0.0,0.0,-7.2179,-7.723,-7.8327,-8.0263,-8.5253,-8.3939,-8.2093,0.0,0.0,0.0,0.0,0.0,-7.7092,-7.9631,-7.89,-7.84,-7.8477,-7.7669,-7.6861,-7.6015,-7.5925,-7.5895,-7.5879,-7.5682,-7.5549,-7.5518,-7.5518,-7.5518,-7.5501,-7.4923,-7.4422,-7.3874,-7.2572,-7.1675,-7.1036,-6.9522,-6.8898,-6.8752,-6.7981,-6.7687,-6.7687,-6.7687,-6.7687,-6.7687,-6.7687,-6.7687,-6.7687,-6.7687,-6.7687,-6.7687,-6.7687,-6.7687,-6.7687,-6.7687,-6.6549,-6.5301,-6.5301,-6.4053,-6.278,-6.278,-6.278,-6.278,-6.278,-6.2679,-6.2347,-6.1554,-6.0475,-5.9496,-5.8707,-5.7808,-5.7188,-5.7188,-5.7188,-5.7188,-5.7188,-5.6536,-5.6029,-5.5993,-5.4689,-5.411,-5.4834,-5.4907,-5.5196,-5.5957,-5.6717,-5.6464,-5.5015,-5.4943,-5.4146,-5.2589,-5.2516,-5.248,-5.248,-5.248,-5.248,-5.248,-5.248,-5.248,-7.613,-7.999,-8.3181,-8.3792,-8.4136,-8.4059,-8.3181,-8.1385,-7.9207,-7.6647,-7.2647,-6.9138,0.0,0.0,0.0,-7.3139,-7.7883,0.0,-8.3879,-8.4214,0.0,-8.1362,0.0,-7.9515,-7.8015,-7.7323,-7.7746,-7.9669,-7.7823,-7.7169,-7.8438,-7.713,-7.6245,-7.6015,-7.5925,-7.5864,-7.5763,-7.5599,-7.5535,-7.5518,-7.5518,-7.5518,-7.5462,-7.4669,-7.3875,-7.3033,-7.2033,-7.0822,-6.9486,-6.9082,-6.8568,-6.7981,-6.776,-6.7687,-6.7687,-6.7687,-6.7687,-6.7687,-6.7687,-6.7687,-6.7687,-6.7687,-6.7687,-6.7687,-6.7687,-6.7687,-6.7687,-6.7687,-6.6549,-6.5301,-6.5301,-6.4053,-6.278,-6.278,-6.278,-6.2755,-6.2679,-6.2629,-6.2296,-6.1287,-5.9833,-5.8689,-5.8471,-5.7757,-5.7188,-5.7188,-5.7188,-5.7188,-5.7188,-5.7007,-5.6645,-5.6066,-5.5631,-5.5269,-5.4943,-5.4907,-5.5196,-5.5957,-5.6174,-5.6138,-5.574,-5.5196,-5.4436,-5.3422,-5.2806,-5.248,-5.248,-5.248,-5.248,-5.248,-5.248,-5.248,-7.9856,-8.276,-8.4824,-8.4824,-8.4556,-8.3601,-8.085,-7.8596,-7.5806,-7.1429,-6.7424,0.0,0.0,0.0,0.0,0.0,0.0,0.0,-8.2501,-8.3121,-8.2708,0.0,-8.0746,0.0,-7.8631,-7.8438,-7.8784,-7.9746,-7.7438,-7.6746,-7.84,-7.6899,-7.6,-7.5955,-7.5841,-7.5747,-7.5616,-7.5514,-7.5518,-7.5518,-7.5119,-7.4927,-7.4889,-7.3592,-7.2742,-7.2147,-7.088,-6.9776,-6.8862,-6.8531,-6.8091,-6.7687,-6.7687,-6.7687,-6.7687,-6.7687,-6.7687,-6.7687,-6.7687,-6.7687,-6.7687,-6.7687,-6.7687,-6.7687,-6.7687,-6.7687,-6.7687,-6.7687,-6.6806,-6.5742,-6.5411,-6.4347,-6.3282,-6.289,-6.2755,-6.2679,-6.2629,-6.25,-6.2115,-6.1115,-6.0139,-5.9253,-5.8528,-5.8021,-5.7623,-5.7261,-5.7188,-5.7188,-5.7188,-5.7188,-5.7043,-5.6573,-5.621,-5.5812,-5.5414,-5.5377,-5.5558,-5.5957,-5.6319,-5.6355,-5.5993,-5.5595,-5.4834,-5.3711,-5.3277,-5.2842,-5.248,-5.248,-5.248,-5.248,-5.248,-5.248,-8.3448,-8.49,-8.5511,-8.5511,-8.4747,-8.2646,-7.7678,-7.4966,-7.168,-6.5184,0.0,-5.9791,-5.9153,-5.9243,-6.1554,-6.8139,0.0,-7.5487,-8.1063,-8.1491,-8.1208,-8.1093,-8.0439,-7.9669,-7.89,-7.9438,-7.9862,-7.9977,-7.7592,-7.6861,-7.84,-7.7015,-7.6071,-7.5864,-7.5747,-7.5633,-7.5518,-7.5518,-7.5518,-7.548,-7.4622,-7.4201,-7.4129,-7.2288,-7.141,-7.1261,-6.9554,-6.8806,-6.8678,-6.7981,-6.7687,-6.7687,-6.7687,-6.7687,-6.7687,-6.7687,-6.7687,-6.7687,-6.7687,-6.7687,-6.7687,-6.7687,-6.7687,-6.7687,-6.7687,-6.7687,-6.7687,-6.7687,-6.71,-6.6329,-6.5632,-6.4787,-6.3906,-6.3147,-6.2753,-6.2603,-6.2552,-6.2344,-6.1923,-6.11,-6.0883,-6.0375,-5.8963,-5.8637,-5.8275,-5.7478,-5.7369,-5.7333,-5.7224,-5.7188,-5.7188,-5.7188,-5.6573,-5.6102,-5.5993,-5.5993,-5.5993,-5.5993,-5.6645,-5.679,-5.6174,-5.6066,-5.5377,-5.4037,-5.3892,-5.353,-5.2806,-5.2806,-5.277,-5.2661,-5.277,-5.277,-8.3754,-8.49,-8.5511,-8.5511,-8.3868,-8.1079,-7.6685,-7.2788,0.0,0.0,0.0,-5.7558,-5.8182,-5.9422,-6.2092,-6.7458,0.0,0.0,0.0,0.0,-8.1862,0.0,0.0,0.0,-8.0669,-8.0131,-8.0092,-8.0823,-7.8515,-7.7476,-7.8438,-7.7493,-7.6539,-7.5688,-7.5633,-7.5566,-7.5518,-7.5518,-7.5518,-7.548,-7.4622,-7.4201,-7.4146,-7.2054,-7.088,-7.042,-6.9097,-6.828,-6.7907,-6.7787,-6.7687,-6.7687,-6.7687,-6.7687,-6.7687,-6.7687,-6.7687,-6.7687,-6.7687,-6.7687,-6.7687,-6.7687,-6.7687,-6.7687,-6.7687,-6.7687,-6.7687,-6.7687,-6.71,-6.6476,-6.6329,-6.5191,-6.4028,-6.3716,-6.3079,-6.2552,-6.2318,-6.2168,-6.1996,-6.1824,-6.1254,-6.0738,-6.0448,-5.9832,-5.9108,-5.8311,-5.8202,-5.7949,-5.7297,-5.7188,-5.7188,-5.7188,-5.708,-5.6717,-5.6066,-5.5993,-5.5993,-5.5993,-5.6138,-5.6428,-5.6971,-5.6355,-5.5848,-5.5595,-5.5015,-5.4617,-5.4472,-5.4472,-5.4146,-5.3494,-5.4182,-5.4146,-8.5167,-8.5893,-8.6199,-8.6199,-8.3639,-7.9665,-7.4125,0.0,0.0,0.0,0.0,-5.4178,-5.4659,-5.6472,0.0,0.0,0.0,0.0,0.0,0.0,0.0,0.0,0.0,0.0,0.0,-8.0708,-8.0669,-8.1054,-7.9977,-7.9054,-7.8515,-7.7139,-7.6114,-7.5638,-7.5549,-7.5514,-7.5518,-7.5518,-7.5518,-7.548,-7.4201,-7.3448,-7.3135,-7.0987,-6.974,-6.9271,-6.8408,-6.7915,-6.7687,-6.7687,-6.7687,-6.7687,-6.7687,-6.7687,-6.7687,-6.7687,-6.7687,-6.7687,-6.7687,-6.7687,-6.7687,-6.7687,-6.7687,-6.7687,-6.7687,-6.7687,-6.7687,-6.7687,-6.7393,-6.7026,-6.6623,-6.5836,-6.5061,-6.4542,-6.3706,-6.2828,-6.2214,-6.2033,-6.1978,-6.1978,-6.1688,-6.1317,-6.0883,-6.0484,-5.9977,-5.9144,-5.8673,-5.8275,-5.7876,-5.7442,-5.7188,-5.7188,-5.7188,-5.7043,-5.6645,-5.6609,-5.6609,-5.6609,-5.6609,-5.679,-5.7188,-5.6826,-5.6428,-5.5993,-5.5631,-5.5269,-5.4907,-5.4907,-5.4689,-5.4327,-5.4359,-5.4173,-8.6275,-8.679,-8.679,-8.679,-8.3639,-7.871,-7.1947,-6.7056,0.0,0.0,0.0,-5.1453,-5.1917,0.0,0.0,0.0,0.0,0.0,0.0,0.0,0.0,0.0,0.0,0.0,-8.1093,-8.1093,-8.1093,-8.1093,-8.0731,-7.9908,-7.8546,-7.6677,-7.5666,-7.5566,-7.5344,-7.531,-7.5518,-7.531,-7.531,-7.548,-7.3781,-7.2749,-7.2223,-7.0077,-6.8825,-6.837,-6.7915,-6.7687,-6.7687,-6.7687,-6.7687,-6.7687,-6.7687,-6.7687,-6.7687,-6.7687,-6.7687,-6.7687,-6.7687,-6.7687,-6.7687,-6.7687,-6.7687,-6.7687,-6.7687,-6.7687,-6.7687,-6.7687,-6.7687,-6.754,-6.6916,-6.6479,-6.5942,-6.4902,-6.3993,-6.3121,-6.2186,-6.1978,-6.1978,-6.1978,-6.1978,-6.1797,-6.1172,-6.1037,-6.0774,-5.9977,-5.9325,-5.8854,-5.8673,-5.8094,-5.7695,-5.7695,-5.7406,-5.7188,-5.7188,-5.7188,-5.7188,-5.7188,-5.7188,-5.7188,-5.7188,-5.7188,-5.6899,-5.6247,-5.6247,-5.5957,-5.5377,-5.5377,-5.5305,-5.51,-5.4619,-5.4322,-8.5932,-8.679,-8.679,-8.679,-8.3639,-7.8748,-7.2024,0.0,0.0,0.0,-5.1544,-5.0929,-5.2575,0.0,0.0,0.0,0.0,0.0,0.0,0.0,0.0,0.0,0.0,0.0,-8.1093,-8.1093,-8.1093,-8.1093,-7.9569,-7.8567,-7.8333,-7.6585,-7.5566,-7.5518,-7.4736,-7.4698,-7.548,-7.4698,-7.4736,-7.548,-7.3781,-7.2749,-7.2223,-7.0077,-6.8825,-6.837,-6.7915,-6.7687,-6.7687,-6.7687,-6.7687,-6.7687,-6.7687,-6.7687,-6.7687,-6.7687,-6.7687,-6.7687,-6.7687,-6.7687,-6.7687,-6.7687,-6.7687,-6.7687,-6.7687,-6.7687,-6.7687,-6.7687,-6.7687,-6.7677,-6.7614,-6.6883,-6.5742,-6.3966,-6.3375,-6.3011,-6.2186,-6.1978,-6.1978,-6.1978,-6.1978,-6.1978,-6.1906,-6.1869,-6.1616,-6.081,-6.0629,-6.0339,-5.9579,-5.9434,-5.9398,-5.9398,-5.8058,-5.7188,-5.7188,-5.7188,-5.7188,-5.7188,-5.7188,-5.7188,-5.7188,-5.7188,-5.7152,-5.708,-5.708,-5.7043,-5.6971,-5.6971,-5.6609,-5.5921,-5.6044,-5.5678,-8.639,-8.7575,-8.746,-8.6925,-8.2875,-7.7373,-7.1145,0.0,0.0,-5.3989,-5.1467,-5.0535,-5.1266,-5.1475,0.0,0.0,0.0,0.0,0.0,0.0,0.0,0.0,0.0,0.0,0.0,0.0,-8.0959,-8.091,-7.9237,-7.8228,-7.8177,-7.6535,-7.5566,-7.5518,-7.466,-7.4393,-7.4698,-7.3896,-7.3667,-7.3972,-7.2788,-7.1841,-7.1044,-6.9703,-6.8665,-6.7993,-6.7757,-6.7687,-6.7687,-6.7687,-6.7687,-6.7687,-6.7687,-6.7687,-6.7687,-6.7687,-6.7687,-6.7687,-6.7687,-6.7687,-6.7687,-6.7687,-6.7687,-6.7687,-6.7687,-6.7687,-6.7687,-6.7687,-6.7687,-6.7687,-6.7687,-6.7268,-6.6445,-6.5073,-6.4706,-6.4287,-6.2983,-6.273,-6.2585,-6.2087,-6.1978,-6.1978,-6.1978,-6.1978,-6.1869,-6.1543,-6.1109,-6.0701,-6.0375,-5.9905,-5.9615,-5.9615,-5.9035,-5.8456,-5.7949,-5.7913,-5.7732,-5.7224,-5.7188,-5.7188,-5.7188,-5.7188,-5.7188,-5.7188,-5.6819,-5.6661,-5.6661,-5.6661,-5.6491,-5.6168,-5.592,-5.551,-8.5511,-8.7154,-8.7192,-8.6581,-8.1805,-7.5844,0.0,0.0,-5.8651,-5.3798,-5.1467,-5.0333,-5.039,-5.0457,-5.0982,0.0,0.0,0.0,0.0,0.0,0.0,0.0,0.0,-7.7077,-7.9331,-8.0366,-8.0805,-8.0758,-7.9079,-7.807,-7.8091,-7.6237,-7.5149,-7.5119,-7.4278,-7.3858,-7.3858,-7.3017,-7.275,-7.2979,-7.1998,-7.1067,-7.0255,-6.9334,-6.8467,-6.7687,-6.7687,-6.7687,-6.7687,-6.7687,-6.7687,-6.7687,-6.7687,-6.7687,-6.7687,-6.7687,-6.7687,-6.7687,-6.7687,-6.7687,-6.7687,-6.7687,-6.7687,-6.7687,-6.7687,-6.7687,-6.7687,-6.7687,-6.766,-6.7633,-6.7579,-6.735,-6.6887,-6.583,-6.5591,-6.5229,-6.3852,-6.3526,-6.3309,-6.2512,-6.2367,-6.2295,-6.2014,-6.1978,-6.1978,-6.1978,-6.1507,-6.1145,-6.1145,-6.0665,-6.0339,-6.0339,-6.0339,-5.9905,-5.8854,-5.8746,-5.8528,-5.7949,-5.7913,-5.7804,-5.755,-5.755,-5.7442,-5.7188,-5.6608,-5.6311,-5.6311,-5.6083,-5.5999,-5.6035,-5.5396,-5.4887,-8.2722,-8.4938,-8.5511,-8.5511,-8.0468,-7.4431,0.0,-6.3962,-5.7925,-5.3683,-5.1467,-5.0333,-5.039,-5.0457,-5.079,0.0,0.0,0.0,0.0,0.0,0.0,0.0,0.0,-7.4163,-7.578,-7.8886,-8.0758,-8.0614,-7.9045,-7.8091,-7.7984,-7.5577,-7.4201,-7.4201,-7.3437,-7.3017,-7.3017,-7.2138,-7.2138,-7.2979,-7.1654,-7.0773,-7.0255,-6.8992,-6.816,-6.7687,-6.7687,-6.7687,-6.7687,-6.7687,-6.7687,-6.7687,-6.7687,-6.7687,-6.7687,-6.7687,-6.7687,-6.7687,-6.7687,-6.7687,-6.7687,-6.7687,-6.7687,-6.7687,-6.7687,-6.7687,-6.7687,-6.7687,-6.7606,-6.7442,-6.7266,-6.7097,-6.6772,-6.5801,-6.5591,-6.5374,-6.4541,-6.4396,-6.4142,-6.3345,-6.3164,-6.2911,-6.2123,-6.1978,-6.1978,-6.1978,-6.1978,-6.1978,-6.1978,-6.1978,-6.1978,-6.1978,-6.1978,-6.1326,-5.9724,-5.9579,-5.9579,-5.9579,-5.9579,-5.9216,-5.842,-5.8383,-5.8021,-5.7224,-5.6608,-5.6311,-5.6311,-5.5623,-5.5332,-5.5402,-5.4734,-5.3977,-7.4698,-7.6723,-7.7373,-7.5615,-7.2329,-6.8394,-6.4153,-6.0179,-5.6358,-5.2728,-5.1085,-5.0321,-5.0344,-4.9937,-5.0856,-5.4599,0.0,0.0,0.0,0.0,0.0,0.0,-7.3153,-7.739,-7.8939,-8.0054,-8.0384,-7.9759,-7.8688,-7.7523,-7.6341,-7.4966,-7.4201,-7.4201,-7.2826,-7.21,-7.21,-7.1259,-7.0954,-7.1205,-7.0495,-6.9942,-6.9466,-6.8744,-6.816,-6.7687,-6.7687,-6.7687,-6.7687,-6.7687,-6.7687,-6.7687,-6.7687,-6.7687,-6.7687,-6.7687,-6.7687,-6.7687,-6.7687,-6.7687,-6.7687,-6.7687,-6.7687,-6.7687,-6.7579,-6.7633,-6.7687,-6.7579,-6.7442,-6.7238,-6.7097,-6.7011,-6.6917,-6.6489,-6.6424,-6.6207,-6.5374,-6.5229,-6.4975,-6.4178,-6.3997,-6.3744,-6.2947,-6.2802,-6.2621,-6.2087,-6.1978,-6.1978,-6.1978,-6.1978,-6.1978,-6.1978,-6.1978,-6.1543,-6.052,-6.0448,-5.9971,-5.8984,-5.892,-5.8581,-5.79,-5.7836,-5.7729,-5.7481,-5.6821,-5.6268,-5.5745,-5.5529,-5.5189,-5.4703,-5.4264,-5.3682,0.0,-7.1259,-7.1947,-7.0342,-6.7591,-6.442,-6.1134,-5.7925,-5.4791,-5.1735,-5.0436,-4.9748,-4.9404,-4.8985,-4.9865,-5.3349,0.0,0.0,0.0,0.0,0.0,-6.7889,0.0,0.0,-7.9427,-8.0195,-8.0197,-7.9378,-7.8175,-7.6914,-7.5577,-7.4049,-7.3246,-7.3246,-7.2253,-7.1527,-7.1221,-7.0686,-7.0419,-7.0402,-6.9816,-6.9365,-6.9069,-6.8442,-6.7993,-6.7687,-6.7687,-6.7687,0.0,-6.7687,-6.7687,-6.7687,-6.7687,-6.7687,-6.7687,-6.7687,-6.7687,-6.7687,-6.7687,-6.7687,-6.7687,-6.7687,-6.766,-6.7579,-6.7442,-6.747,-6.7488,-6.7414,-6.7238,-6.7097,-6.7011,-6.6961,-6.6903,-6.6815,-6.6786,-6.6677,-6.617,-6.6062,-6.5808,-6.5011,-6.483,-6.4577,-6.378,-6.3635,-6.3382,-6.2585,-6.244,-6.2331,-6.2014,-6.1776,-6.1636,-6.1636,-6.1401,-6.1042,-6.054,-6.0935,-6.0755,-5.9588,-5.9494,-5.9059,-5.811,-5.8044,-5.7938,-5.7592,-5.6926,-5.636,-5.5813,-5.5483,-5.511,-5.4666,-5.4432,-5.409,0.0,-6.7515,-6.8203,-6.805,-6.507,-6.1745,-6.0141,-5.674,0.0,-5.0741,-4.9633,-4.8869,-4.8132,-4.792,-4.829,-4.9541,0.0,0.0,0.0,0.0,0.0,0.0,-7.2477,-7.4724,-7.7938,-7.9567,-8.0047,-7.9187,-7.7602,-7.6265,-7.5271,-7.3034,-7.1718,-7.1603,-7.1603,-7.1221,-7.0419,-7.0419,-7.0402,-7.0369,-6.9506,-6.9069,-6.9003,-6.8109,-6.7687,-6.7687,-6.7687,-6.7687,-6.7687,-6.7687,-6.7687,-6.7687,-6.7687,-6.7687,-6.7687,-6.7687,-6.7687,-6.7687,-6.7687,-6.7687,-6.7687,-6.7687,-6.7579,-6.7442,-6.7238,-6.7182,-6.7182,-6.7182,-6.7097,-6.699,-6.699,-6.6903,-6.6786,-6.6786,-6.6786,-6.6786,-6.6786,-6.6786,-6.6569,-6.5844,-6.57,-6.5446,-6.4613,-6.4468,-6.4215,-6.3418,-6.3273,-6.3019,-6.2268,-6.1638,-6.1188,-6.1087,-6.0543,-6.01,-5.9998,-6.1169,-6.1579,-6.0861,-6.0831,-6.021,-5.879,-5.8724,-5.8409,-5.7643,-5.6967,-5.6537,-5.6302,-5.5506,-5.511,-5.511,-5.511,-5.4968,-5.5632,0.0,-5.8307,-5.6969,-5.5899,-5.4906,0.0,0.0,0.0,0.0,0.0,0.0,0.0,0.0,0.0,0.0,0.0,0.0,-5.9152,0.0,0.0,-7.3734,-7.5841,-7.7658,-7.974,-7.9722,-7.8939,-7.7411,-7.6914,-7.5501,-7.275,-7.2635,-7.2062,-7.0763,-7.0724,-7.061,-7.0419,-7.0419,-7.023,-6.9947,-6.9365,-6.8915,-6.8525,-6.7956,-6.7687,-6.7687,-6.7687,-6.7687,-6.7687,-6.7687,-6.7687,-6.7687,-6.7687,-6.7687,-6.7687,-6.7687,-6.7687,-6.7687,-6.7687,-6.7687,-6.7687,-6.7579,-6.7442,-6.7238,-6.7069,-6.704,-6.704,-6.704,-6.6961,-6.6845,-6.6845,-6.6815,-6.6786,-6.6786,-6.6786,-6.6786,-6.6786,-6.6786,-6.675,-6.6569,-6.6533,-6.6279,-6.5446,-6.5301,-6.5048,-6.4215,-6.4106,-6.4033,-6.3852,-6.3703,-6.3156,-6.204,-6.1788,-6.1233,-6.01,-6.0282,-6.0156,-5.9445,-5.9379,-5.9009,-5.8148,-5.8113,-5.8045,-5.7805,-5.7119,-5.6636,-5.6459,-5.5703,-5.5255,-5.511,-5.4932,-5.4859,-5.1544,-5.3187,-5.46,-5.3645,-5.3416,-5.3187,0.0,0.0,0.0,0.0,0.0,0.0,0.0,0.0,0.0,0.0,-5.5463,0.0,0.0,0.0,-6.997,-7.5403,-7.7182,-7.8519,-7.9818,-7.9169,-7.7984,-7.6265,-7.5424,-7.4049,-7.1794,-7.1756,-7.1565,-7.103,-7.0442,-7.0126,-7.0126,-7.0298,-7.0071,-6.9484,-6.9219,-6.8848,-6.8394,-6.7915,-6.7687,-6.7687,-6.7687,-6.7687,-6.7687,-6.7687,-6.7687,-6.7687,-6.7687,-6.7687,-6.7687,-6.7687,-6.7687,-6.7687,-6.7687,-6.7687,-6.766,-6.7442,-6.7266,-6.7154,-6.699,-6.6903,-6.6903,-6.6903,-6.6845,-6.6786,-6.6786,-6.6786,-6.6786,-6.6786,-6.6786,-6.6786,-6.6786,-6.6786,-6.6786,-6.6786,-6.6786,-6.6677,-6.6243,-6.6134,-6.5881,-6.5084,-6.4939,-6.483,-6.4432,-6.383,-6.3101,-6.2332,-6.1652,-6.077,-5.9667,-5.953,-5.9357,-5.8909,-5.8909,-5.8599,-5.7918,-5.7881,-5.7881,-5.7881,-5.7327,-5.6979,-5.6868,-5.6281,-5.5933,-5.5821,-5.5709,-5.5671,-5.0627,-5.2346,-5.4027,-5.3607,-5.3607,-5.3492,0.0,0.0,0.0,0.0,0.0,0.0,0.0,0.0,0.0,0.0,0.0,0.0,-6.5427,-6.7753,-7.0724,-7.6227,-7.7678,-7.8481,-7.9225,-7.8404,-7.7105,-7.5424,-7.3972,-7.2673,-7.1565,-7.0916,-7.0877,-7.1489,-7.04,-6.9778,-6.9682,-7.0109,-6.9872,-6.8981,-6.9069,-6.8803,-6.8272,-6.7889,-6.7687,-6.7687,-6.7687,-6.7687,-6.7687,-6.7687,-6.7687,-6.7687,-6.7687,-6.7687,-6.7687,-6.7687,-6.7687,-6.7687,-6.7687,-6.766,-6.7606,-6.7266,-6.7182,-6.7126,-6.6874,-6.6786,-6.6786,-6.6786,-6.6786,-6.6786,-6.6786,-6.6786,-6.6786,-6.6786,-6.6786,-6.6786,-6.6786,-6.6786,-6.6786,-6.6786,-6.6786,-6.6786,-6.6786,-6.6697,-6.6385,-6.5698,-6.5501,-6.519,-6.4505,-6.3385,-6.2566,-6.2327,-6.1213,-6.0129,-5.9235,-5.9167,-5.912,-5.9081,-5.8875,-5.8493,-5.7918,-5.7881,-5.7881,-5.7845,-5.7514,-5.7327,-5.7252,-5.6911,-5.6719,-5.668,-5.668,-5.668,-5.204,-5.3225,-5.3569,-5.1429,-5.1429,-5.1773,0.0,0.0,0.0,0.0,0.0,0.0,0.0,0.0,0.0,0.0,0.0,-6.3709,0.0,0.0,-7.359,-7.7373,-7.8557,-7.913,-7.9302,-7.7831,-7.6188,-7.4545,-7.4163,-7.3017,-7.0724,-7.1183,-7.1221,-7.061,-7.0096,-6.9604,-6.9198,-6.9662,-6.9405,-6.8514,-6.8915,-6.8656,-6.782,-6.7741,-6.7687,-6.7687,-6.7687,-6.7687,-6.7687,-6.7687,-6.7687,-6.7687,-6.7687,-6.7687,-6.7687,-6.7687,-6.7687,-6.7687,-6.7552,-6.7524,-6.747,-6.7162,-6.7011,-6.6983,-6.6845,-6.6786,-6.6786,-6.6786,-6.6786,-6.6786,-6.6786,-6.6786,-6.6786,-6.6786,-6.6786,-6.6786,-6.6786,-6.6786,-6.6786,-6.6786,-6.6786,-6.6786,-6.6786,-6.6264,-6.5819,-6.5676,-6.5161,-6.4729,-6.4588,-6.4386,-6.3764,-6.2505,-6.2186,-6.1439,-6.0017,-5.9945,-5.9915,-5.9929,-5.8742,-5.8027,-5.7881,-5.7881,-5.7808,-5.7662,-5.7588,-5.7402,-5.7063,-5.6987,-5.6872,-5.668,-5.668,-5.668,-5.1238,-5.2384,-5.3339,-5.311,-5.3378,0.0,0.0,0.0,0.0,0.0,0.0,0.0,0.0,0.0,0.0,-6.1134,0.0,-6.7018,-7.1107,-7.2444,-7.4049,-7.6953,-7.8061,-7.8404,-7.7946,-7.6341,-7.4851,-7.3628,-7.2673,-7.1642,-7.0457,-7.0801,-7.103,-7.1107,-7.0005,-6.9529,-6.9751,-6.9294,-6.8688,-6.8007,-6.8514,-6.837,-6.7687,-6.7687,-6.7687,-6.7687,-6.7687,-6.7687,-6.7687,-6.7687,-6.7687,-6.7687,-6.7687,-6.7687,-6.7687,-6.7687,-6.766,-6.7579,-6.7497,-6.7414,-6.7294,-6.704,-6.7019,-6.699,-6.6815,-6.6786,-6.6786,-6.6786,-6.6786,-6.6786,-6.6786,-6.6786,-6.6786,-6.6786,-6.6786,-6.6786,-6.6786,-6.6786,-6.6786,-6.6786,-6.6786,-6.6668,-6.6264,-6.5918,-6.5565,-6.5174,-6.4806,-6.4601,-6.4601,-6.4253,-6.3758,-6.305,-6.2644,-6.1957,-6.0829,-6.0757,-6.0385,-5.9573,-5.8863,-5.8321,-5.7915,-5.7881,-5.7845,-5.7772,-5.7551,-5.7364,-5.7176,-5.6949,-5.6796,-5.668,-5.668,-5.668,-5.0818,-5.1811,-5.3148,0.0,0.0,0.0,0.0,0.0,0.0,0.0,0.0,0.0,0.0,0.0,0.0,-6.4917,-6.7439,-6.9616,-7.1947,-7.3017,-7.4354,-7.6456,-7.7296,-7.7373,-7.6494,-7.508,-7.3781,-7.275,-7.145,-7.061,-7.0419,-7.0419,-7.0724,-7.1374,-6.9906,-6.9391,-7.0014,-6.8836,-6.8058,-6.7714,-6.8185,-6.816,-6.7687,-6.7687,-6.7687,-6.7687,-6.7687,-6.7687,-6.7687,-6.7687,-6.7687,-6.7687,-6.7687,-6.7687,-6.7687,-6.766,-6.7579,-6.7506,-6.7387,-6.7303,-6.7126,-6.7019,-6.6961,-6.6932,-6.6815,-6.6786,-6.6786,-6.6786,-6.6786,-6.6786,-6.6786,-6.6786,-6.6786,-6.6786,-6.6786,-6.6786,-6.6786,-6.6668,-6.6512,-6.6512,-6.6391,-6.611,-6.5533,-6.5305,-6.5008,-6.4428,-6.4183,-6.4077,-6.4077,-6.3606,-6.3233,-6.3233,-6.2736,-6.2178,-6.1603,-6.1569,-6.0994,-5.9641,-5.937,-5.8893,-5.8113,-5.8079,-5.7941,-5.7698,-5.7402,-5.7214,-5.7176,-5.6834,-5.668,-5.668,-5.668,-5.668,-5.2422,-5.269,-5.3034,0.0,0.0,0.0,0.0,0.0,0.0,0.0,0.0,0.0,0.0,0.0,-6.4305,-6.6292,-6.9311,-7.2024,-7.3781,-7.4775,-7.5653,-7.657,-7.6761,-7.6494,-7.5653,-7.4736,-7.3514,-7.1909,-7.168,-7.1259,-7.0457,-7.0419,-7.0419,-7.0495,-6.9584,-6.9128,-6.9203,-6.821,-6.7741,-6.7714,-6.8185,-6.816,-6.7687,-6.7687,-6.7687,-6.7687,-6.7687,-6.7687,-6.7687,-6.7687,-6.7687,-6.7687,-6.7687,-6.7687,-6.7687,-6.7552,-6.7534,-6.7479,-6.7162,-6.7048,-6.6983,-6.6845,-6.6786,-6.6786,-6.6786,-6.6786,-6.6786,-6.6786,-6.6786,-6.6786,-6.6786,-6.6786,-6.6786,-6.6786,-6.6786,-6.6786,-6.6786,-6.6264,-6.5792,-6.5792,-6.524,-6.4738,-6.4703,-6.4112,-6.3643,-6.357,-6.2969,-6.2576,-6.2576,-6.2537,-6.2498,-6.2498,-6.242,-6.2381,-6.2313,-6.2313,-6.1975,-6.1197,-6.0419,-5.9633,-5.8702,-5.8631,-5.8144,-5.7063,-5.7025,-5.6911,-5.6719,-5.6719,-5.668,-5.668,-5.668,-5.668,-5.1162,-5.2002,-5.3378,0.0,0.0,0.0,0.0,0.0,0.0,0.0,0.0,0.0,0.0,0.0,-6.6483,-6.8661,-7.1374,-7.3667,-7.4851,-7.5271,-7.5615,-7.5921,-7.5462,-7.5042,-7.4736,-7.3437,-7.2367,-7.1773,-7.1183,-7.0763,-7.0419,-7.0419,-7.0281,-7.0038,-6.9426,-6.8735,-6.7956,-6.7786,-6.743,-6.6953,-6.7631,-6.7863,-6.7687,-6.7687,-6.7687,-6.7687,-6.7687,-6.7687,-6.7687,-6.7687,-6.7687,-6.7687,-6.7687,-6.7633,-6.7552,-6.7497,-6.7359,-6.719,-6.7011,-6.6961,-6.6874,-6.6815,-6.6786,-6.6786,-6.6786,-6.6786,-6.6786,-6.6786,-6.6786,-6.6786,-6.6786,-6.6786,-6.6786,-6.6786,-6.6786,-6.6786,-6.6786,-6.6202,-6.5728,-6.5728,-6.5108,-6.4463,-6.397,-6.3679,-6.3346,-6.2889,-6.2576,-6.2381,-6.2381,-6.2381,-6.2381,-6.2381,-6.2381,-6.2381,-6.2381,-6.2381,-6.2279,-6.2009,-6.1264,-6.0448,-5.9595,-5.9156,-5.8601,-5.8068,-5.7486,-5.7101,-5.6872,-5.6757,-5.668,-5.668,-5.668,-5.668,-5.0206,-5.1123,-5.3034,0.0,0.0,0.0,0.0,0.0,0.0,0.0,0.0,0.0,0.0,0.0,0.0,-7.0075,-7.2559,-7.4507,-7.5386,-7.5518,-7.5403,-7.5119,-7.4545,-7.401,-7.3476,-7.2367,-7.1565,-7.1298,-7.0992,-7.0801,-7.0801,-7.1068,-7.0785,-6.9835,-6.9344,-6.8369,-6.682,-6.6909,-6.6659,-6.6145,-6.6659,-6.721,-6.7687,-6.7687,-6.7687,-6.7687,-6.7687,-6.7687,-6.7687,-6.7687,-6.7687,-6.7687,-6.766,-6.7579,-6.7506,-6.7359,-6.719,-6.6983,-6.6961,-6.6874,-6.6786,-6.6786,-6.6786,-6.6786,-6.6786,-6.6786,-6.6786,-6.6786,-6.6786,-6.6786,-6.6786,-6.6786,-6.6786,-6.6786,-6.6786,-6.6786,-6.6786,-6.6048,-6.5338,-6.5338,-6.4566,-6.3752,-6.3233,-6.3158,-6.3004,-6.2459,-6.2381,-6.2381,-6.2381,-6.2381,-6.2381,-6.2381,-6.2381,-6.2381,-6.2381,-6.2341,-6.2268,-6.2268,-6.1751,-6.1071,-6.0295,-5.9789,-5.9266,-5.8763,-5.7912,-5.7392,-5.7276,-5.689,-5.668,-5.668,-5.6912,-5.7044,-4.9977,-5.0321,0.0,0.0,0.0,0.0,0.0,0.0,0.0,0.0,0.0,0.0,-6.8432,-6.8623,-6.9464,-7.0304,-7.2559,-7.4507,-7.5386,-7.548,-7.5157,-7.4316,-7.4201,-7.3514,-7.1871,-7.168,-7.1336,-7.0495,-7.1183,-7.168,-7.168,-7.2482,-7.1984,-6.9834,-6.931,-6.8091,-6.5989,-6.5545,-6.5301,-6.5301,-6.5301,-6.6145,-6.7677,-6.7677,-6.7677,-6.7677,-6.7677,-6.7677,-6.7687,-6.7687,-6.7687,-6.7687,-6.7552,-6.747,-6.7442,-6.7134,-6.7019,-6.699,-6.6845,-6.6786,-6.6786,-6.6786,-6.6786,-6.6786,-6.6786,-6.6786,-6.6786,-6.6786,-6.6786,-6.6786,-6.6786,-6.6786,-6.6786,-6.6786,-6.6786,-6.6786,-6.6786,-6.5633,-6.4601,-6.4601,-6.3385,-6.2381,-6.2381,-6.2381,-6.2381,-6.2381,-6.2381,-6.2381,-6.2381,-6.2381,-6.2381,-6.2381,-6.2381,-6.2381,-6.2381,-6.215,-6.1997,-6.1997,-6.1797,-6.1374,-6.0638,-6.0604,-6.0071,-5.8933,-5.8171,-5.7806,-5.7806,-5.7077,-5.6713,-5.6713,-5.7475,-5.7806,-4.9519,0.0,0.0,0.0,0.0,0.0,0.0,0.0,0.0,0.0,0.0,-7.3055,-7.1718,-7.0686,-7.0304,-7.1183,-7.2941,-7.4507,-7.5386,-7.4966,-7.4736,-7.508,-7.3514,-7.2482,-7.2597,-7.1527,-7.0916,-7.1298,-7.0992,-7.1068,-7.1696,-7.0839,-6.9766,-6.8515,-6.771,-6.6493,-6.4697,-6.5085,-6.5007,-6.4457,-6.5044,-6.5558,-6.5999,-6.5999,-6.5999,-6.5999,-6.5999,-6.6329,-6.688,-6.7467,-6.7633,-6.7552,-6.7534,-6.7359,-6.7134,-6.7048,-6.6932,-6.6845,-6.6786,-6.6786,-6.6786,-6.6786,-6.6786,-6.6786,-6.6786,-6.6786,-6.6786,-6.6786,-6.6786,-6.6786,-6.6786,-6.6786,-6.6786,-6.6786,-6.6786,-6.6668,-6.6141,-6.5273,-6.4463,-6.3933,-6.3045,-6.2381,-6.2381,-6.2381,-6.2381,-6.2381,-6.2381,-6.2381,-6.2381,-6.2381,-6.2381,-6.2381,-6.2381,-6.2381,-6.2381,-6.2341,-6.2268,-6.2268,-6.207,-6.1736,-6.1408,-6.0872,-6.0385,-5.9871,-5.9172,-5.8727,-5.8568,-5.8336,-5.8237,-5.8237,-5.8469,-5.8568,0.0,0.0,0.0,0.0,0.0,0.0,0.0,0.0,0.0,0.0,0.0,-7.5042,-7.4545,-7.3055,-7.21,-7.2597,-7.3819,-7.4775,-7.4966,-7.4545,-7.4163,-7.401,-7.2635,-7.1756,-7.1947,-7.103,-7.061,-7.1145,-7.103,-7.1145,-7.168,-7.0724,-6.9485,-6.7952,-6.7046,-6.562,-6.3576,-6.4053,-6.4053,-6.3576,-6.409,-6.431,-6.4347,-6.5007,-6.5301,-6.5301,-6.5301,-6.5595,-6.6072,-6.6496,-6.6599,-6.6555,-6.6774,-6.6717,-6.6583,-6.6816,-6.6874,-6.6786,-6.6786,-6.6786,-6.6786,-6.6786,-6.6786,-6.6786,-6.6786,-6.6786,-6.6786,-6.6786,-6.6786,-6.6786,-6.6786,-6.6786,-6.6786,-6.6786,-6.6608,-6.6233,-6.5792,-6.4907,-6.4005,-6.357,-6.2928,-6.2381,-6.2381,-6.2381,-6.2381,-6.2381,-6.2381,-6.2381,-6.2381,-6.2381,-6.2381,-6.2381,-6.2381,-6.2381,-6.2381,-6.2223,-6.2144,-6.2144,-6.183,-6.1588,-6.1499,-6.1113,-6.0798,-6.0628,-5.9897,-5.9451,-5.933,-5.9032,-5.8899,-5.8899,-5.9198,-5.933,0.0,0.0,0.0,0.0,0.0,0.0,0.0,0.0,0.0,-8.0238,0.0,-7.68,-7.6723,-7.5386,-7.4316,-7.4316,-7.4966,-7.5195,-7.4316,-7.4125,-7.3514,-7.1985,-7.168,-7.1298,-7.061,-7.0457,-7.0419,-7.0533,-7.1183,-7.1565,-7.1565,-7.1396,-7.019,-6.7748,-6.6783,-6.5188,-6.2805,-6.278,-6.278,-6.278,-6.278,-6.278,-6.2853,-6.4383,-6.5081,-6.5081,-6.5154,-6.5165,-6.5165,-6.5108,-6.5091,-6.5111,-6.5532,-6.5747,-6.5864,-6.6482,-6.675,-6.6786,-6.6786,-6.6786,-6.6786,-6.6786,-6.6786,-6.6786,-6.6786,-6.6786,-6.6786,-6.6786,-6.6786,-6.6786,-6.6786,-6.6727,-6.6697,-6.6697,-6.6202,-6.5697,-6.5597,-6.4497,-6.3494,-6.342,-6.2851,-6.2381,-6.2381,-6.2381,-6.2381,-6.2381,-6.2381,-6.2381,-6.2381,-6.2381,-6.2381,-6.2381,-6.2381,-6.2381,-6.2381,-6.1991,-6.175,-6.175,-6.1375,-6.1127,-6.1127,-6.1293,-6.1293,-6.1119,-6.0456,-6.0092,-6.0092,-5.9429,-5.9098,-5.9131,-5.9794,-6.0092,0.0,0.0,0.0,0.0,0.0,0.0,0.0,0.0,0.0,-7.9513,-7.8596,-7.7526,-7.6838,-7.5883,-7.5233,-7.5233,-7.5386,-7.5195,-7.4316,-7.3667,-7.3132,-7.275,-7.1527,-7.0877,-7.1374,-7.0801,-7.0686,-7.1374,-7.0954,-7.0686,-7.0686,-6.9137,-6.7543,-6.5977,-6.4796,-6.3748,-6.2805,-6.278,-6.278,-6.278,-6.278,-6.278,-6.278,-6.3172,-6.3356,-6.3367,-6.4053,-6.4296,-6.4166,-6.4825,-6.4948,-6.4731,-6.4793,-6.5182,-6.5685,-6.5772,-6.6243,-6.6786,-6.6786,-6.6786,-6.6786,-6.6786,-6.6786,-6.6786,-6.6786,-6.6786,-6.6786,-6.6786,-6.6786,-6.6786,-6.6786,-6.6391,-6.5918,-6.5918,-6.5824,-6.5533,-6.4974,-6.4112,-6.3346,-6.2736,-6.2498,-6.2381,-6.2381,-6.2381,-6.2381,-6.2381,-6.2381,-6.2381,-6.2381,-6.2381,-6.2381,-6.2381,-6.2381,-6.2381,-6.2381,-6.2302,-6.2263,-6.2263,-6.179,-6.1547,-6.1547,-6.1293,-6.1127,-6.1119,-6.0953,-6.0854,-6.0854,-6.0721,-6.0622,-6.0622,-6.0788,-6.0854,0.0,0.0,0.0,0.0,0.0,0.0,0.0,0.0,0.0,-7.7658,-7.7411,-7.7258,-7.6761,-7.5692,-7.4889,-7.4889,-7.4545,-7.401,-7.3132,-7.2635,-7.2215,-7.1794,-7.0954,-7.0572,-7.103,-7.0686,-7.0419,-7.0495,-7.0075,-6.9655,-6.9234,-6.7604,-6.6277,-6.5431,-6.4165,-6.3262,-6.2805,-6.278,-6.278,-6.278,-6.278,-6.278,-6.278,-6.278,-6.278,-6.2817,-6.3207,-6.3339,-6.3236,-6.357,-6.3593,-6.3494,-6.3802,-6.4154,-6.4541,-6.5301,-6.5881,-6.6279,-6.6677,-6.6786,-6.6786,-6.6786,-6.6786,-6.6786,-6.6786,-6.6786,-6.6786,-6.6786,-6.6578,-6.6264,-6.6264,-6.5728,-6.5174,-6.5174,-6.4907,-6.4532,-6.4147,-6.3496,-6.2851,-6.2459,-6.2381,-6.2381,-6.2381,-6.2381,-6.2381,-6.2381,-6.2381,-6.2381,-6.2381,-6.2381,-6.2381,-6.2381,-6.2381,-6.2381,-6.2381,-6.2183,-6.211,-6.2189,-6.1709,-6.1458,-6.1547,-6.1252,-6.1119,-6.1119,-6.1119,-6.1119,-6.1119,-6.1119,-6.1119,-6.1119,-6.1119,-6.1119,0.0,0.0,0.0,0.0,0.0,0.0,0.0,0.0,0.0,-7.5386,-7.5806,-7.6379,-7.6112,-7.4927,-7.401,-7.401,-7.3437,-7.2711,-7.1794,-7.168,-7.1374,-7.0495,-7.0419,-7.0419,-7.0419,-7.0266,-6.996,-6.9464,-6.912,-6.8661,-6.7935,-6.664,-6.5672,-6.5206,-6.4003,-6.3205,-6.2805,-6.278,-6.278,-6.278,-6.278,-6.278,-6.278,-6.278,-6.2755,-6.2755,-6.2654,-6.2578,-6.2526,-6.2291,-6.2195,-6.2204,-6.2785,-6.3056,-6.3345,-6.4685,-6.5374,-6.57,-6.6351,-6.6677,-6.6786,-6.6786,-6.6786,-6.6786,-6.6786,-6.6786,-6.6786,-6.6786,-6.6264,-6.5728,-6.5728,-6.5074,-6.4393,-6.4393,-6.3861,-6.3346,-6.3459,-6.2928,-6.2381,-6.2381,-6.2381,-6.2381,-6.2381,-6.2381,-6.2381,-6.2381,-6.2381,-6.2381,-6.2381,-6.2381,-6.2381,-6.2341,-6.2341,-6.2341,-6.2302,-6.1911,-6.179,-6.1957,-6.1424,-6.121,-6.1383,-6.121,-6.1119,-6.1119,-6.1119,-6.1119,-6.1119,-6.1119,-6.1119,-6.1119,-6.1119,-6.1119,0.0,0.0,0.0,0.0,0.0,0.0,0.0,0.0,0.0,0.0,-7.4545,-7.5195,-7.3743,-7.3323,-7.317,-7.317,-7.3055,-7.2711,-7.1794,-7.168,-7.1374,-7.0495,-7.0419,-7.0419,-7.0419,-6.9769,-6.9616,-7.019,-6.889,-6.8012,-6.7897,-6.6351,-6.5096,-6.4284,-6.3368,-6.2855,-6.278,-6.278,-6.278,-6.278,-6.278,-6.278,-6.278,-6.2679,-6.2629,-6.2629,-6.2603,-6.2475,-6.2238,-6.2212,-6.2141,-6.2041,-6.215,-6.2585,-6.32,-6.3418,-6.4396,-6.5627,-6.5736,-6.6207,-6.6786,-6.6786,-6.6786,-6.6786,-6.6786,-6.6786,-6.6786,-6.6786,-6.6264,-6.5728,-6.5728,-6.4669,-6.3643,-6.3643,-6.3083,-6.2697,-6.3383,-6.2928,-6.2381,-6.2381,-6.2381,-6.2381,-6.2381,-6.2381,-6.2381,-6.2381,-6.2381,-6.2381,-6.2381,-6.2381,-6.2341,-6.2076,-6.2037,-6.1957,-6.179,-6.175,-6.1709,-6.175,-6.1506,-6.1342,-6.1383,-6.121,-6.1119,-6.1119,-6.1119,-6.1119,-6.1119,-6.1119,-6.1119,-6.1119,-6.1119,-6.1119,0.0,0.0,0.0,0.0,0.0,0.0,0.0,0.0,0.0,-7.317,-7.3208,-7.3284,-7.3055,-7.2597,-7.2253,-7.2253,-7.1871,-7.1412,-7.103,-7.0954,-7.0839,-7.0457,-7.0419,-7.0228,-6.9769,-6.9425,-6.8967,-6.8394,-6.763,-6.7018,-6.6522,-6.535,-6.451,-6.4096,-6.3262,-6.278,-6.278,-6.278,-6.278,-6.278,-6.273,-6.2679,-6.2679,-6.2552,-6.2526,-6.2603,-6.2449,-6.2291,-6.2185,-6.2141,-6.206,-6.1978,-6.1978,-6.2223,-6.2657,-6.3526,-6.4323,-6.5048,-6.5953,-6.6496,-6.6786,-6.6786,-6.6786,-6.6786,-6.6786,-6.6786,-6.6697,-6.6294,-6.5665,-6.5008,-6.4566,-6.3679,-6.2889,-6.2889,-6.2654,-6.2498,-6.2813,-6.262,-6.2381,-6.2381,-6.2381,-6.2381,-6.2381,-6.2381,-6.2381,-6.2381,-6.2381,-6.2381,-6.2381,-6.2381,-6.2341,-6.2229,-6.2076,-6.1957,-6.1877,-6.1669,-6.1588,-6.1709,-6.1417,-6.1293,-6.1383,-6.121,-6.1119,-6.1119,-6.1119,-6.1119,-6.1119,-6.1119,-6.1119,-6.1119,-6.1119,-6.1119,0.0,0.0,0.0,0.0,0.0,0.0,0.0,0.0,-7.2826,0.0,-7.1833,-7.1565,-7.2215,-7.1794,-7.1374,-7.1374,-7.0839,-7.0419,-7.0419,-7.0419,-7.0419,-7.0419,-7.0228,-6.9846,-6.9273,-6.8814,-6.8126,-6.7095,-6.6598,-6.6178,-6.5757,-6.4689,-6.4096,-6.4096,-6.3262,-6.278,-6.278,-6.278,-6.278,-6.2755,-6.2654,-6.2578,-6.2552,-6.2397,-6.2397,-6.25,-6.2291,-6.2158,-6.2141,-6.2033,-6.1978,-6.1978,-6.1978,-6.1978,-6.2123,-6.3345,-6.4033,-6.4577,-6.5772,-6.646,-6.6786,-6.6786,-6.6786,-6.6786,-6.6786,-6.6786,-6.6697,-6.6141,-6.5305,-6.4463,-6.3933,-6.3083,-6.2381,-6.2381,-6.2381,-6.2381,-6.2381,-6.2381,-6.2381,-6.2381,-6.2381,-6.2381,-6.2381,-6.2381,-6.2381,-6.2381,-6.2381,-6.2381,-6.2381,-6.2341,-6.2302,-6.2223,-6.1991,-6.1837,-6.1756,-6.1506,-6.1417,-6.1539,-6.1252,-6.1169,-6.1334,-6.1169,-6.1119,-6.1119,-6.1119,-6.1119,-6.1119,-6.1119,-6.1119,-6.1119,-6.1119,-6.1119,0.0,0.0,0.0,0.0,0.0,0.0,0.0,0.0,0.0,-7.0381,-7.0495,-7.0495,-7.0533,-7.0495,-7.0495,-7.0495,-7.0419,-7.0419,-7.0419,-7.0419,-7.0419,-7.0419,-6.9731,-6.9234,-6.9196,-6.7744,-6.7095,-6.7782,-6.6369,-6.5796,-6.6598,-6.5029,-6.4096,-6.4096,-6.3262,-6.278,-6.278,-6.278,-6.273,-6.2603,-6.2603,-6.2526,-6.2433,-6.2265,-6.2212,-6.2212,-6.2185,-6.2141,-6.2005,-6.1978,-6.1978,-6.1978,-6.1978,-6.1978,-6.2014,-6.2087,-6.3092,-6.4396,-6.4504,-6.5518,-6.6786,-6.6786,-6.6786,-6.6786,-6.6786,-6.6786,-6.6786,-6.6757,-6.5697,-6.4601,-6.4566,-6.3459,-6.2381,-6.2381,-6.2381,-6.2381,-6.2381,-6.2381,-6.2381,-6.2381,-6.2381,-6.2381,-6.2381,-6.2381,-6.2381,-6.2381,-6.2381,-6.2381,-6.2381,-6.2189,-6.1957,-6.175,-6.1547,-6.1342,-6.1127,-6.1161,-6.1119,-6.1161,-6.1119,-6.1119,-6.1119,-6.1119,-6.1119,-6.1119,-6.1119,-6.1119,-6.1119,-6.1119,-6.1119,-6.1119,-6.1119,-6.1119,0.0,0.0,0.0,0.0,0.0,0.0,0.0,0.0,-6.8623,-6.9464,-6.9196,-6.8814,-6.8814,-6.9693,-7.0228,-6.9731,-7.0075,-7.0228,-6.9693,-7.0075,-7.0228,-6.9693,-6.9387,-6.8776,-6.7706,-6.7056,-6.6598,-6.633,-6.5493,-6.5133,-6.5475,-6.4344,-6.3718,-6.3718,-6.3134,-6.278,-6.278,-6.278,-6.273,-6.2603,-6.25,-6.2397,-6.2265,-6.2141,-6.206,-6.206,-6.206,-6.2033,-6.1978,-6.1978,-6.1978,-6.1978,-6.1978,-6.1978,-6.205,-6.2585,-6.3454,-6.4468,-6.4975,-6.5881,-6.6786,-6.6786,-6.6786,-6.6786,-6.6786,-6.6786,-6.6697,-6.6233,-6.5371,-6.4497,-6.404,-6.3158,-6.2381,-6.2381,-6.2381,-6.2381,-6.2381,-6.2381,-6.2381,-6.2381,-6.2381,-6.2381,-6.2381,-6.2381,-6.2245,-6.1772,-6.2076,-6.2212,-6.1738,-6.1998,-6.215,-6.1917,-6.1709,-6.1506,-6.1334,-6.1169,-6.1119,-6.1119,-6.1119,-6.1119,-6.1119,-6.1119,-6.1119,-6.1119,-6.1119,-6.1119,-6.1119,-6.1119,-6.1119,-6.1119,-6.1119,-6.1119,0.0,0.0,0.0,0.0,0.0,0.0,0.0,0.0,-6.6292,-6.8012,-6.8126,-6.7897,-6.7897,-6.8814,-6.9387,-6.8852,-6.9196,-6.9387,-6.8852,-6.9234,-6.9349,-6.8814,-6.8547,-6.7935,-6.6827,-6.6445,-6.6025,-6.5452,-6.5035,-6.4792,-6.4792,-6.3971,-6.3422,-6.3299,-6.2941,-6.278,-6.278,-6.3012,-6.291,-6.2526,-6.2662,-6.2529,-6.2141,-6.2033,-6.1978,-6.1978,-6.1978,-6.1978,-6.1978,-6.1978,-6.1978,-6.1978,-6.1978,-6.1978,-6.2087,-6.2911,-6.3708,-6.4504,-6.5301,-6.6134,-6.6786,-6.6786,-6.6786,-6.6786,-6.6786,-6.6786,-6.6638,-6.5918,-6.5174,-6.4428,-6.3679,-6.2931,-6.2381,-6.2381,-6.2381,-6.2448,-6.2719,-6.2753,-6.2753,-6.2753,-6.2956,-6.3125,-6.3125,-6.3125,-6.2956,-6.2482,-6.2618,-6.2685,-6.2448,-6.2263,-6.2171,-6.2253,-6.1803,-6.1424,-6.1334,-6.1169,-6.1218,-6.145,-6.145,-6.1583,-6.1815,-6.1583,-6.145,-6.145,-6.1218,-6.1119,-6.1119,-6.1119,-6.1119,-6.1119,-6.1119,-6.1119,0.0,0.0,0.0,0.0,0.0,0.0,0.0,0.0,-6.2319,-6.5796,-6.7095,-6.7668,-6.7782,-6.7821,-6.7782,-6.7821,-6.7859,-6.7897,-6.7859,-6.7897,-6.7897,-6.7859,-6.7171,-6.6713,-6.6674,-6.591,-6.5413,-6.5413,-6.5019,-6.4775,-6.4775,-6.395,-6.3262,-6.2805,-6.278,-6.278,-6.278,-6.3423,-6.3294,-6.2407,-6.3039,-6.2903,-6.1978,-6.1978,-6.1978,-6.1978,-6.1978,-6.1978,-6.1978,-6.1978,-6.1978,-6.1978,-6.1978,-6.2014,-6.215,-6.2911,-6.3708,-6.4541,-6.5337,-6.6134,-6.6786,-6.6786,-6.6786,-6.6786,-6.6786,-6.6786,-6.6638,-6.5918,-6.5174,-6.4428,-6.3643,-6.2966,-6.2381,-6.2415,-6.2415,-6.2618,-6.3396,-6.3565,-6.3565,-6.3565,-6.4106,-6.4613,-6.4613,-6.4613,-6.458,-6.458,-6.3971,-6.3768,-6.4478,-6.2932,-6.2011,-6.2747,-6.18,-6.1185,-6.1185,-6.1185,-6.145,-6.2221,-6.2255,-6.2553,-6.3282,-6.2619,-6.2255,-6.2255,-6.1516,-6.1152,-6.1152,-6.1119,-6.1119,-6.1119,-6.1119,-6.1119,-4.1648,0.0,0.0,0.0,0.0,0.0,0.0,0.0,-5.6549,-6.1172,-6.1822,-6.2471,-6.5528,-6.5605,-6.5413,-6.5987,-6.7095,-6.7706,-6.7095,-6.7515,-6.7668,-6.7095,-6.6827,-6.6445,-6.5834,-6.5528,-6.5413,-6.5413,-6.4701,-6.4274,-6.4274,-6.3453,-6.2953,-6.2805,-6.278,-6.2755,-6.2654,-6.2848,-6.2694,-6.2275,-6.2466,-6.2359,-6.1978,-6.1978,-6.1978,-6.1978,-6.1978,-6.1978,-6.1978,-6.1978,-6.1978,-6.1978,-6.1978,-6.2367,-6.2875,-6.3092,-6.407,-6.5301,-6.5518,-6.6134,-6.6786,-6.6786,-6.6786,-6.6786,-6.6786,-6.6786,-6.6638,-6.5918,-6.5174,-6.4323,-6.3045,-6.2576,-6.2516,-6.3091,-6.3193,-6.3396,-6.414,-6.4715,-6.4918,-6.441,-6.4478,-6.4613,-6.4613,-6.4613,-6.441,-6.3903,-6.3632,-6.3485,-6.3492,-6.3033,-6.2863,-6.3342,-6.3073,-6.2846,-6.2719,-6.2676,-6.2775,-6.2984,-6.3017,-6.3116,-6.3315,-6.3116,-6.3017,-6.3017,-6.2288,-6.1923,-6.1881,-6.1351,-6.1119,-6.1119,-6.1119,-6.1119,-4.2374,-4.2679,0.0,-4.3558,0.0,0.0,-4.8945,-5.0856,-5.3301,0.0,-5.9759,-6.0599,-6.377,-6.3694,-6.3388,-6.4229,-6.549,-6.6292,-6.6178,-6.656,-6.6674,-6.6216,-6.6178,-6.5948,-6.5452,-6.5413,-6.5413,-6.5413,-6.4593,-6.3934,-6.3587,-6.3086,-6.278,-6.278,-6.278,-6.273,-6.2603,-6.2881,-6.2725,-6.2185,-6.2495,-6.2413,-6.1978,-6.1978,-6.1978,-6.1978,-6.1978,-6.1978,-6.1978,-6.1978,-6.1978,-6.2014,-6.2367,-6.2802,-6.3273,-6.3925,-6.4794,-6.5663,-6.5989,-6.6424,-6.6786,-6.6786,-6.6786,-6.6786,-6.6786,-6.6608,-6.6172,-6.5436,-6.4497,-6.3496,-6.262,-6.2381,-6.2584,-6.3328,-6.3531,-6.3802,-6.4816,-6.5392,-6.5561,-6.5121,-6.5324,-6.5527,-6.5527,-6.5527,-6.5392,-6.4952,-6.4613,-6.4431,-6.4487,-6.39,-6.3592,-6.4024,-6.3696,-6.3444,-6.3315,-6.3315,-6.3448,-6.3746,-6.3779,-6.3868,-6.4167,-6.3902,-6.3779,-6.3779,-6.305,-6.2685,-6.2685,-6.1616,-6.1119,-6.1119,-6.1119,-6.1119,-4.3634,-4.3777,-4.4694,-4.5812,-4.4131,0.0,-4.9862,-5.0474,-5.1276,-5.674,-5.8459,-5.9644,-6.1707,-6.144,-6.1172,-6.1936,-6.3045,-6.4129,-6.5146,-6.5337,-6.5413,-6.5413,-6.5413,-6.5413,-6.5413,-6.5413,-6.5413,-6.5413,-6.4593,-6.3739,-6.2855,-6.278,-6.278,-6.278,-6.278,-6.2705,-6.2578,-6.3142,-6.3046,-6.2195,-6.2785,-6.2693,-6.1978,-6.1978,-6.1978,-6.1978,-6.1978,-6.1978,-6.2014,-6.2087,-6.215,-6.2195,-6.2911,-6.3309,-6.3635,-6.4975,-6.5591,-6.5808,-6.646,-6.675,-6.6786,-6.6786,-6.6786,-6.6757,-6.6697,-6.6202,-6.5533,-6.4703,-6.3459,-6.2381,-6.2381,-6.2448,-6.2719,-6.3463,-6.37,-6.414,-6.5527,-6.5797,-6.5797,-6.5797,-6.6339,-6.6812,-6.6812,-6.6812,-6.6812,-6.6812,-6.617,-6.5883,-6.6406,-6.5051,-6.4236,-6.4757,-6.4075,-6.3504,-6.3504,-6.3504,-6.3802,-6.4465,-6.4498,-6.4763,-6.5392,-6.4829,-6.4498,-6.4498,-6.3769,-6.3415,-6.3315,-6.198,-6.1351,-6.1351,-6.1351,-6.1351,-4.608,-4.6413,-4.6489,-4.4131,-4.5048,0.0,-4.245,-4.4055,-4.6997,0.0,-5.0118,-5.1608,-5.6052,-5.674,-5.6664,-5.6855,-5.9262,-6.1913,-6.4129,-6.4993,-6.5413,-6.5413,-6.5413,-6.5413,-6.5413,-6.5413,-6.5413,-6.5413,-6.4593,-6.3739,-6.2855,-6.278,-6.278,-6.278,-6.2705,-6.2578,-6.2423,-6.2474,-6.234,-6.2033,-6.2186,-6.2123,-6.1978,-6.1978,-6.1978,-6.1978,-6.1978,-6.1978,-6.205,-6.2693,-6.2947,-6.2983,-6.3128,-6.3997,-6.5084,-6.4758,-6.5446,-6.6496,-6.5989,-6.6243,-6.6786,-6.6786,-6.6786,-6.6697,-6.611,-6.5824,-6.5403,-6.4077,-6.3083,-6.2381,-6.2381,-6.2854,-6.3497,-6.4208,-6.485,-6.5493,-6.6406,-6.6609,-6.6609,-6.6609,-6.6711,-6.6812,-6.6812,-6.6812,-6.6812,-6.6812,-6.617,-6.5883,-6.6406,-6.5487,-6.5006,-6.5524,-6.5227,-6.4995,-6.4995,-6.4995,-6.5061,-6.5194,-6.5194,-6.526,-6.5392,-6.5293,-6.5194,-6.5194,-6.4531,-6.3868,-6.3315,-6.2974,-6.2842,-6.2842,-6.2842,-6.2842,-4.6959,-4.6806,-4.6833,-4.5621,-4.5611,0.0,0.0,-4.3749,-4.5354,-4.7914,-4.7761,-4.8437,-5.2728,-5.2805,-5.2652,-5.3913,-5.6931,-5.9453,-6.0307,-6.2586,-6.4153,-6.4153,-6.4153,-6.4305,-6.4764,-6.4802,-6.4778,-6.4772,-6.4174,-6.3498,-6.283,-6.278,-6.2755,-6.2705,-6.2629,-6.25,-6.2291,-6.2212,-6.2141,-6.1978,-6.1978,-6.1978,-6.1978,-6.1978,-6.1978,-6.1978,-6.1978,-6.1978,-6.205,-6.2875,-6.3418,-6.378,-6.378,-6.4287,-6.5011,-6.5011,-6.5518,-6.6207,-6.6207,-6.646,-6.6786,-6.6786,-6.6542,-6.6172,-6.5824,-6.5174,-6.4358,-6.3271,-6.2659,-6.2482,-6.2854,-6.3226,-6.3802,-6.4884,-6.5425,-6.5899,-6.6643,-6.6812,-6.6812,-6.6812,-6.6812,-6.6812,-6.6812,-6.6812,-6.6812,-6.6812,-6.6508,-6.6323,-6.6473,-6.5923,-6.5607,-6.579,-6.5559,-6.5425,-6.5425,-6.5425,-6.5425,-6.5425,-6.5425,-6.5425,-6.5425,-6.5425,-6.5425,-6.5425,-6.5061,-6.473,-6.4332,-6.4332,-6.3968,-6.3315,-6.3315,-6.3315,-4.8372,-4.7952,-4.8143,-4.7865,-4.6719,-4.5611,0.0,0.0,0.0,-4.692,-4.6538,-4.6691,0.0,0.0,-4.8957,-5.0818,-5.3951,-5.5976,-5.5263,-5.8383,-6.1096,-6.2051,-6.2319,-6.2777,-6.3618,-6.3359,-6.3291,-6.363,-6.2993,-6.2581,-6.2573,-6.2732,-6.273,-6.2603,-6.2578,-6.2449,-6.2185,-6.2158,-6.2114,-6.1978,-6.1978,-6.1978,-6.1978,-6.1978,-6.1978,-6.1978,-6.1978,-6.2087,-6.2295,-6.3092,-6.3889,-6.4613,-6.4468,-6.4468,-6.4685,-6.5192,-6.5482,-6.57,-6.6351,-6.6677,-6.6757,-6.6638,-6.5981,-6.5273,-6.5273,-6.4358,-6.3158,-6.2576,-6.2381,-6.255,-6.3328,-6.3632,-6.4072,-6.5358,-6.5797,-6.6068,-6.6677,-6.6812,-6.6812,-6.6812,-6.6812,-6.6812,-6.6812,-6.6812,-6.6812,-6.6812,-6.6812,-6.6728,-6.6592,-6.6345,-6.6129,-6.5867,-6.5647,-6.547,-6.5425,-6.5425,-6.5425,-6.5425,-6.5425,-6.5425,-6.5425,-6.5425,-6.5425,-6.5425,-6.5425,-6.5425,-6.5425,-6.5425,-6.4829,-6.367,-6.367,-6.367,-5.2575,-5.3225,-5.3339,-4.8896,-4.9824,-4.9901,-4.2631,0.0,-4.3472,-4.1676,0.0,-4.3558,-4.4656,0.0,0.0,-4.5076,-4.7876,-5.0065,-4.9989,-5.1658,-5.4549,-5.8981,-6.0217,-6.0981,-6.1822,-6.0334,-6.0042,-6.1844,-6.0289,-5.9974,-6.1655,-6.2401,-6.273,-6.2603,-6.2475,-6.2344,-6.2185,-6.2087,-6.2005,-6.1978,-6.1978,-6.1978,-6.1978,-6.1978,-6.1978,-6.1978,-6.1978,-6.2404,-6.3128,-6.3925,-6.4722,-6.5374,-6.4685,-6.483,-6.5374,-6.4758,-6.4975,-6.5627,-6.57,-6.6207,-6.6697,-6.6048,-6.4873,-6.3752,-6.3752,-6.3158,-6.2498,-6.242,-6.2381,-6.255,-6.3328,-6.4005,-6.4681,-6.5493,-6.6203,-6.6711,-6.6779,-6.6812,-6.6812,-6.6812,-6.6812,-6.6812,-6.6812,-6.6812,-6.6812,-6.6812,-6.6812,-6.677,-6.677,-6.6558,-6.6345,-6.6095,-6.5867,-6.5647,-6.5425,-6.5425,-6.5425,-6.5425,-6.5425,-6.5425,-6.5425,-6.5425,-6.5425,-6.5425,-6.5425,-6.5425,-6.5425,-6.5425,-6.5326,-6.516,-6.516,-6.516,-5.2575,-5.2996,-5.3148,-5.0015,-4.9939,-4.9213,-4.3701,-4.2899,-4.287,-4.1304,0.0,0.0,0.0,0.0,0.0,0.0,-4.6042,-4.7417,-4.6969,-4.8754,-5.1658,-5.5708,-5.567,-5.6205,-5.8459,-5.803,-5.8545,-6.0792,-5.8867,-5.8776,-6.1471,-6.1924,-6.2228,-6.2475,-6.2423,-6.2301,-6.2087,-6.2033,-6.1978,-6.2014,-6.2476,-6.2693,-6.2693,-6.3164,-6.3382,-6.3382,-6.3382,-6.3563,-6.3961,-6.4758,-6.5301,-6.5518,-6.4722,-6.4613,-6.4867,-6.4504,-6.4613,-6.5048,-6.5989,-6.6533,-6.6668,-6.5918,-6.5273,-6.4635,-6.3752,-6.3271,-6.2966,-6.2537,-6.2381,-6.2651,-6.3835,-6.4377,-6.4884,-6.6068,-6.6576,-6.6812,-6.6812,-6.6812,-6.6812,-6.6812,-6.6812,-6.6812,-6.6812,-6.6812,-6.6812,-6.6812,-6.6812,-6.6812,-6.6812,-6.6635,-6.6464,-6.6345,-6.6129,-6.5922,-6.579,-6.579,-6.579,-6.579,-6.5692,-6.5559,-6.5425,-6.5425,-6.5425,-6.5425,-6.5425,-6.5425,-6.5425,-6.5425,-6.5425,-6.5425,-6.5425,-6.5425,-5.3569,-5.3722,-5.3798,-5.0741,-4.9519,-4.8143,-4.4513,-4.3405,-4.2947,-4.2335,-4.2756,0.0,0.0,0.0,-4.3138,0.0,0.0,-4.5545,0.0,-4.5812,-4.8105,-5.1926,-5.1926,-5.2513,-5.4867,-5.47,-5.5685,-5.869,-5.6784,-5.7079,-6.075,-6.1349,-6.1714,-6.2068,-6.2235,-6.2248,-6.1978,-6.1978,-6.1978,-6.2014,-6.2802,-6.32,-6.32,-6.4033,-6.4396,-6.4396,-6.4396,-6.4504,-6.4758,-6.5374,-6.5591,-6.5518,-6.4722,-6.4251,-6.4106,-6.4323,-6.4396,-6.4613,-6.6243,-6.6668,-6.6391,-6.5665,-6.5273,-6.4873,-6.357,-6.3196,-6.3083,-6.2576,-6.2381,-6.2719,-6.4208,-6.4613,-6.4986,-6.6474,-6.6812,-6.6812,-6.6812,-6.6812,-6.6812,-6.6812,-6.6812,-6.6812,-6.6812,-6.6812,-6.6812,-6.6812,-6.6812,-6.6812,-6.6812,-6.6643,-6.655,-6.6507,-6.6302,-6.6239,-6.631,-6.631,-6.6266,-6.6222,-6.6279,-6.6035,-6.5425,-6.5591,-6.5624,-6.5425,-6.5425,-6.5425,-6.5425,-6.5425,-6.5425,-6.5425,-6.5425,-6.5425,-5.7351,-5.7657,-5.7351,-5.0779,-4.911,-4.8001,-4.3787,-4.3433,-4.3968,-4.393,-4.5878,-4.733,-4.6538,-4.6347,0.0,0.0,0.0,0.0,0.0,0.0,-4.244,-4.7406,-5.0118,-5.1535,-5.1302,-4.957,-5.0349,-5.4819,-5.3293,-5.4252,-5.9001,-6.0604,-6.1357,-6.123,-6.1865,-6.2141,-6.1978,-6.1978,-6.1978,-6.2014,-6.2802,-6.32,-6.32,-6.4033,-6.4396,-6.4396,-6.4396,-6.483,-6.5555,-6.5591,-6.5591,-6.5518,-6.4722,-6.3925,-6.3309,-6.4106,-6.4396,-6.4613,-6.6243,-6.6325,-6.5597,-6.4873,-6.4147,-6.3457,-6.2659,-6.242,-6.242,-6.2381,-6.2381,-6.2719,-6.4208,-6.4613,-6.4986,-6.6474,-6.6812,-6.6812,-6.6812,-6.6812,-6.6812,-6.6812,-6.6812,-6.6812,-6.6812,-6.6812,-6.6812,-6.6812,-6.6812,-6.6812,-6.6812,-6.677,-6.6686,-6.6507,-6.6507,-6.6594,-6.6857,-6.6845,-6.6756,-6.6485,-6.7148,-6.6916,-6.5492,-6.6121,-6.6154,-6.5425,-6.5425,-6.5425,-6.5425,-6.5425,-6.5425,-6.5425,-6.5425,-6.5425,-5.9415,-5.9529,-5.8727,-5.3683,-5.1582,-4.9633,-4.543,-4.5507,-4.6184,-4.5086,-4.7302,-4.9022,-4.7597,-4.6882,0.0,0.0,0.0,0.0,0.0,0.0,-4.0501,0.0,0.0,0.0,-4.7834,-4.7555,-4.8781,-5.2289,-5.117,-5.2454,-5.735,-5.8503,-5.942,-6.0391,-6.1064,-6.1597,-6.1978,-6.1978,-6.2295,-6.2802,-6.3599,-6.4251,-6.483,-6.5627,-6.5989,-6.5989,-6.5989,-6.6134,-6.6388,-6.6388,-6.6098,-6.5518,-6.4722,-6.3889,-6.3273,-6.4106,-6.4396,-6.4613,-6.6243,-6.633,-6.5665,-6.5403,-6.4839,-6.4077,-6.3383,-6.3121,-6.3042,-6.2537,-6.2753,-6.3362,-6.4343,-6.4952,-6.5561,-6.6576,-6.6812,-6.6812,-6.6812,-6.6812,-6.6812,-6.6812,-6.6812,-6.6812,-6.6812,-6.6812,-6.6812,-6.6812,-6.6812,-6.6812,-6.6812,-6.7252,-6.748,-6.7429,-6.7901,-6.8263,-6.8324,-6.8358,-6.8236,-6.7982,-6.8171,-6.806,-6.738,-6.7478,-6.7433,-6.738,-6.7245,-6.6889,-6.6379,-6.6557,-6.629,-6.5647,-6.579,-6.5702,-6.1989,-6.1936,-6.1096,-5.6587,-5.4639,-5.2728,-4.8487,-4.8831,-4.9748,-4.864,-4.9901,-5.1047,-5.0588,-4.8831,-4.715,0.0,0.0,0.0,0.0,-3.9164,-3.9508,0.0,0.0,0.0,0.0,-4.5378,-4.6424,-4.9954,-4.8973,-5.0342,-5.5177,-5.6639,-5.7959,-5.9477,-6.0441,-6.1253,-6.1978,-6.1978,-6.2404,-6.32,-6.3997,-6.483,-6.5627,-6.6424,-6.6786,-6.6786,-6.6786,-6.6786,-6.6786,-6.6786,-6.617,-6.512,-6.4577,-6.3744,-6.2911,-6.3997,-6.4758,-6.541,-6.646,-6.633,-6.5665,-6.5403,-6.4806,-6.4077,-6.3346,-6.3083,-6.3007,-6.2537,-6.2922,-6.3666,-6.441,-6.5155,-6.5865,-6.6643,-6.6812,-6.6812,-6.6812,-6.6812,-6.6812,-6.6812,-6.6812,-6.6812,-6.6812,-6.7015,-6.7117,-6.6846,-6.7015,-6.7184,-6.7184,-6.7861,-6.8335,-6.8335,-6.8808,-6.9171,-6.9319,-6.9501,-6.9412,-6.9009,-6.9245,-6.9054,-6.8417,-6.8471,-6.8471,-6.8417,-6.8249,-6.788,-6.7413,-6.7591,-6.7324,-6.6712,-6.6588,-6.6322]},{"header":{"parameterUnit":"m.s-1","parameterCategory":1,"la1":30.6,"la2":29.2853,"lo1":-89.7004,"lo2":-87.6739,"dy":0.0162,"dx":0.0183,"nx":112,"ny":82,"refTime":"2026-02-22T12:00:00:Z","depth":0,"parameterNumber":3,"parameterNumberName":"V-component_of_WINDS"},"data":[0.0,0.0,0.0,0.0,0.0,0.0,0.0,0.0,0.0,0.0,0.0,0.0,0.0,0.0,0.0,0.0,0.0,0.0,0.0,0.0,0.0,0.0,0.0,0.0,0.0,0.0,0.0,0.0,0.0,0.0,0.0,0.0,0.0,0.0,0.0,0.0,0.0,0.0,0.0,0.0,0.0,0.0,0.0,0.0,0.0,0.0,0.0,0.0,0.0,0.0,0.0,0.0,0.0,0.0,0.0,0.0,0.0,0.0,0.0,0.0,0.0,0.0,0.0,0.0,0.0,0.0,0.0,0.0,0.0,0.0,0.0,0.0,0.0,0.0,0.0,0.0,0.0,0.0,0.0,0.0,0.0,0.0,0.0,0.0,0.0,0.0,0.0,0.0,0.0,0.0,-1.2186,-1.4487,-1.5194,-1.5595,-1.5896,-1.6545,-1.646,-1.5381,0.0,0.0,0.0,0.0,0.0,0.0,0.0,0.0,0.0,0.0,0.0,0.0,0.0,0.0,0.0,0.0,0.0,0.0,0.0,0.0,0.0,0.0,0.0,0.0,0.0,0.0,0.0,0.0,0.0,0.0,0.0,0.0,0.0,0.0,0.0,0.0,0.0,0.0,0.0,0.0,0.0,0.0,0.0,0.0,0.0,0.0,0.0,0.0,0.0,0.0,0.0,0.0,0.0,0.0,0.0,0.0,0.0,0.0,0.0,0.0,0.0,0.0,0.0,0.0,0.0,0.0,0.0,0.0,0.0,0.0,0.0,0.0,0.0,0.0,0.0,0.0,0.0,0.0,0.0,0.0,0.0,0.0,0.0,0.0,0.0,0.0,0.0,0.0,0.0,0.0,0.0,0.0,0.0,0.0,0.0,0.0,0.0,0.0,0.0,0.0,0.0,0.0,0.0,0.0,-1.4193,-1.7665,-1.8508,-1.8789,-1.8789,-1.9938,-1.9515,-1.6884,0.0,0.0,0.0,0.0,0.0,0.0,0.0,0.0,0.0,0.0,0.0,0.0,0.0,0.0,0.0,0.0,0.0,0.0,0.0,0.0,0.0,0.0,0.0,0.0,0.0,0.0,0.0,0.0,0.0,0.0,0.0,0.0,0.0,0.0,0.0,0.0,0.0,0.0,0.0,0.0,0.0,0.0,0.0,0.0,0.0,0.0,0.0,0.0,0.0,0.0,0.0,0.0,0.0,0.0,0.0,0.0,0.0,0.0,0.0,0.0,0.0,0.0,0.0,0.0,0.0,0.0,0.0,0.0,0.0,0.0,0.0,0.0,0.0,0.0,0.0,0.0,0.0,0.0,0.0,0.0,0.0,0.0,0.0,0.0,0.0,0.0,0.0,0.0,0.0,0.0,0.0,0.0,0.0,0.0,0.0,0.0,0.0,0.0,0.0,0.0,0.0,0.0,0.0,-1.4427,-1.6055,-1.8509,-1.9373,-1.9804,-1.9974,-2.045,-2.0006,-1.8371,-1.7365,0.0,0.0,0.0,0.0,0.0,0.0,0.0,0.0,0.0,0.0,0.0,0.0,0.0,0.0,0.0,0.0,0.0,0.0,0.0,0.0,0.0,0.0,0.0,0.0,0.0,0.0,0.0,0.0,0.0,0.0,0.0,0.0,0.0,0.0,0.0,0.0,0.0,0.0,0.0,0.0,0.0,0.0,0.0,0.0,0.0,0.0,0.0,0.0,0.0,0.0,0.0,0.0,0.0,0.0,0.0,0.0,0.0,0.0,0.0,0.0,0.0,0.0,0.0,0.0,0.0,0.0,0.0,0.0,0.0,0.0,0.0,0.0,0.0,0.0,0.0,0.0,0.0,0.0,0.0,0.0,0.0,0.0,0.0,0.0,0.0,0.0,0.0,0.0,0.0,0.0,0.0,0.0,0.0,0.0,0.0,0.0,0.0,0.0,0.0,0.0,0.0,0.0,-1.6881,-1.8396,-1.9724,-2.0416,-2.095,-2.1256,-2.08,-2.0219,-1.9687,-1.8143,0.0,0.0,0.0,0.0,0.0,0.0,0.0,0.0,0.0,0.0,0.0,0.0,0.0,0.0,0.0,0.0,0.0,0.0,0.0,0.0,0.0,0.0,0.0,0.0,0.0,0.0,0.0,0.0,0.0,0.0,0.0,0.0,0.0,0.0,0.0,0.0,0.0,0.0,0.0,0.0,0.0,0.0,0.0,0.0,0.0,0.0,0.0,0.0,0.0,0.0,0.0,0.0,0.0,0.0,0.0,0.0,0.0,0.0,0.0,0.0,0.0,0.0,0.0,0.0,0.0,0.0,0.0,0.0,0.0,0.0,0.0,0.0,0.0,0.0,0.0,0.0,0.0,0.0,0.0,0.0,0.0,0.0,0.0,0.0,0.0,0.0,0.0,0.0,0.0,0.0,0.0,0.0,0.0,0.0,0.0,0.0,0.0,0.0,0.0,0.0,0.0,0.0,-1.8949,-2.1687,-2.2832,-2.3324,-2.3532,-2.366,-2.2558,-2.1485,-2.0628,-1.8542,0.0,0.0,0.0,0.0,0.0,0.0,0.0,0.0,0.0,0.0,0.0,0.0,0.0,0.0,0.0,0.0,0.0,0.0,0.0,0.0,0.0,0.0,0.0,0.0,0.0,0.0,0.0,0.0,0.0,0.0,0.0,0.0,0.0,0.0,0.0,0.0,0.0,0.0,0.0,0.0,0.0,0.0,0.0,0.0,0.0,0.0,0.0,0.0,0.0,0.0,0.0,0.0,0.0,0.0,0.0,0.0,0.0,0.0,0.0,0.0,0.0,0.0,0.0,0.0,0.0,0.0,0.0,0.0,0.0,0.0,0.0,0.0,0.0,0.0,0.0,0.0,0.0,0.0,0.0,0.0,0.0,0.0,0.0,0.0,0.0,0.0,0.0,0.0,0.0,0.0,0.0,0.0,0.0,0.0,0.0,0.0,0.0,0.0,0.0,0.0,0.0,0.0,-1.8974,-2.0864,-2.3084,-2.3841,-2.4122,-2.3942,-2.3332,-2.2241,-2.0496,0.0,0.0,0.0,0.0,0.0,0.0,0.0,0.0,0.0,0.0,0.0,0.0,0.0,0.0,0.0,0.0,0.0,0.0,0.0,0.0,0.0,0.0,0.0,0.0,0.0,0.0,0.0,0.0,0.0,0.0,0.0,0.0,0.0,0.0,0.0,0.0,0.0,0.0,0.0,0.0,0.0,0.0,0.0,0.0,0.0,0.0,0.0,0.0,0.0,0.0,0.0,0.0,0.0,0.0,0.0,0.0,0.0,0.0,0.0,0.0,0.0,0.0,0.0,0.0,0.0,0.0,0.0,0.0,0.0,0.0,0.0,0.0,0.0,0.0,0.0,0.0,0.0,0.0,0.0,0.0,0.0,0.0,0.0,0.0,0.0,0.0,0.0,0.0,0.0,0.0,0.0,0.0,0.0,0.0,0.0,0.0,0.0,0.0,0.0,0.0,0.0,0.0,-1.765,-1.9112,-2.0851,-2.3209,-2.3927,-2.4261,-2.4257,-2.3659,-2.2442,-2.046,0.0,0.0,0.0,0.0,0.0,0.0,0.0,0.0,0.0,0.0,0.0,0.0,0.0,0.0,0.0,0.0,0.0,0.0,0.0,0.0,0.0,0.0,0.0,0.0,0.0,0.0,0.0,0.0,0.0,0.0,0.0,0.0,0.0,0.0,0.0,0.0,0.0,0.0,0.0,0.0,0.0,0.0,0.0,0.0,0.0,0.0,0.0,0.0,0.0,0.0,0.0,0.0,0.0,0.0,0.0,0.0,0.0,0.0,0.0,0.0,0.0,0.0,0.0,0.0,0.0,0.0,0.0,0.0,0.0,0.0,0.0,0.0,0.0,0.0,0.0,0.0,0.0,0.0,0.0,0.0,0.0,0.0,0.0,0.0,0.0,0.0,0.0,0.0,0.0,0.0,0.0,0.0,0.0,0.0,0.0,0.0,0.0,0.0,0.0,0.0,0.0,0.0,-1.7084,-1.9773,-2.2189,-2.3776,-2.3927,-2.4205,-2.4899,-2.3522,-2.2069,0.0,0.0,0.0,0.0,0.0,0.0,0.0,0.0,0.0,0.0,0.0,0.0,0.0,0.0,0.0,0.0,0.0,0.0,0.0,0.0,0.0,0.0,0.0,0.0,0.0,0.0,0.0,0.0,0.0,0.0,0.0,0.0,0.0,0.0,0.0,0.0,0.0,0.0,0.0,0.0,0.0,0.0,0.0,0.0,0.0,0.0,0.0,0.0,0.0,0.0,0.0,0.0,0.0,0.0,0.0,0.0,0.0,0.0,0.0,0.0,0.0,0.0,0.0,0.0,0.0,0.0,0.0,0.0,0.0,0.0,0.0,0.0,0.0,0.0,0.0,0.0,0.0,0.0,0.0,0.0,0.0,0.0,0.0,0.0,0.0,0.0,0.0,0.0,0.0,0.0,0.0,0.0,0.0,0.0,0.0,0.0,0.0,0.0,0.0,0.0,0.0,0.0,0.0,-1.8112,-2.0692,-2.2816,-2.4036,-2.4679,-2.4916,-2.4682,-2.4072,-2.2602,-2.0208,0.0,0.0,0.0,0.0,0.0,0.0,0.0,0.0,0.0,0.0,0.0,0.0,0.0,0.0,0.0,0.0,0.0,0.0,0.0,0.0,0.0,0.0,0.0,0.0,0.0,0.0,0.0,0.0,0.0,0.0,0.0,0.0,0.0,0.0,0.0,0.0,0.0,0.0,0.0,0.0,0.0,0.0,0.0,0.0,0.0,0.0,0.0,0.0,0.0,0.0,0.0,0.0,0.0,0.0,0.0,0.0,0.0,0.0,0.0,0.0,0.0,0.0,0.0,0.0,0.0,0.0,0.0,0.0,0.0,0.0,0.0,0.0,0.0,0.0,0.0,0.0,0.0,0.0,0.0,0.0,0.0,0.0,0.0,0.0,0.0,0.0,0.0,0.0,0.0,0.0,0.0,0.0,0.0,0.0,0.0,0.0,0.0,0.0,0.0,0.0,0.0,0.0,-1.8863,-2.1382,-2.3437,-2.4679,-2.5342,-2.5511,-2.5132,-2.4713,-2.3237,-2.0325,0.0,0.0,0.0,0.0,0.0,0.0,0.0,0.0,0.0,0.0,0.0,0.0,0.0,0.0,0.0,0.0,0.0,0.0,0.0,0.0,0.0,0.0,0.0,0.0,0.0,0.0,0.0,0.0,0.0,0.0,0.0,0.0,0.0,0.0,0.0,0.0,0.0,0.0,0.0,0.0,0.0,0.0,0.0,0.0,0.0,0.0,0.0,0.0,0.0,0.0,0.0,0.0,0.0,0.0,0.0,0.0,0.0,0.0,0.0,0.0,0.0,0.0,0.0,0.0,0.0,0.0,0.0,0.0,0.0,0.0,0.0,0.0,0.0,0.0,0.0,0.0,0.0,0.0,0.0,0.0,0.0,0.0,0.0,0.0,0.0,0.0,0.0,0.0,0.0,0.0,0.0,0.0,0.0,0.0,0.0,0.0,0.0,0.0,0.0,0.0,0.0,0.0,-1.9247,-2.1878,-2.4123,-2.5369,-2.5827,-2.6012,-2.5976,-2.5403,-2.3808,-2.0984,0.0,0.0,0.0,0.0,0.0,0.0,0.0,0.0,0.0,0.0,0.0,0.0,0.0,0.0,0.0,0.0,0.0,0.0,0.0,0.0,0.0,0.0,0.0,0.0,0.0,0.0,0.0,0.0,0.0,0.0,0.0,0.0,0.0,0.0,0.0,0.0,0.0,0.0,0.0,0.0,0.0,0.0,0.0,0.0,0.0,0.0,0.0,0.0,0.0,0.0,0.0,0.0,0.0,0.0,0.0,0.0,0.0,0.0,0.0,0.0,-1.2101,-1.163,0.0,0.0,0.0,0.0,0.0,0.0,0.0,0.0,0.0,0.0,0.0,0.0,0.0,0.0,0.0,0.0,0.0,0.0,0.0,0.0,0.0,0.0,0.0,0.0,0.0,0.0,0.0,0.0,0.0,0.0,0.0,0.0,0.0,0.0,0.0,0.0,0.0,0.0,0.0,0.0,-1.9306,-2.2341,-2.4764,-2.5712,-2.6171,-2.6298,-2.6047,-2.5183,-2.3764,-2.1628,-1.9418,0.0,0.0,0.0,0.0,0.0,0.0,0.0,0.0,0.0,0.0,0.0,0.0,0.0,0.0,0.0,0.0,0.0,0.0,0.0,0.0,0.0,0.0,0.0,0.0,0.0,0.0,0.0,0.0,0.0,0.0,0.0,0.0,0.0,0.0,0.0,0.0,0.0,0.0,0.0,0.0,0.0,0.0,0.0,0.0,0.0,0.0,0.0,0.0,0.0,0.0,0.0,0.0,0.0,0.0,0.0,0.0,0.0,0.0,0.0,-1.3084,-1.2507,0.0,0.0,0.0,0.0,0.0,0.0,0.0,0.0,0.0,0.0,0.0,0.0,0.0,0.0,0.0,0.0,0.0,0.0,0.0,0.0,0.0,0.0,0.0,0.0,0.0,0.0,0.0,0.0,0.0,0.0,0.0,0.0,0.0,0.0,0.0,0.0,0.0,0.0,0.0,0.0,-1.9637,-2.2582,-2.4853,-2.5664,-2.6037,-2.6135,-2.5813,-2.5037,-2.3808,-2.2037,-1.9945,0.0,0.0,0.0,0.0,0.0,0.0,0.0,0.0,0.0,0.0,0.0,0.0,0.0,0.0,0.0,0.0,0.0,0.0,0.0,0.0,0.0,0.0,0.0,0.0,0.0,0.0,0.0,0.0,0.0,0.0,0.0,0.0,0.0,0.0,0.0,0.0,0.0,0.0,0.0,0.0,0.0,0.0,0.0,0.0,0.0,0.0,0.0,0.0,0.0,0.0,0.0,0.0,0.0,-1.3637,-1.4212,-1.4662,-1.4948,-1.5025,-1.4822,-1.4302,-1.3693,-1.3051,-1.2783,0.0,0.0,0.0,0.0,0.0,0.0,0.0,0.0,0.0,0.0,0.0,0.0,0.0,0.0,0.0,0.0,0.0,0.0,0.0,0.0,0.0,0.0,-1.6413,-1.6739,-1.8486,-1.9383,-1.6698,0.0,0.0,0.0,0.0,0.0,0.0,0.0,0.0,0.0,0.0,0.0,-2.0128,-2.2842,-2.4818,-2.5461,-2.5769,-2.5827,-2.5549,-2.4891,-2.3896,-2.252,-2.0603,-1.8906,0.0,0.0,0.0,0.0,0.0,0.0,0.0,0.0,0.0,0.0,0.0,0.0,0.0,0.0,0.0,0.0,0.0,0.0,0.0,0.0,0.0,0.0,0.0,0.0,0.0,0.0,0.0,0.0,0.0,0.0,0.0,0.0,-1.0236,-0.9957,0.0,0.0,0.0,0.0,0.0,0.0,0.0,0.0,0.0,0.0,0.0,0.0,0.0,-1.1735,-1.1911,-1.3183,-1.3719,-1.349,-1.5241,-1.5872,-1.563,-1.647,-1.6698,-1.6459,-1.6763,0.0,-1.401,-1.4107,0.0,0.0,0.0,0.0,0.0,0.0,0.0,0.0,0.0,0.0,0.0,0.0,0.0,0.0,0.0,0.0,0.0,0.0,0.0,0.0,0.0,0.0,-2.1031,-2.086,-2.1129,-2.1162,-2.0465,-1.8664,-1.679,-1.5631,-1.5084,-1.4612,0.0,0.0,0.0,0.0,0.0,0.0,-2.0585,-2.3058,-2.4818,-2.5461,-2.5564,-2.5579,-2.5535,-2.4671,-2.394,-2.3442,-2.1598,-2.0311,-1.9813,-1.7706,0.0,0.0,0.0,0.0,0.0,0.0,0.0,0.0,0.0,0.0,0.0,0.0,0.0,0.0,0.0,0.0,0.0,0.0,0.0,0.0,0.0,0.0,0.0,0.0,0.0,0.0,0.0,0.0,0.0,-1.0181,-1.0609,-1.0222,-1.0609,-1.0595,0.0,0.0,0.0,0.0,0.0,0.0,0.0,0.0,0.0,-1.2257,-1.2562,-1.2868,-1.3186,-1.4168,-1.4515,-1.4379,-1.5764,-1.6331,-1.6183,-1.6881,-1.7226,-1.7169,-1.7421,-1.6885,-1.5788,-1.526,-1.4408,-1.3437,0.0,0.0,0.0,0.0,-1.4198,-1.3678,-1.5203,-1.4947,-1.4134,-1.4954,0.0,0.0,0.0,0.0,0.0,0.0,0.0,-1.6446,-1.7981,-1.9487,-2.0864,-2.1819,-2.2164,-2.2271,-2.1911,-2.0802,-1.9319,-1.7383,-1.6968,-1.6375,-1.4718,-1.4723,0.0,0.0,0.0,-1.957,-2.0872,-2.2956,-2.4481,-2.4935,-2.4993,-2.4993,-2.4993,-2.4262,-2.3676,-2.334,-2.2023,-2.1042,-2.0475,-1.8862,-1.7399,0.0,0.0,0.0,0.0,0.0,0.0,0.0,0.0,0.0,0.0,0.0,0.0,0.0,0.0,0.0,0.0,0.0,0.0,0.0,0.0,0.0,0.0,0.0,0.0,0.0,0.0,0.0,0.0,-1.0469,-1.1009,-1.0561,-1.1199,-1.128,0.0,0.0,0.0,0.0,0.0,0.0,-1.1775,-1.2142,-1.2623,-1.3227,-1.3532,-1.3831,-1.4129,-1.4666,-1.4921,-1.4878,-1.5897,-1.6364,-1.6356,-1.712,-1.7714,-1.8169,-1.8347,-1.848,-1.841,-1.6551,-1.5244,-1.44,-1.4989,-1.5094,-1.5025,-1.6328,-1.6074,-1.5285,-1.7248,-1.6998,-1.596,-1.6857,-1.6676,-1.6022,-1.5349,0.0,0.0,0.0,0.0,-1.7728,-1.9588,-2.0334,-2.0938,-2.2389,-2.2873,-2.2926,-2.2699,-2.2298,-2.1336,-1.9145,-1.882,-1.8209,-1.6015,-1.6041,0.0,-1.6753,-1.8411,-2.0108,-2.138,-2.2974,-2.4086,-2.4408,-2.4437,-2.4437,-2.4437,-2.3925,-2.3457,-2.3135,-2.2301,-2.1569,-2.0998,-1.9798,-1.8584,-1.7416,0.0,0.0,0.0,0.0,0.0,0.0,0.0,0.0,0.0,0.0,0.0,0.0,0.0,0.0,0.0,0.0,0.0,0.0,0.0,0.0,0.0,0.0,0.0,0.0,0.0,0.0,0.0,0.0,0.0,-1.1172,-1.1904,0.0,0.0,0.0,0.0,-1.1301,-1.1884,-1.2413,-1.2861,-1.3424,-1.3824,-1.4007,-1.4299,-1.4401,-1.4292,-1.457,-1.4645,-1.4502,-1.564,-1.6167,-1.6257,-1.7171,-1.8519,-2.0219,-2.0514,-2.1352,-2.2322,-1.8399,-1.6251,-1.5415,-1.5273,-1.4873,-1.4465,-1.4382,-1.4431,-1.4424,-1.4621,-1.4555,-1.4605,-1.4992,-1.4463,-1.3756,-1.4576,-1.4502,0.0,0.0,-1.9088,-1.9952,-2.2163,-2.2911,-2.323,-2.3621,-2.35,-2.33,-2.3287,-2.2592,-2.1697,-2.0735,-2.0321,-1.9652,-1.8104,0.0,-1.8108,-1.8741,-1.9442,-2.0487,-2.2328,-2.3179,-2.3749,-2.4071,-2.4101,-2.4101,-2.4101,-2.3793,-2.3457,-2.3135,-2.2506,-2.2008,-2.1657,-2.0691,-1.9696,-1.8716,-1.7167,0.0,0.0,0.0,0.0,0.0,0.0,0.0,0.0,0.0,0.0,0.0,0.0,0.0,0.0,0.0,0.0,0.0,0.0,0.0,0.0,0.0,0.0,0.0,0.0,0.0,0.0,0.0,0.0,-1.1904,-1.2759,0.0,-1.2115,-1.2237,-1.2386,-1.24,-1.3044,-1.3553,-1.381,-1.4204,-1.4441,-1.4502,-1.4699,-1.4733,-1.4584,-1.4685,-1.4665,-1.4509,-1.5561,-1.598,-1.5883,-1.6973,-1.7828,-1.8463,-1.8643,-1.9024,-1.9212,-1.7639,-1.797,-1.9563,-2.0384,-1.9719,-1.8545,-2.0664,-2.019,-1.8852,-2.1076,-2.1153,-2.0309,-2.0773,-2.0523,-2.0017,-1.9771,-1.9589,-1.9702,-2.107,-2.1607,-2.2015,-2.3164,-2.3527,-2.3594,-2.35,-2.3407,-2.3273,-2.3073,-2.2779,-2.2338,-2.1657,-2.102,-2.016,-1.9109,-1.9342,-1.9639,-1.932,-2.0487,-2.1595,-2.2169,-2.3068,-2.3647,-2.3764,-2.3764,-2.3764,-2.3764,-2.3281,-2.2915,-2.2798,-2.2008,-2.1511,-2.1393,-2.0647,-1.9886,-1.9111,-1.7911,-1.6345,0.0,0.0,0.0,0.0,0.0,0.0,0.0,0.0,0.0,0.0,0.0,0.0,0.0,0.0,0.0,0.0,0.0,0.0,0.0,0.0,0.0,0.0,0.0,0.0,0.0,-1.1728,-1.2515,-1.2515,-1.339,-1.3702,-1.2956,-1.3241,-1.3458,-1.3417,-1.396,-1.4367,-1.4516,-1.4808,-1.4943,-1.4889,-1.4943,-1.4896,-1.474,-1.4638,-1.4543,-1.4441,-1.5334,-1.5816,-1.5712,-1.6799,-1.7646,-1.8266,-1.8446,-1.8742,-1.9111,-1.964,-2.0942,-2.2538,-2.2218,-2.1173,-2.0185,-2.3038,-2.2753,-2.1304,-2.3538,-2.3557,-2.2647,-2.2964,-2.2879,-2.2476,-2.2345,-2.2246,-2.2294,-2.3081,-2.3313,-2.3434,-2.3928,-2.3995,-2.3861,-2.3674,-2.3474,-2.3273,-2.306,-2.2859,-2.2592,-2.2205,-2.1577,-2.0842,-1.996,-2.0438,-2.0635,-1.9949,-2.1197,-2.2161,-2.2119,-2.2904,-2.3427,-2.3427,-2.3427,-2.3384,-2.3281,-2.2784,-2.2374,-2.2154,-2.135,-2.0837,-2.072,-1.9989,-1.9389,-1.895,-1.7677,-1.6286,-1.49,0.0,0.0,0.0,0.0,0.0,0.0,0.0,0.0,0.0,0.0,0.0,0.0,0.0,0.0,0.0,0.0,0.0,0.0,0.0,0.0,0.0,0.0,0.0,-1.1402,-1.2325,-1.299,-1.3017,-1.3797,-1.4163,-1.3729,-1.3946,-1.4177,-1.4319,-1.459,-1.4821,-1.497,-1.5255,-1.5337,-1.5174,-1.5038,-1.4896,-1.4726,-1.4441,-1.4299,-1.4299,-1.5264,-1.5704,-1.5704,-1.6673,-1.806,-1.9883,-2.016,-2.1062,-2.2564,-2.4477,-2.4807,-2.3796,-2.0426,-1.898,-1.8952,-2.0656,-2.1303,-2.1383,-2.1372,-2.129,-2.1173,-2.1162,-2.0681,-2.0414,-2.1849,-2.1934,-2.1943,-2.3694,-2.4222,-2.4275,-2.4556,-2.4409,-2.4195,-2.4182,-2.3741,-2.3327,-2.33,-2.2832,-2.2418,-2.2392,-2.2164,-2.1697,-2.0855,-2.1005,-2.1081,-2.078,-2.1596,0.0,-2.2223,-2.273,-2.3106,-2.3091,-2.3091,-2.2959,-2.2652,-2.233,-2.1876,-2.1247,-2.0574,-2.0077,-1.9808,-1.8833,-1.8321,-1.8306,-1.6433,-1.525,-1.4915,0.0,0.0,0.0,0.0,0.0,0.0,0.0,0.0,0.0,0.0,0.0,0.0,0.0,0.0,0.0,0.0,0.0,0.0,0.0,0.0,0.0,-1.1335,-1.2149,-1.2189,-1.2915,-1.3648,-1.4183,-1.4753,-1.5059,-1.493,-1.4997,-1.5011,-1.4943,-1.5011,-1.5079,-1.512,-1.5309,-1.5242,-1.4875,-1.4936,-1.4794,-1.4428,-1.434,-1.4299,-1.4299,-1.4911,-1.5168,-1.5264,-1.6137,-1.7622,-1.9438,-1.9596,-2.0601,-2.2256,-2.2488,-2.2422,-2.2244,-2.2642,-2.2576,-2.243,-2.2923,-2.3884,-2.4907,-2.4784,-2.467,-2.453,-2.4125,-2.3846,-2.3693,-2.3874,-2.384,-2.3883,-2.4342,-2.4516,-2.4489,-2.4356,-2.4262,-2.4102,-2.3674,-2.3447,-2.3207,-2.2766,-2.2539,-2.2298,-2.1871,-2.1789,-2.1655,-2.1413,-2.1628,-2.1763,-2.1368,-2.2247,-2.2726,-2.2539,-2.2875,-2.3018,-2.2784,-2.2754,-2.2725,-2.2637,-2.192,-2.1408,-2.1218,-2.0164,-1.9506,-1.947,-1.8921,-1.854,-1.8306,-1.6857,-1.5848,0.0,0.0,0.0,0.0,0.0,0.0,0.0,0.0,0.0,0.0,0.0,0.0,0.0,0.0,0.0,0.0,0.0,0.0,0.0,0.0,0.0,0.0,-1.2216,-1.3057,-1.3308,-1.3722,-1.4231,-1.4848,-1.5215,-1.5438,-1.5499,-1.5445,-1.5371,-1.5282,-1.5221,-1.5181,-1.5181,-1.533,-1.5262,-1.4936,-1.4957,-1.4814,-1.4489,-1.436,-1.4299,-1.4299,-1.4822,-1.5087,-1.5344,-1.5981,-1.699,-1.8192,-1.8258,-1.8797,-1.9784,-2.0206,-2.0785,-2.1508,0.0,0.0,0.0,0.0,-2.5502,-2.6346,-2.6052,-2.6037,-2.5956,-2.5411,-2.5184,-2.505,-2.4877,-2.473,-2.4636,-2.4636,-2.4556,-2.4422,-2.4249,-2.4022,-2.3754,-2.3407,-2.3327,-2.3153,-2.2552,-2.2418,-2.2245,-2.1735,-2.1521,0.0,-2.1363,-2.166,-2.1825,-2.1513,-2.227,-2.275,-2.2496,-2.2831,-2.3032,-2.2842,-2.2828,-2.2769,-2.2637,-2.1876,0.0,0.0,0.0,-1.9038,-1.8482,-1.8277,0.0,0.0,0.0,0.0,0.0,-1.5935,0.0,0.0,-1.5204,-1.5013,0.0,0.0,0.0,0.0,0.0,0.0,0.0,0.0,0.0,0.0,0.0,0.0,0.0,0.0,0.0,0.0,-1.3085,-1.3871,-1.4434,-1.4543,-1.4726,-1.516,-1.5343,-1.5493,-1.5628,-1.5513,-1.5432,-1.5411,-1.5269,-1.5181,-1.5181,-1.5309,0.0,0.0,0.0,-1.4862,-1.4692,-1.4428,-1.4299,-1.4299,-1.4713,-1.5147,-1.5587,-1.5938,-1.638,-1.6976,-1.6881,-1.6876,-1.7043,-1.8753,-2.0354,-2.1947,-2.3484,-2.3976,-2.3976,-2.574,-2.6373,-2.6306,-2.6012,0.0,0.0,-2.5504,-2.5237,-2.5024,-2.5024,-2.485,-2.4636,-2.4636,-2.4422,-2.4195,-2.4168,-2.3741,-2.3313,-2.3287,-2.3273,-2.3113,-2.2498,-2.2365,-2.2191,-2.1681,-2.1296,-2.1109,-2.1109,-2.1362,-2.1519,-2.1259,-2.1998,-2.2443,-2.2295,-2.2682,-2.3029,-2.3062,-2.3047,0.0,-2.2652,-2.2052,-2.1437,-2.0823,-1.9872,-1.8803,-1.7647,-1.7604,-1.7604,-1.7604,-1.7296,-1.7592,-1.8408,-1.8116,-1.7984,-1.7925,-1.5862,-1.5524,0.0,0.0,0.0,0.0,0.0,0.0,0.0,0.0,0.0,0.0,0.0,0.0,0.0,0.0,0.0,-1.2386,-1.3315,-1.4109,-1.4462,-1.4726,-1.5004,-1.533,-1.5499,-1.5608,-1.5635,-1.5615,-1.5547,-1.5418,-1.5269,-1.5181,-1.5181,-1.5208,-1.5099,-1.4835,-1.4801,-1.4658,-1.4387,-1.4326,-1.4299,-1.4299,-1.4615,0.0,-1.4894,-1.559,-1.6779,-1.8282,-1.8429,-1.9317,-2.0734,-2.2265,-2.3852,-2.5422,-2.574,-2.5025,-2.3976,-2.574,-2.6239,-2.5999,-2.5705,-2.5451,-2.5197,-2.4903,-2.477,-2.4716,-2.4716,-2.4676,0.0,-2.4636,-2.4422,-2.4155,-2.3915,-2.3594,-2.326,-2.3006,-2.2953,-2.2792,-2.2191,-2.2071,-2.1897,-2.1309,-2.1149,-2.1109,-2.1109,-2.1362,-2.1587,-2.1532,-2.1888,-2.2278,-2.2457,-2.264,-2.2692,-2.2678,-2.271,-2.2696,-2.2623,-2.2052,-2.1525,-2.1145,-2.0208,-1.9603,-1.9301,-1.9338,-1.9338,-1.9338,-1.903,-1.8957,-1.9096,-1.9023,-1.8994,-1.8979,-1.8013,-1.7545,0.0,0.0,0.0,0.0,0.0,0.0,0.0,0.0,0.0,0.0,0.0,-1.0941,-1.1321,0.0,-1.2684,-1.32,-1.3851,-1.4401,-1.4699,-1.4936,-1.516,-1.5384,-1.5479,-1.5554,-1.5635,-1.5567,-1.5493,-1.5418,-1.5269,-1.5153,-1.5079,-1.5079,-1.4936,-1.4631,-1.4624,-1.4523,-1.4299,-1.4224,-1.4183,-1.4183,-1.4468,-1.4736,-1.4995,-1.5508,-1.6346,-1.7414,-1.7482,-1.7973,-1.9024,-2.1518,-2.3564,-2.5184,-2.607,-2.5898,-2.5171,-2.5911,-2.6079,-2.5892,-2.5451,-2.5197,-2.5037,-2.473,-2.4636,-2.4636,-2.4636,-2.4636,-2.4636,-2.4636,-2.4329,-2.3955,-2.3808,-2.3434,-2.306,-2.2899,-2.2979,-2.2886,-2.2151,-2.2098,-2.1991,-2.1256,-2.1109,-2.1109,-2.1109,-2.1362,-2.1677,-2.179,-2.1978,-2.231,-2.2779,-2.2711,-2.2672,-2.281,-2.2871,-2.2871,-2.2871,-2.2154,-2.1554,-2.1233,-2.0442,-1.993,-1.9823,-1.9823,-1.9823,-1.9823,-1.9661,-1.9594,-1.9755,-1.9755,-1.9755,-1.9755,-1.9418,-1.9096,0.0,0.0,0.0,0.0,0.0,0.0,0.0,0.0,-1.0419,-1.0839,-1.128,-1.1782,-1.2393,-1.2847,-1.3349,-1.4007,-1.4367,-1.4652,-1.493,-1.5092,-1.5215,-1.5316,-1.5377,-1.5445,-1.554,-1.5466,-1.5398,-1.5371,-1.5255,-1.512,-1.4977,-1.4943,-1.4801,-1.4523,-1.4482,-1.4401,-1.4258,-1.4136,-1.4142,-1.4201,-1.4472,-1.4827,-1.5253,-1.5593,-1.5842,-1.6243,-1.6427,-1.6689,-1.7264,-2.0413,-2.2751,-2.4455,-2.5767,-2.6306,-2.6279,-2.6039,-2.5956,-2.5795,-2.5251,-2.5037,-2.4957,-2.4716,-2.4636,-2.4636,-2.4636,-2.4636,-2.4623,-2.4569,-2.4168,-2.3754,-2.3701,-2.3273,-2.2928,-2.2928,-2.306,-2.302,-2.2245,-2.2205,-2.2111,-2.1336,-2.1149,-2.1109,-2.1172,-2.1488,-2.179,-2.1978,-2.2081,-2.2291,-2.2864,-2.2661,-2.2602,-2.2988,-2.3018,-2.3047,-2.3106,-2.2345,-2.1759,-2.1496,-2.094,-2.0472,-2.015,-2.0189,-2.016,-2.0047,-2.0047,-2.0164,-2.0373,-2.0373,-2.0373,-2.0373,-2.0373,-2.0223,-1.0526,-0.9989,-0.9859,-1.0454,-1.0538,-1.0743,0.0,0.0,-1.2101,-1.2413,-1.284,-1.318,-1.3261,-1.3532,-1.3858,-1.4217,-1.4523,-1.4774,-1.4943,-1.5092,-1.514,-1.5031,-1.5248,-1.5364,-1.5248,-1.5343,-1.5357,-1.5215,-1.5194,-1.512,-1.4977,-1.4841,-1.4685,-1.4516,-1.4387,-1.4251,-1.4095,-1.4082,-1.4174,-1.4472,-1.4732,-1.5081,-1.5585,-1.5822,-1.599,-1.6155,-1.7665,-1.9196,-2.0737,-2.2682,-2.4534,-2.6122,-2.6027,-2.5999,-2.6077,-2.605,-2.5625,-2.517,-2.5104,-2.4903,-2.4676,-2.4649,-2.4636,-2.4636,-2.4636,-2.4636,-2.4583,-2.4329,-2.4022,-2.3714,-2.3447,-2.3126,-2.2928,-2.2928,-2.2886,-2.2819,-2.2445,-2.2191,-2.1924,-2.1641,-2.1296,-2.1172,-2.1488,-2.179,-2.1992,-2.1677,-2.1888,-2.2151,-2.2219,-2.2148,-2.227,-2.2605,-2.2681,-2.2798,-2.3091,-2.274,-2.2506,-2.2462,-2.2154,-2.1818,-2.1496,-2.1481,-2.135,-2.1057,-2.1042,-2.1072,-2.1101,-2.1101,-2.1101,-2.1101,-2.1101,-2.0764,-1.2281,0.0,0.0,0.0,-1.234,-1.2546,-1.3173,-1.3,-1.2924,-1.3784,-1.3983,-1.4224,-1.4657,-1.4698,-1.4687,0.0,-1.4977,-1.4923,-1.5072,-1.5072,-1.5038,-1.4977,-1.4997,-1.5031,-1.5059,-1.512,-1.516,-1.5181,-1.5181,-1.5079,-1.4848,-1.4692,-1.4502,-1.4265,-1.4109,-1.4,-1.3939,-1.3858,-1.4032,-1.4387,-1.4649,-1.5074,-1.549,-1.5833,-1.5966,-1.613,-1.7819,-1.9592,-2.1383,-2.3084,-2.4765,-2.6132,-2.5999,-2.5822,-2.5451,-2.5451,-2.5291,-2.505,-2.4877,-2.4743,-2.4636,-2.4636,-2.4636,-2.4636,-2.4636,-2.4636,-2.4609,-2.4489,-2.4128,-2.3741,-2.3621,-2.322,-2.2928,-2.2928,-2.2928,-2.2779,-2.2485,-2.2191,-2.1897,-2.1681,-2.1309,-2.1235,-2.1551,-2.1866,-2.2104,-2.2167,-2.2324,-2.2472,-2.2653,-2.241,-2.2178,-2.2374,-2.252,-2.2681,-2.2813,-2.2696,-2.2623,-2.2623,-2.2345,-2.2037,-2.1715,-2.1701,-2.154,-2.1218,-2.1203,-2.1203,-2.1203,-2.1203,-2.1203,-2.1203,-2.1203,-2.1057,-1.3018,0.0,0.0,-1.361,-1.3953,-1.4132,-1.4421,-1.4112,-1.3969,-1.486,-1.5012,-1.5075,-1.5572,-1.5572,-1.5499,-1.559,-1.5398,-1.5204,-1.516,-1.5059,-1.4936,-1.4855,-1.4672,-1.4597,-1.4713,-1.4835,-1.495,-1.5052,-1.5059,-1.493,-1.4631,-1.4516,-1.4319,-1.4014,-1.3899,-1.3824,-1.3783,-1.3759,-1.4021,-1.439,-1.4773,-1.5133,-1.5546,-1.5883,-1.6287,-1.6772,-1.8545,-2.0322,-2.2028,-2.3731,-2.5033,-2.5945,-2.5849,-2.5451,-2.5064,-2.4983,-2.4957,-2.493,-2.4716,-2.4636,-2.4636,-2.4636,-2.4636,-2.4636,-2.4636,-2.4636,-2.4549,-2.4543,-2.4155,-2.3754,-2.3674,-2.326,-2.2928,-2.2928,-2.2928,-2.2806,-2.2592,-2.2311,-2.2017,-2.1724,-2.1558,-2.1457,-2.1691,-2.2041,-2.2355,-2.2668,-2.273,-2.2813,-2.2959,-2.252,-2.2184,-2.2184,-2.2374,-2.2535,-2.2608,-2.2623,-2.2652,-2.2754,-2.2564,-2.2257,-2.1847,-2.1832,-2.1642,-2.1218,-2.1203,-2.1203,-2.1203,-2.1203,-2.1203,-2.1203,-2.1203,-2.1203,0.0,0.0,-1.3446,-1.4175,-1.4735,-1.5103,-1.5425,-1.554,-1.5667,-1.5675,-1.5682,-1.5697,-1.5704,-1.5831,-1.5823,-1.5454,-1.5604,-1.5568,-1.5254,-1.5059,-1.4862,-1.4563,-1.4272,-1.4095,-1.4095,-1.4489,-1.4746,-1.4753,-1.4753,-1.4624,-1.4333,-1.4306,-1.4163,-1.3858,-1.3844,-1.3777,-1.3634,-1.4042,-1.4383,-1.4721,-1.5133,-1.5628,-1.5966,-1.5966,-1.6936,-1.8626,-2.0322,-2.2108,-2.3872,-2.5283,-2.5959,-2.597,-2.5331,-2.509,-2.505,-2.4756,-2.4649,-2.4649,-2.4562,-2.4636,-2.4636,-2.4636,-2.4636,-2.4636,-2.4636,-2.4636,-2.4583,-2.4302,-2.3995,-2.3701,-2.342,-2.31,-2.2928,-2.2928,-2.2928,-2.2928,-2.2914,-2.2619,-2.2325,-2.2031,-2.2062,-2.2084,-2.2097,-2.2355,-2.2668,-2.3043,-2.3106,-2.2988,-2.2681,-2.2374,-2.2184,-2.2184,-2.2198,-2.2315,-2.2593,-2.2623,-2.2754,-2.3076,-2.3091,-2.2813,-2.2198,-2.2169,-2.1862,-2.1218,-2.1203,-2.1203,-2.1203,-2.1203,-2.1203,-2.1203,-2.1203,-2.1203,0.0,0.0,-1.4797,-1.5673,-1.6026,-1.629,-1.6782,-1.6344,-1.6009,-1.652,-1.6136,-1.5732,-1.6065,-1.5691,-1.5461,-1.5557,-1.5378,-1.5204,-1.516,-1.5059,-1.4855,-1.455,-1.434,0.0,-1.3939,-1.4055,-1.4265,-1.4563,-1.4502,-1.4407,-1.4306,-1.4109,-1.3905,-1.3709,-1.36,-1.3693,-1.3895,-1.4061,-1.4531,-1.5133,-1.5628,-1.5883,-1.5966,-1.5966,-1.6936,-1.8708,-2.0403,-2.2099,-2.3684,-2.5348,-2.5732,-2.5358,-2.5157,-2.4957,-2.477,-2.4676,-2.4636,-2.4636,-2.4636,-2.4636,-2.4636,-2.4636,-2.4636,-2.4636,-2.4636,-2.4636,-2.4609,-2.4516,-2.4142,-2.3754,-2.3647,-2.3247,-2.2928,-2.2928,-2.2928,-2.2928,-2.2928,-2.2632,-2.2405,-2.2374,-2.2206,-2.2162,-2.2412,-2.2543,-2.2731,-2.3043,-2.3106,-2.2988,-2.2667,-2.2535,-2.2315,-2.1906,-2.2052,-2.2228,-2.233,-2.2506,-2.2754,-2.3091,-2.3106,-2.2828,-2.2213,-2.2184,-2.1876,-2.1218,-2.1203,-2.1203,-2.1203,-2.1203,-2.1203,-2.1203,-2.1203,-2.1203,-1.4458,-1.5281,-1.6033,-1.6741,-1.7,-1.7222,-1.7541,-1.7053,-1.658,-1.6895,-1.6156,-1.5518,-1.5785,-1.5275,-1.4961,-1.5176,-1.5091,-1.5077,-1.522,-1.4964,-1.4713,-1.4468,-1.4211,-1.396,0.0,-1.3682,-1.3871,-1.4319,-1.4217,-1.4136,-1.4136,-1.3899,-1.3695,-1.3553,-1.3617,-1.3818,-1.4066,-1.4397,-1.4893,-1.5628,-1.5883,-1.5966,-1.6048,-1.6607,-1.7901,-1.9592,-2.1286,-2.2917,-2.4412,-2.5332,-2.5424,-2.5064,-2.4957,-2.481,-2.4636,-2.4636,-2.4636,-2.4636,-2.4636,-2.4636,-2.4636,-2.4636,-2.4636,-2.4636,-2.4636,-2.4636,-2.4636,-2.4636,-2.4222,-2.3768,-2.3768,-2.3313,-2.2928,-2.2928,-2.2928,-2.2928,-2.2928,-2.2848,-2.2754,-2.2656,-2.2618,-2.2636,-2.2771,-2.2803,-2.2856,-2.3043,-2.3106,-2.3032,-2.2828,-2.2696,-2.2462,-2.2067,-2.2023,-2.2052,-2.2169,-2.2359,-2.2593,-2.2915,-2.3047,-2.2828,-2.2213,-2.2184,-2.1876,-2.1218,-2.1203,-2.1203,-2.1203,-2.1203,-2.1203,-2.1203,-2.1203,-2.1203,-1.5217,-1.6097,-1.6943,-1.7526,-1.7786,-1.7867,-1.7681,-1.7494,-1.721,-1.6665,-1.5849,-1.508,0.0,0.0,-1.4357,-1.4575,-1.4871,-1.5148,-1.5224,-1.4801,-1.4475,0.0,0.0,0.0,0.0,0.0,-1.3593,-1.4041,-1.3912,-1.3824,-1.3838,-1.3695,-1.3553,-1.3403,-1.3901,-1.4066,-1.4149,-1.4968,-1.5628,-1.5966,-1.5966,-1.5966,-1.6048,-1.7728,-1.942,-2.127,-2.2621,-2.4243,-2.5943,-2.5304,-2.5077,-2.5024,-2.4743,-2.4636,-2.4636,-2.4636,-2.4636,-2.4636,-2.4636,-2.4636,-2.4636,-2.4636,-2.4636,-2.4636,-2.4636,-2.4636,-2.4636,-2.4636,-2.4222,-2.3768,-2.3768,-2.3313,-2.2928,-2.2928,-2.2928,-2.2928,-2.2928,-2.3201,-2.3311,-2.3091,-2.329,-2.3436,-2.3199,-2.3136,-2.3106,-2.3106,-2.3106,-2.3106,-2.3106,-2.2842,-2.2637,-2.2623,-2.2096,-2.1862,-2.2154,-2.2184,-2.2301,-2.2608,-2.2915,-2.2813,-2.2228,-2.2198,-2.1876,-2.1247,-2.1218,-2.1203,-2.1203,-2.1203,-2.1203,-2.1203,-2.1203,-2.1203,-1.6095,-1.6911,-1.7681,-1.7811,-1.7884,-1.7867,-1.7681,-1.7299,-1.6836,-1.6292,-1.5193,-1.4223,0.0,0.0,0.0,-1.4134,-1.4699,0.0,-1.5357,-1.5039,0.0,-1.4346,0.0,-1.4021,-1.3756,-1.3634,-1.3709,-1.4048,-1.3722,-1.3607,-1.3831,-1.36,-1.3444,-1.3403,-1.3901,-1.4232,-1.4555,-1.5381,-1.5883,-1.5966,-1.5966,-1.5966,-1.604,-1.6383,-1.8077,-2.0942,-2.1166,-2.2841,-2.5291,-2.5144,-2.4957,-2.4743,-2.4663,-2.4636,-2.4636,-2.4636,-2.4636,-2.4636,-2.4636,-2.4636,-2.4636,-2.4636,-2.4636,-2.4636,-2.4636,-2.4636,-2.4636,-2.4636,-2.4222,-2.3768,-2.3768,-2.3313,-2.2928,-2.2928,-2.2928,-2.2996,-2.3201,-2.3338,-2.3447,-2.368,-2.3644,-2.3563,-2.3476,-2.3262,-2.3106,-2.3106,-2.3106,-2.3106,-2.3106,-2.3032,-2.2886,-2.2652,-2.2476,-2.233,-2.2198,-2.2184,-2.2301,-2.2608,-2.2696,-2.2681,-2.252,-2.2301,-2.1993,-2.1584,-2.1335,-2.1203,-2.1203,-2.1203,-2.1203,-2.1203,-2.1203,-2.1203,-1.6974,-1.7591,-1.803,-1.803,-1.7973,-1.777,-1.7185,-1.6706,-1.6113,-1.5101,-1.4024,0.0,0.0,0.0,0.0,0.0,0.0,0.0,-1.5291,-1.4937,-1.4584,0.0,-1.4238,0.0,-1.3865,-1.3831,-1.3892,-1.4061,-1.3654,-1.3532,-1.3824,-1.3559,-1.3486,-1.3735,-1.4142,-1.4638,-1.5298,-1.5793,-1.5966,-1.5966,-1.5967,-1.5926,-1.5918,-1.7244,-1.8897,-2.0773,-2.2009,-2.3516,-2.5064,-2.4943,-2.4783,-2.4636,-2.4636,-2.4636,-2.4636,-2.4636,-2.4636,-2.4636,-2.4636,-2.4636,-2.4636,-2.4636,-2.4636,-2.4636,-2.4636,-2.4636,-2.4636,-2.4636,-2.4315,-2.3928,-2.3808,-2.342,-2.3033,-2.2968,-2.2996,-2.3201,-2.3338,-2.3679,-2.3922,-2.4228,-2.4145,-2.394,-2.3647,-2.3442,-2.3281,-2.3135,-2.3106,-2.3106,-2.3106,-2.3106,-2.3047,-2.2857,-2.271,-2.255,-2.2389,-2.2374,-2.2447,-2.2608,-2.2754,-2.2769,-2.2623,-2.2462,-2.2154,-2.1701,-2.1525,-2.135,-2.1203,-2.1203,-2.1203,-2.1203,-2.1203,-2.1203,-1.7737,-1.8046,-1.8176,-1.8176,-1.8014,-1.7567,-1.6511,-1.5934,-1.5236,-1.3855,0.0,-1.2165,-1.1968,-1.1918,-1.2314,-1.3245,0.0,-1.4332,-1.5116,-1.4736,-1.4319,-1.4299,-1.4183,-1.4048,-1.3912,-1.4007,-1.4082,-1.4102,-1.3682,-1.3553,-1.3824,-1.358,-1.3756,-1.4232,-1.4638,-1.5216,-1.5966,-1.5966,-1.5966,-1.5958,-1.5861,-1.5772,-1.5926,-1.8779,-2.0224,-2.0602,-2.3441,-2.4873,-2.4997,-2.4743,-2.4636,-2.4636,-2.4636,-2.4636,-2.4636,-2.4636,-2.4636,-2.4636,-2.4636,-2.4636,-2.4636,-2.4636,-2.4636,-2.4636,-2.4636,-2.4636,-2.4636,-2.4636,-2.4422,-2.4142,-2.3888,-2.3581,-2.326,-2.3062,-2.3229,-2.3406,-2.3543,-2.4088,-2.4627,-2.4686,-2.4598,-2.4393,-2.3823,-2.3691,-2.3545,-2.3223,-2.3179,-2.3164,-2.312,-2.3106,-2.3106,-2.3106,-2.2857,-2.2667,-2.2623,-2.2623,-2.2623,-2.2623,-2.2886,-2.2945,-2.2696,-2.2652,-2.2374,-2.1832,-2.1774,-2.1628,-2.1335,-2.1335,-2.132,-2.1276,-2.132,-2.132,-1.7802,-1.8046,-1.8176,-1.8176,-1.7827,-1.7234,-1.63,-1.5472,0.0,0.0,0.0,-1.158,-1.1441,-1.1618,-1.221,-1.3265,0.0,0.0,0.0,0.0,-1.4434,0.0,0.0,0.0,-1.4224,-1.4129,-1.4122,-1.4251,-1.3844,-1.3661,-1.3831,-1.4013,-1.4445,-1.5141,-1.5216,-1.5546,-1.5966,-1.5966,-1.5966,-1.5958,-1.5861,-1.5772,-1.5845,-1.7465,-1.8909,-2.0276,-2.1952,-2.3427,-2.4716,-2.4589,-2.4636,-2.4636,-2.4636,-2.4636,-2.4636,-2.4636,-2.4636,-2.4636,-2.4636,-2.4636,-2.4636,-2.4636,-2.4636,-2.4636,-2.4636,-2.4636,-2.4636,-2.4636,-2.4422,-2.4195,-2.4142,-2.3728,-2.3383,-2.3664,-2.3584,-2.3543,-2.4156,-2.4645,-2.497,-2.4979,-2.4826,-2.454,-2.4423,-2.4174,-2.3881,-2.3559,-2.3515,-2.3413,-2.3149,-2.3106,-2.3106,-2.3106,-2.3062,-2.2915,-2.2652,-2.2623,-2.2623,-2.2623,-2.2681,-2.2798,-2.3018,-2.2769,-2.2564,-2.2462,-2.2228,-2.2067,-2.2008,-2.2008,-2.1876,-2.1613,-2.1891,-2.1876,-1.8103,-1.8257,-1.8322,-1.8322,-1.7778,-1.6933,-1.5756,0.0,0.0,0.0,0.0,-1.1146,-1.0934,-1.1233,0.0,0.0,0.0,0.0,0.0,0.0,0.0,0.0,0.0,0.0,0.0,-1.4231,-1.4224,-1.4292,-1.4102,-1.3939,-1.3844,-1.421,-1.4795,-1.5389,-1.5628,-1.5793,-1.5966,-1.5966,-1.5966,-1.5958,-1.5772,-1.6115,-1.6969,-1.8193,-1.9669,-2.1261,-2.2806,-2.3883,-2.4636,-2.4636,-2.4636,-2.4636,-2.4636,-2.4636,-2.4636,-2.4636,-2.4636,-2.4636,-2.4636,-2.4636,-2.4636,-2.4636,-2.4636,-2.4636,-2.4636,-2.4636,-2.4636,-2.4636,-2.4529,-2.4396,-2.4249,-2.4125,-2.4083,-2.4131,-2.4136,-2.4354,-2.4742,-2.4984,-2.5119,-2.5119,-2.5002,-2.4774,-2.4598,-2.4437,-2.4232,-2.3896,-2.3706,-2.3545,-2.3384,-2.3208,-2.3106,-2.3106,-2.3106,-2.3047,-2.2886,-2.2871,-2.2871,-2.2871,-2.2871,-2.2945,-2.3106,-2.2959,-2.2798,-2.2623,-2.2476,-2.233,-2.2184,-2.2184,-2.2096,-2.195,-2.2795,-2.3135,-1.8338,-1.8547,-1.8547,-1.8547,-1.7778,-1.673,-1.5293,-1.4253,0.0,0.0,0.0,-1.0819,-1.0504,0.0,0.0,0.0,0.0,0.0,0.0,0.0,0.0,0.0,0.0,0.0,-1.4299,-1.4299,-1.4299,-1.4299,-1.4326,-1.427,-1.4115,-1.4558,-1.5051,-1.5546,-1.5843,-1.6008,-1.5966,-1.6008,-1.6008,-1.5958,-1.5683,-1.6378,-1.7924,-1.9187,-2.0714,-2.2297,-2.3883,-2.4636,-2.4636,-2.4636,-2.4636,-2.4636,-2.4636,-2.4636,-2.4636,-2.4636,-2.4636,-2.4636,-2.4636,-2.4636,-2.4636,-2.4636,-2.4636,-2.4636,-2.4636,-2.4636,-2.4636,-2.4636,-2.4636,-2.4583,-2.4356,-2.4526,-2.4737,-2.4508,-2.4805,-2.5103,-2.5125,-2.5119,-2.5119,-2.5119,-2.5119,-2.5046,-2.4715,-2.4738,-2.4554,-2.4232,-2.3969,-2.3779,-2.3706,-2.3471,-2.331,-2.331,-2.3193,-2.3106,-2.3106,-2.3106,-2.3106,-2.3106,-2.3106,-2.3106,-2.3106,-2.3106,-2.2988,-2.2725,-2.2725,-2.2608,-2.2374,-2.2374,-2.2345,-2.2332,-2.3678,-2.4257,-1.8265,-1.8547,-1.8547,-1.8547,-1.7778,-1.6738,-1.5309,0.0,0.0,0.0,-1.0956,-1.0651,-1.0398,0.0,0.0,0.0,0.0,0.0,0.0,0.0,0.0,0.0,0.0,0.0,-1.4299,-1.4299,-1.4299,-1.4299,-1.4388,-1.465,-1.5049,-1.5234,-1.5546,-1.5966,-1.5886,-1.5878,-1.5958,-1.5878,-1.5886,-1.5958,-1.5683,-1.6378,-1.7924,-1.9187,-2.0714,-2.2297,-2.3883,-2.4636,-2.4636,-2.4636,-2.4636,-2.4636,-2.4636,-2.4636,-2.4636,-2.4636,-2.4636,-2.4636,-2.4636,-2.4636,-2.4636,-2.4636,-2.4636,-2.4636,-2.4636,-2.4636,-2.4636,-2.4636,-2.4636,-2.4549,-2.4609,-2.4674,-2.4825,-2.4875,-2.5204,-2.5378,-2.5125,-2.5119,-2.5119,-2.5119,-2.5119,-2.5119,-2.509,-2.5075,-2.4973,-2.4569,-2.4496,-2.4379,-2.4071,-2.4013,-2.3998,-2.3998,-2.3457,-2.3106,-2.3106,-2.3106,-2.3106,-2.3106,-2.3106,-2.3106,-2.3106,-2.3106,-2.3091,-2.3062,-2.3062,-2.3047,-2.3018,-2.3018,-2.2871,-2.2593,-2.4223,-2.4862,-1.8363,-1.8615,-1.859,-1.8476,-1.7616,-1.6446,-1.5122,0.0,0.0,-1.1476,-1.094,-1.0626,-1.0372,-1.0122,0.0,0.0,0.0,0.0,0.0,0.0,0.0,0.0,0.0,0.0,0.0,0.0,-1.4822,-1.5087,-1.5312,-1.5383,-1.5639,-1.5484,-1.5546,-1.5966,-1.5869,-1.5813,-1.5878,-1.5707,-1.5658,-1.5723,-1.5472,-1.6668,-1.9202,-1.9658,-2.1239,-2.3661,-2.4327,-2.4636,-2.4636,-2.4636,-2.4636,-2.4636,-2.4636,-2.4636,-2.4636,-2.4636,-2.4636,-2.4636,-2.4636,-2.4636,-2.4636,-2.4636,-2.4636,-2.4636,-2.4636,-2.4636,-2.4636,-2.4636,-2.4636,-2.4636,-2.4636,-2.4983,-2.5506,-2.5797,-2.5979,-2.5974,-2.5447,-2.5344,-2.5286,-2.5163,-2.5119,-2.5119,-2.5119,-2.5119,-2.5075,-2.4943,-2.4767,-2.4525,-2.4393,-2.4203,-2.4086,-2.4086,-2.3852,-2.3618,-2.3413,-2.3398,-2.3325,-2.312,-2.3106,-2.3106,-2.3106,-2.3106,-2.3106,-2.3106,-2.3899,-2.427,-2.427,-2.427,-2.4271,-2.4132,-2.5558,-2.6254,-1.8176,-1.8525,-1.8533,-1.8403,-1.7388,-1.6121,0.0,0.0,-1.2467,-1.1435,-1.094,-1.0641,-1.0366,-1.0036,-0.9794,0.0,0.0,0.0,0.0,0.0,0.0,0.0,0.0,-1.3677,-1.4167,-1.4804,-1.5433,-1.5881,-1.5909,-1.5972,-1.6065,-1.5771,-1.5631,-1.5967,-1.5788,-1.5699,-1.5699,-1.552,-1.5463,-1.5512,-1.5797,-1.739,-2.0145,-2.0373,-2.1999,-2.4636,-2.4636,-2.4636,-2.4636,-2.4636,-2.4636,-2.4636,-2.4636,-2.4636,-2.4636,-2.4636,-2.4636,-2.4636,-2.4636,-2.4636,-2.4636,-2.4636,-2.4636,-2.4636,-2.4636,-2.4636,-2.4636,-2.4636,-2.471,-2.4784,-2.4931,-2.5433,-2.6095,-2.643,-2.65,-2.6354,-2.5798,-2.5666,-2.5579,-2.5257,-2.5198,-2.5169,-2.5134,-2.5119,-2.5119,-2.5119,-2.4929,-2.4782,-2.4782,-2.451,-2.4379,-2.4379,-2.4379,-2.4203,-2.3779,-2.3735,-2.3647,-2.3413,-2.3398,-2.3354,-2.3252,-2.3252,-2.3208,-2.3106,-2.4394,-2.5071,-2.5071,-2.5485,-2.5668,-2.5684,-2.6944,-2.7966,-1.7583,-1.8054,-1.8176,-1.8176,-1.7104,-1.5821,0.0,-1.3595,-1.2312,-1.1411,-1.094,-1.0641,-1.0366,-1.0036,-0.9758,0.0,0.0,0.0,0.0,0.0,0.0,0.0,0.0,-1.3327,-1.4045,-1.5066,-1.5881,-1.6401,-1.6082,-1.6065,-1.6576,-1.6064,-1.5772,-1.5772,-1.561,-1.552,-1.552,-1.5333,-1.5333,-1.5512,-1.6955,-1.855,-2.0145,-2.1505,-2.3054,-2.4636,-2.4636,-2.4636,-2.4636,-2.4636,-2.4636,-2.4636,-2.4636,-2.4636,-2.4636,-2.4636,-2.4636,-2.4636,-2.4636,-2.4636,-2.4636,-2.4636,-2.4636,-2.4636,-2.4636,-2.4636,-2.4636,-2.4636,-2.4857,-2.5299,-2.5653,-2.6093,-2.6386,-2.6502,-2.65,-2.6413,-2.6076,-2.6018,-2.5915,-2.5593,-2.552,-2.5418,-2.5178,-2.5119,-2.5119,-2.5119,-2.5119,-2.5119,-2.5119,-2.5119,-2.5119,-2.5119,-2.5119,-2.4855,-2.413,-2.4071,-2.4071,-2.4071,-2.4071,-2.3925,-2.3603,-2.3588,-2.3442,-2.312,-2.4394,-2.5071,-2.5071,-2.6382,-2.6987,-2.7021,-2.8265,-2.9766,-1.5878,-1.6308,-1.6446,-1.6073,-1.5374,-1.4538,-1.3636,-1.2791,-1.1979,-1.1208,-1.0858,-1.0696,-1.0586,-1.0046,-0.9828,-1.0428,0.0,0.0,0.0,0.0,0.0,0.0,-1.3641,-1.478,-1.5613,-1.6015,-1.6354,-1.6681,-1.6457,-1.6301,-1.6227,-1.5934,-1.5772,-1.5772,-1.548,-1.5325,-1.5325,-1.5147,-1.5082,-1.5216,-1.6762,-1.8333,-1.9919,-2.151,-2.3054,-2.4636,-2.4636,-2.4636,-2.4636,-2.4636,-2.4636,-2.4636,-2.4636,-2.4636,-2.4636,-2.4636,-2.4636,-2.4636,-2.4636,-2.4636,-2.4636,-2.4636,-2.4636,-2.4636,-2.4931,-2.4784,-2.4636,-2.4931,-2.5299,-2.5726,-2.6093,-2.6312,-2.6444,-2.6779,-2.6837,-2.6749,-2.6413,-2.6354,-2.6252,-2.593,-2.5857,-2.5754,-2.5432,-2.5374,-2.5301,-2.5163,-2.5119,-2.5119,-2.5119,-2.5119,-2.5119,-2.5119,-2.5119,-2.4943,-2.4452,-2.4423,-2.4764,-2.5494,-2.5543,-2.5929,-2.6769,-2.6816,-2.6766,-2.6651,-2.7944,-2.8439,-2.8174,-2.8599,-2.8577,-2.8325,-2.9157,-3.0295,0.0,-1.5147,-1.5293,-1.4952,-1.4367,-1.3693,-1.2994,-1.2312,-1.1646,-1.0997,-1.072,-1.0574,-1.0501,-1.0022,-0.9806,-1.031,0.0,0.0,0.0,0.0,0.0,-1.2889,0.0,0.0,-1.616,-1.6498,-1.6681,-1.6782,-1.6617,-1.6349,-1.6064,-1.574,-1.5569,-1.5569,-1.5358,-1.5204,-1.5139,-1.5025,-1.4968,-1.5045,-1.7245,-1.883,-1.9887,-2.2073,-2.3661,-2.4636,-2.4636,-2.4636,0.0,-2.4636,-2.4636,-2.4636,-2.4636,-2.4636,-2.4636,-2.4636,-2.4636,-2.4636,-2.4636,-2.4636,-2.4636,-2.4636,-2.471,-2.4931,-2.5299,-2.5226,-2.5065,-2.5373,-2.5726,-2.6093,-2.6312,-2.6546,-2.6692,-2.691,-2.6983,-2.6939,-2.6735,-2.6691,-2.6588,-2.6266,-2.6193,-2.6091,-2.5769,-2.571,-2.5608,-2.5286,-2.5227,-2.5183,-2.5134,-2.551,-2.5846,-2.5846,-2.6301,-2.6542,-2.6324,-2.5396,-2.5321,-2.6452,-2.6566,-2.7148,-2.842,-2.8467,-2.8415,-2.8323,-2.9555,-3.0125,-2.9989,-3.0676,-3.0784,-3.0536,-3.0953,-3.1624,0.0,-1.4351,-1.4497,-1.4464,-1.3831,-1.3124,-1.2783,-1.206,0.0,-1.0785,-1.055,-1.0387,-1.0286,-0.9967,-0.9715,-0.963,0.0,0.0,0.0,0.0,0.0,0.0,-1.4663,-1.5373,-1.6034,-1.6641,-1.7015,-1.6741,-1.6495,-1.6211,-1.5999,-1.5441,-1.5244,-1.522,-1.522,-1.5139,-1.4968,-1.4968,-1.5045,-1.5198,-1.8299,-1.9887,-2.0113,-2.3203,-2.4636,-2.4636,-2.4636,-2.4636,-2.4636,-2.4636,-2.4636,-2.4636,-2.4636,-2.4636,-2.4636,-2.4636,-2.4636,-2.4636,-2.4636,-2.4636,-2.4636,-2.4636,-2.4931,-2.5299,-2.5726,-2.5873,-2.5873,-2.5873,-2.6093,-2.6473,-2.6473,-2.6692,-2.6983,-2.6983,-2.6983,-2.6983,-2.6983,-2.6983,-2.6896,-2.6603,-2.6544,-2.6442,-2.6105,-2.6047,-2.5944,-2.5622,-2.5564,-2.5461,-2.5237,-2.6243,-2.7083,-2.7118,-2.8312,-2.9151,-2.9182,-2.6835,-2.5981,-2.7336,-2.7403,-2.7917,-2.9072,-2.9119,-2.8963,-2.8661,-2.9813,-3.0538,-3.0888,-3.2452,-3.3196,-3.3196,-3.3196,-3.3355,-1.1825,0.0,-1.2393,-1.2109,-1.1882,-1.1671,0.0,0.0,0.0,0.0,0.0,0.0,0.0,0.0,0.0,0.0,0.0,0.0,-1.1364,0.0,0.0,-1.5337,-1.5948,-1.6418,-1.6768,-1.6855,-1.6779,-1.6454,-1.6349,-1.6048,-1.5463,-1.5439,-1.5317,-1.5041,-1.5033,-1.5009,-1.4968,-1.4968,-1.565,-1.6873,-1.883,-2.0414,-2.1688,-2.3648,-2.4636,-2.4636,-2.4636,-2.4636,-2.4636,-2.4636,-2.4636,-2.4636,-2.4636,-2.4636,-2.4636,-2.4636,-2.4636,-2.4636,-2.4636,-2.4636,-2.4636,-2.4931,-2.5299,-2.5726,-2.6166,-2.6239,-2.6239,-2.6239,-2.6546,-2.6838,-2.6838,-2.691,-2.6983,-2.6983,-2.6983,-2.6983,-2.6983,-2.6983,-2.6969,-2.6896,-2.6881,-2.6778,-2.6442,-2.6383,-2.6281,-2.5944,-2.59,-2.5871,-2.5798,-2.6062,-2.6565,-2.7379,-2.7752,-2.831,-2.9151,-2.8592,-2.8854,-3.0207,-3.0337,-3.0882,-3.2232,-3.2296,-3.2258,-3.2207,-3.2152,-3.237,-3.2679,-3.2811,-3.2955,-3.3196,-3.3415,-3.3535,-1.0956,-1.1305,-1.1606,-1.1403,-1.1354,-1.1305,0.0,0.0,0.0,0.0,0.0,0.0,0.0,0.0,0.0,0.0,-1.1095,0.0,0.0,0.0,-1.4634,-1.5942,-1.6405,-1.669,-1.6966,-1.6828,-1.6576,-1.6211,-1.6032,-1.574,-1.526,-1.5252,-1.5212,-1.5098,-1.5778,-1.6109,-1.6109,-1.5344,-1.6177,-1.8537,-1.9359,-2.0639,-2.2223,-2.3883,-2.4636,-2.4636,-2.4636,-2.4636,-2.4636,-2.4636,-2.4636,-2.4636,-2.4636,-2.4636,-2.4636,-2.4636,-2.4636,-2.4636,-2.4636,-2.4636,-2.471,-2.5299,-2.5653,-2.5946,-2.6473,-2.6692,-2.6692,-2.6692,-2.6838,-2.6983,-2.6983,-2.6983,-2.6983,-2.6983,-2.6983,-2.6983,-2.6983,-2.6983,-2.6983,-2.6983,-2.6983,-2.6939,-2.6764,-2.672,-2.6617,-2.6296,-2.6237,-2.6193,-2.6032,-2.7177,-2.826,-2.8818,-3.0069,-3.1048,-3.1393,-3.1486,-3.1395,-3.1322,-3.1322,-3.1899,-3.3355,-3.3418,-3.3418,-3.3418,-3.3516,-3.3647,-3.3833,-3.3901,-3.4024,-3.4207,-3.439,-3.445,-1.0761,-1.1126,-1.1484,-1.1395,-1.1395,-1.137,0.0,0.0,0.0,0.0,0.0,0.0,0.0,0.0,0.0,0.0,0.0,0.0,-1.346,-1.417,-1.5033,-1.6202,-1.6511,-1.6682,-1.675,-1.6665,-1.6389,-1.6032,-1.5723,-1.5447,-1.5212,-1.5074,-1.5065,-1.5195,-1.6658,-1.7559,-1.7778,-1.6186,-1.7017,-2.0188,-1.9887,-2.0789,-2.2595,-2.3957,-2.4636,-2.4636,-2.4636,-2.4636,-2.4636,-2.4636,-2.4636,-2.4636,-2.4636,-2.4636,-2.4636,-2.4636,-2.4636,-2.4636,-2.4636,-2.471,-2.4857,-2.5653,-2.5873,-2.6019,-2.6765,-2.6983,-2.6983,-2.6983,-2.6983,-2.6983,-2.6983,-2.6983,-2.6983,-2.6983,-2.6983,-2.6983,-2.6983,-2.6983,-2.6983,-2.6983,-2.6983,-2.6983,-2.6983,-2.7202,-2.7243,-2.6962,-2.7132,-2.7169,-2.6884,-2.9053,-3.06,-3.0821,-3.2977,-3.4367,-3.4199,-3.416,-3.3534,-3.1912,-3.1717,-3.2174,-3.3355,-3.3418,-3.3418,-3.3481,-3.4047,-3.436,-3.4485,-3.5046,-3.5356,-3.5418,-3.5418,-3.5418,-1.1062,-1.1313,-1.1386,-1.0932,-1.0932,-1.1005,0.0,0.0,0.0,0.0,0.0,0.0,0.0,0.0,0.0,0.0,0.0,-1.3469,0.0,0.0,-1.5642,-1.6446,-1.6698,-1.682,-1.6766,-1.6544,-1.6194,-1.5845,-1.5764,-1.552,-1.5033,-1.513,-1.5139,-1.5009,-1.6586,-1.8082,-1.9434,-1.7854,-1.8678,-2.1849,-2.0414,-2.14,-2.4267,-2.4488,-2.4636,-2.4636,-2.4636,-2.4636,-2.4636,-2.4636,-2.4636,-2.4636,-2.4636,-2.4636,-2.4636,-2.4636,-2.4636,-2.4636,-2.5005,-2.5079,-2.5226,-2.6034,-2.6312,-2.6385,-2.6838,-2.6983,-2.6983,-2.6983,-2.6983,-2.6983,-2.6983,-2.6983,-2.6983,-2.6983,-2.6983,-2.6983,-2.6983,-2.6983,-2.6983,-2.6983,-2.6983,-2.6983,-2.6983,-2.8042,-2.8876,-2.8813,-2.9867,-3.0701,-3.0634,-3.1056,-3.1705,-3.2625,-3.3065,-3.3707,-3.4563,-3.4609,-3.4505,-3.4166,-3.3489,-3.3165,-3.3418,-3.3418,-3.3544,-3.3796,-3.3922,-3.4235,-3.4797,-3.4922,-3.5108,-3.5418,-3.5418,-3.5418,-1.0891,-1.1135,-1.1338,-1.1289,-1.1346,0.0,0.0,0.0,0.0,0.0,0.0,0.0,0.0,0.0,0.0,-1.2994,0.0,-1.4245,-1.5114,-1.5398,-1.574,-1.6357,-1.6592,-1.6665,-1.6568,-1.6227,-1.591,-1.565,-1.5447,-1.5228,-1.4976,-1.5049,-1.5098,-1.5114,-1.7454,-1.9119,-1.9918,-1.9952,-2.1164,-2.35,-2.1849,-2.2297,-2.4636,-2.4636,-2.4636,-2.4636,-2.4636,-2.4636,-2.4636,-2.4636,-2.4636,-2.4636,-2.4636,-2.4636,-2.4636,-2.4636,-2.471,-2.4931,-2.5152,-2.5373,-2.558,-2.6239,-2.6399,-2.6473,-2.691,-2.6983,-2.6983,-2.6983,-2.6983,-2.6983,-2.6983,-2.6983,-2.6983,-2.6983,-2.6983,-2.6983,-2.6983,-2.6983,-2.6983,-2.6983,-2.6983,-2.7274,-2.8042,-2.8748,-2.9449,-3.0305,-3.1084,-3.1508,-3.1508,-3.2211,-3.2926,-3.3436,-3.419,-3.4786,-3.5031,-3.5078,-3.4863,-3.4394,-3.3984,-3.3672,-3.3437,-3.3418,-3.3481,-3.3607,-3.3985,-3.4298,-3.461,-3.4984,-3.5232,-3.5418,-3.5418,-3.5418,-1.0802,-1.1013,-1.1297,0.0,0.0,0.0,0.0,0.0,0.0,0.0,0.0,0.0,0.0,0.0,0.0,-1.3798,-1.4335,-1.4797,-1.5293,-1.552,-1.5804,-1.6251,-1.643,-1.6446,-1.6259,-1.5959,-1.5683,-1.5463,-1.5187,-1.5009,-1.4968,-1.4968,-1.5033,-1.5171,-1.816,-1.9898,-1.9993,-2.1869,-2.3351,-2.4562,-2.298,-2.3054,-2.4636,-2.4636,-2.4636,-2.4636,-2.4636,-2.4636,-2.4636,-2.4636,-2.4636,-2.4636,-2.4636,-2.4636,-2.4636,-2.471,-2.4931,-2.5239,-2.5446,-2.5667,-2.6019,-2.6399,-2.6546,-2.6619,-2.691,-2.6983,-2.6983,-2.6983,-2.6983,-2.6983,-2.6983,-2.6983,-2.6983,-2.6983,-2.6983,-2.6983,-2.6983,-2.7274,-2.755,-2.755,-2.784,-2.8403,-2.952,-3.002,-3.066,-3.186,-3.2351,-3.2561,-3.2561,-3.3554,-3.4333,-3.4333,-3.5314,-3.5898,-3.5566,-3.5547,-3.5215,-3.4434,-3.4277,-3.4088,-3.3721,-3.3701,-3.3705,-3.3733,-3.4235,-3.4548,-3.461,-3.517,-3.5418,-3.5418,-3.5418,-3.5418,-1.1143,-1.12,-1.1273,0.0,0.0,0.0,0.0,0.0,0.0,0.0,0.0,0.0,0.0,0.0,-1.3669,-1.4091,-1.4732,-1.5309,-1.5683,-1.5894,-1.6081,-1.6276,-1.6316,-1.6259,-1.6081,-1.5886,-1.5626,-1.5285,-1.5236,-1.5147,-1.4976,-1.4968,-1.4968,-1.4984,-1.8158,-1.9822,-1.9844,-2.2905,-2.4488,-2.4562,-2.298,-2.3054,-2.4636,-2.4636,-2.4636,-2.4636,-2.4636,-2.4636,-2.4636,-2.4636,-2.4636,-2.4636,-2.4636,-2.4636,-2.4636,-2.5005,-2.5166,-2.5313,-2.6034,-2.6326,-2.6385,-2.6838,-2.6983,-2.6983,-2.6983,-2.6983,-2.6983,-2.6983,-2.6983,-2.6983,-2.6983,-2.6983,-2.6983,-2.6983,-2.6983,-2.6983,-2.6983,-2.8042,-2.9035,-2.9035,-3.0162,-3.1226,-3.1296,-3.2491,-3.3484,-3.3623,-3.4815,-3.5675,-3.5675,-3.5743,-3.5811,-3.5811,-3.5947,-3.6016,-3.5976,-3.5976,-3.5781,-3.5332,-3.4883,-3.4603,-3.4492,-3.4536,-3.4592,-3.4797,-3.4859,-3.5046,-3.5356,-3.5356,-3.5418,-3.5418,-3.5418,-3.5418,-1.0875,-1.1053,-1.1346,0.0,0.0,0.0,0.0,0.0,0.0,0.0,0.0,0.0,0.0,0.0,-1.4131,-1.4594,-1.5171,-1.5658,-1.591,-1.5999,-1.6073,-1.6137,-1.604,-1.5951,-1.5886,-1.561,-1.5382,-1.5174,-1.513,-1.5041,-1.4968,-1.4968,-1.542,-1.6492,-1.8603,-2.0197,-2.102,-2.3423,-2.4543,-2.4369,-2.3866,-2.4031,-2.4636,-2.4636,-2.4636,-2.4636,-2.4636,-2.4636,-2.4636,-2.4636,-2.4636,-2.4636,-2.4636,-2.4784,-2.5005,-2.5152,-2.552,-2.596,-2.6312,-2.6546,-2.6765,-2.691,-2.6983,-2.6983,-2.6983,-2.6983,-2.6983,-2.6983,-2.6983,-2.6983,-2.6983,-2.6983,-2.6983,-2.6983,-2.6983,-2.6983,-2.6983,-2.8186,-2.9178,-2.9178,-3.0447,-3.1789,-3.277,-3.3415,-3.4126,-3.504,-3.5675,-3.6016,-3.6016,-3.6016,-3.6016,-3.6016,-3.6016,-3.6016,-3.6016,-3.6016,-3.5957,-3.5801,-3.5371,-3.4988,-3.4668,-3.4412,-3.4433,-3.4719,-3.4627,-3.4735,-3.5108,-3.5294,-3.5418,-3.5418,-3.5418,-3.5418,-1.0672,-1.0867,-1.1273,0.0,0.0,0.0,0.0,0.0,0.0,0.0,0.0,0.0,0.0,0.0,0.0,-1.4895,-1.5423,-1.5837,-1.6024,-1.5966,-1.5942,-1.5967,-1.5845,-1.5731,-1.5618,-1.5382,-1.5212,-1.5155,-1.509,-1.5049,-1.5049,-1.5106,-1.5855,-1.7331,-1.8905,-2.0333,-2.1631,-2.3447,-2.4262,-2.4075,-2.4262,-2.4462,-2.4636,-2.4636,-2.4636,-2.4636,-2.4636,-2.4636,-2.4636,-2.4636,-2.4636,-2.4636,-2.471,-2.4931,-2.5239,-2.552,-2.596,-2.6385,-2.6546,-2.6765,-2.6983,-2.6983,-2.6983,-2.6983,-2.6983,-2.6983,-2.6983,-2.6983,-2.6983,-2.6983,-2.6983,-2.6983,-2.6983,-2.6983,-2.6983,-2.6983,-2.6983,-2.8547,-2.9949,-2.9949,-3.1578,-3.3276,-3.4333,-3.4471,-3.4834,-3.5879,-3.6016,-3.6016,-3.6016,-3.6016,-3.6016,-3.6016,-3.6016,-3.6016,-3.6016,-3.6084,-3.6132,-3.6132,-3.6012,-3.5705,-3.5251,-3.4955,-3.4998,-3.5308,-3.5055,-3.5084,-3.5271,-3.5376,-3.5418,-3.5418,-3.5562,-3.5645,-1.0623,-1.0696,0.0,0.0,0.0,0.0,0.0,0.0,0.0,0.0,0.0,0.0,-1.4546,-1.4586,-1.4765,-1.4944,-1.5423,-1.5837,-1.6024,-1.5958,-1.5975,-1.5796,-1.5772,-1.5626,-1.5277,-1.5236,-1.5163,-1.4984,-1.513,-1.5236,-1.5236,-1.5407,-1.6041,-1.7169,-1.8734,-2.0169,-2.1282,-2.297,-2.3768,-2.3768,-2.3768,-2.4075,-2.4549,-2.4549,-2.4549,-2.4549,-2.4549,-2.4549,-2.4636,-2.4636,-2.4636,-2.4636,-2.5005,-2.5226,-2.5299,-2.6107,-2.6399,-2.6473,-2.6838,-2.6983,-2.6983,-2.6983,-2.6983,-2.6983,-2.6983,-2.6983,-2.6983,-2.6983,-2.6983,-2.6983,-2.6983,-2.6983,-2.6983,-2.6983,-2.6983,-2.6983,-2.6983,-2.9393,-3.1508,-3.1508,-3.3969,-3.6016,-3.6016,-3.6016,-3.6016,-3.6016,-3.6016,-3.6016,-3.6016,-3.6016,-3.6016,-3.6016,-3.6016,-3.6016,-3.6016,-3.6336,-3.6519,-3.6519,-3.6856,-3.6877,-3.6435,-3.6415,-3.6542,-3.6825,-3.6349,-3.6121,-3.6121,-3.5666,-3.5438,-3.5438,-3.5914,-3.6121,-1.0526,0.0,0.0,0.0,0.0,0.0,0.0,0.0,0.0,0.0,0.0,-1.5528,-1.5244,-1.5025,-1.4944,-1.513,-1.5504,-1.5837,-1.6024,-1.5934,-1.5886,-1.5959,-1.5626,-1.5407,-1.5431,-1.5204,-1.5074,-1.5155,-1.509,-1.5106,-1.5158,-1.5057,-1.6107,-1.8679,-1.9096,-2.0329,-2.2672,-2.3448,-2.3661,-2.346,-2.3674,-2.3861,-2.4022,-2.4022,-2.4022,-2.4022,-2.4022,-2.4142,-2.4342,-2.4556,-2.4784,-2.5005,-2.5166,-2.552,-2.6107,-2.6326,-2.6619,-2.6838,-2.6983,-2.6983,-2.6983,-2.6983,-2.6983,-2.6983,-2.6983,-2.6983,-2.6983,-2.6983,-2.6983,-2.6983,-2.6983,-2.6983,-2.6983,-2.6983,-2.6983,-2.7274,-2.8331,-3.0091,-3.1789,-3.2927,-3.4677,-3.6016,-3.6016,-3.6016,-3.6016,-3.6016,-3.6016,-3.6016,-3.6016,-3.6016,-3.6016,-3.6016,-3.6016,-3.6016,-3.6016,-3.6084,-3.6132,-3.6132,-3.6471,-3.6729,-3.6898,-3.6576,-3.6552,-3.6869,-3.6439,-3.6342,-3.6597,-3.6453,-3.639,-3.639,-3.6535,-3.6597,0.0,0.0,0.0,0.0,0.0,0.0,0.0,0.0,0.0,0.0,0.0,-1.5951,-1.5845,-1.5528,-1.5325,-1.5431,-1.5691,-1.5894,-1.5934,-1.5845,-1.5764,-1.5731,-1.5439,-1.5252,-1.5293,-1.5098,-1.5009,-1.5122,-1.5098,-1.5122,-1.5236,-1.5033,-1.6282,-1.9245,-1.9146,-2.0376,-2.314,-2.3313,-2.3313,-2.314,-2.3327,-2.3407,-2.342,-2.3661,-2.3768,-2.3768,-2.3768,-2.3875,-2.4048,-2.4367,-2.4652,-2.4884,-2.5299,-2.5777,-2.6228,-2.6488,-2.6765,-2.6983,-2.6983,-2.6983,-2.6983,-2.6983,-2.6983,-2.6983,-2.6983,-2.6983,-2.6983,-2.6983,-2.6983,-2.6983,-2.6983,-2.6983,-2.6983,-2.6983,-2.742,-2.8114,-2.9035,-3.0872,-3.27,-3.3623,-3.4971,-3.6016,-3.6016,-3.6016,-3.6016,-3.6016,-3.6016,-3.6016,-3.6016,-3.6016,-3.6016,-3.6016,-3.6016,-3.6016,-3.6016,-3.6287,-3.6423,-3.6423,-3.6876,-3.728,-3.7502,-3.7084,-3.7075,-3.7427,-3.6975,-3.6879,-3.7074,-3.6887,-3.6804,-3.6804,-3.6991,-3.7074,0.0,0.0,0.0,0.0,0.0,0.0,0.0,0.0,0.0,-1.7055,0.0,-1.6324,-1.6308,-1.6024,-1.5796,-1.5796,-1.5934,-1.5983,-1.5796,-1.5756,-1.5626,-1.5301,-1.5236,-1.5155,-1.5009,-1.4976,-1.4968,-1.4992,-1.513,-1.5212,-1.5212,-1.5257,-1.6527,-1.9107,-1.9071,-2.0319,-2.2859,-2.2928,-2.2928,-2.2928,-2.2928,-2.2928,-2.2954,-2.3434,-2.3688,-2.3688,-2.3714,-2.3799,-2.3799,-2.4181,-2.4337,-2.4506,-2.5484,-2.5898,-2.6028,-2.6692,-2.6969,-2.6983,-2.6983,-2.6983,-2.6983,-2.6983,-2.6983,-2.6983,-2.6983,-2.6983,-2.6983,-2.6983,-2.6983,-2.6983,-2.6983,-2.7129,-2.7202,-2.7202,-2.8186,-2.925,-2.9377,-3.1719,-3.3849,-3.3988,-3.5108,-3.6016,-3.6016,-3.6016,-3.6016,-3.6016,-3.6016,-3.6016,-3.6016,-3.6016,-3.6016,-3.6016,-3.6016,-3.6016,-3.6016,-3.6606,-3.7011,-3.7011,-3.7703,-3.8104,-3.8104,-3.7837,-3.7837,-3.8191,-3.7777,-3.755,-3.755,-3.7136,-3.6929,-3.6949,-3.7363,-3.755,0.0,0.0,0.0,0.0,0.0,0.0,0.0,0.0,0.0,-1.6901,-1.6706,-1.6479,-1.6332,-1.6129,-1.5991,-1.5991,-1.6024,-1.5983,-1.5796,-1.5658,-1.5545,-1.5463,-1.5204,-1.5065,-1.5171,-1.5049,-1.5025,-1.5171,-1.5082,-1.5025,-1.5025,-1.5882,-1.7154,-1.8763,-1.9733,-2.1098,-2.2859,-2.2928,-2.2928,-2.2928,-2.2928,-2.2928,-2.2928,-2.2993,-2.306,-2.3142,-2.3313,-2.3561,-2.3911,-2.4156,-2.4607,-2.5172,-2.5441,-2.584,-2.6372,-2.6574,-2.6764,-2.6983,-2.6983,-2.6983,-2.6983,-2.6983,-2.6983,-2.6983,-2.6983,-2.6983,-2.6983,-2.6983,-2.6983,-2.6983,-2.6983,-2.784,-2.8748,-2.8748,-2.8963,-2.952,-3.073,-3.2491,-3.4126,-3.5314,-3.5811,-3.6016,-3.6016,-3.6016,-3.6016,-3.6016,-3.6016,-3.6016,-3.6016,-3.6016,-3.6016,-3.6016,-3.6016,-3.6016,-3.6016,-3.6152,-3.6219,-3.6219,-3.6944,-3.7348,-3.7348,-3.7837,-3.8104,-3.8191,-3.8088,-3.8026,-3.8026,-3.7943,-3.7881,-3.7881,-3.7984,-3.8026,0.0,0.0,0.0,0.0,0.0,0.0,0.0,0.0,0.0,-1.6418,-1.6454,-1.6422,-1.6316,-1.6089,-1.5918,-1.5918,-1.5845,-1.5731,-1.5545,-1.5439,-1.535,-1.526,-1.5082,-1.5,-1.5098,-1.5025,-1.4968,-1.4984,-1.4895,-1.4806,-1.4716,-1.5919,-1.7217,-1.8685,-1.9924,-2.1321,-2.2859,-2.2928,-2.2928,-2.2928,-2.2928,-2.2928,-2.2928,-2.2928,-2.2928,-2.2941,-2.324,-2.3445,-2.3722,-2.4164,-2.465,-2.5011,-2.5293,-2.5676,-2.6076,-2.6383,-2.6617,-2.6778,-2.6939,-2.6983,-2.6983,-2.6983,-2.6983,-2.6983,-2.6983,-2.6983,-2.6983,-2.6983,-2.7492,-2.8042,-2.8042,-2.9178,-3.0305,-3.0305,-3.0872,-3.1649,-3.2421,-3.3762,-3.5108,-3.5879,-3.6016,-3.6016,-3.6016,-3.6016,-3.6016,-3.6016,-3.6016,-3.6016,-3.6016,-3.6016,-3.6016,-3.6016,-3.6016,-3.6016,-3.6016,-3.6355,-3.6403,-3.6268,-3.7079,-3.7569,-3.7348,-3.7904,-3.8191,-3.8191,-3.8191,-3.8191,-3.8191,-3.8191,-3.8191,-3.8191,-3.8191,-3.8191,0.0,0.0,0.0,0.0,0.0,0.0,0.0,0.0,0.0,-1.6024,-1.6113,-1.6235,-1.6178,-1.5926,-1.5731,-1.5731,-1.561,-1.5455,-1.526,-1.5236,-1.5171,-1.4984,-1.4968,-1.4968,-1.4968,-1.4935,-1.4871,-1.4765,-1.4692,-1.4594,-1.444,-1.5922,-1.7367,-1.862,-2.018,-2.1609,-2.2859,-2.2928,-2.2928,-2.2928,-2.2928,-2.2928,-2.2928,-2.2928,-2.2996,-2.2996,-2.327,-2.3475,-2.3611,-2.4224,-2.4578,-2.466,-2.5208,-2.5476,-2.5593,-2.6135,-2.6413,-2.6544,-2.6808,-2.6939,-2.6983,-2.6983,-2.6983,-2.6983,-2.6983,-2.6983,-2.6983,-2.6983,-2.8042,-2.9178,-2.9178,-3.0518,-3.193,-3.193,-3.3067,-3.4126,-3.3831,-3.4971,-3.6016,-3.6016,-3.6016,-3.6016,-3.6016,-3.6016,-3.6016,-3.6016,-3.6016,-3.6016,-3.6016,-3.6016,-3.6016,-3.6084,-3.6084,-3.6084,-3.6152,-3.6742,-3.6944,-3.6586,-3.7549,-3.7971,-3.7616,-3.7971,-3.8191,-3.8191,-3.8191,-3.8191,-3.8191,-3.8191,-3.8191,-3.8191,-3.8191,-3.8191,0.0,0.0,0.0,0.0,0.0,0.0,0.0,0.0,0.0,0.0,-1.5845,-1.5983,-1.5675,-1.5585,-1.5553,-1.5553,-1.5528,-1.5455,-1.526,-1.5236,-1.5171,-1.4984,-1.4968,-1.4968,-1.4968,-1.483,-1.4797,-1.4919,-1.4643,-1.4456,-1.4432,-1.6928,-1.8436,-1.8433,-2.1126,-2.2722,-2.2928,-2.2928,-2.2928,-2.2928,-2.2928,-2.2928,-2.2928,-2.3201,-2.3338,-2.3338,-2.3406,-2.3747,-2.436,-2.4428,-2.4713,-2.5066,-2.511,-2.5286,-2.5535,-2.5622,-2.6018,-2.6515,-2.6559,-2.6749,-2.6983,-2.6983,-2.6983,-2.6983,-2.6983,-2.6983,-2.6983,-2.6983,-2.8042,-2.9178,-2.9178,-3.1367,-3.3484,-3.3484,-3.4609,-3.5382,-3.4057,-3.4971,-3.6016,-3.6016,-3.6016,-3.6016,-3.6016,-3.6016,-3.6016,-3.6016,-3.6016,-3.6016,-3.6016,-3.6016,-3.6084,-3.6384,-3.6451,-3.6586,-3.6944,-3.7011,-3.7079,-3.7011,-3.7415,-3.7683,-3.7616,-3.7971,-3.8191,-3.8191,-3.8191,-3.8191,-3.8191,-3.8191,-3.8191,-3.8191,-3.8191,-3.8191,0.0,0.0,0.0,0.0,0.0,0.0,0.0,0.0,0.0,-1.5553,-1.5561,-1.5577,-1.5528,-1.5431,-1.5358,-1.5358,-1.5277,-1.5179,-1.5098,-1.5082,-1.5057,-1.4976,-1.4968,-1.4927,-1.483,-1.4757,-1.4659,-1.4538,-1.4375,-1.4245,-1.414,-1.6901,-1.8498,-1.8379,-2.1321,-2.2928,-2.2928,-2.2928,-2.2928,-2.2928,-2.3065,-2.3201,-2.3201,-2.3543,-2.3611,-2.3406,-2.3816,-2.4224,-2.4495,-2.4713,-2.4916,-2.5119,-2.5119,-2.514,-2.5315,-2.5666,-2.5988,-2.6281,-2.6647,-2.6866,-2.6983,-2.6983,-2.6983,-2.6983,-2.6983,-2.6983,-2.7202,-2.797,-2.9322,-3.066,-3.1578,-3.3415,-3.504,-3.504,-3.5538,-3.5811,-3.5177,-3.5519,-3.6016,-3.6016,-3.6016,-3.6016,-3.6016,-3.6016,-3.6016,-3.6016,-3.6016,-3.6016,-3.6016,-3.6016,-3.6084,-3.62,-3.6384,-3.6586,-3.6722,-3.7146,-3.728,-3.7079,-3.7636,-3.7837,-3.7616,-3.7971,-3.8191,-3.8191,-3.8191,-3.8191,-3.8191,-3.8191,-3.8191,-3.8191,-3.8191,-3.8191,0.0,0.0,0.0,0.0,0.0,0.0,0.0,0.0,-1.548,0.0,-1.5268,-1.5212,-1.535,-1.526,-1.5171,-1.5171,-1.5057,-1.4968,-1.4968,-1.4968,-1.4968,-1.4968,-1.4927,-1.4846,-1.4724,-1.4627,-1.4481,-1.4261,-1.4156,-1.4066,-1.3977,-1.6805,-1.8379,-1.8379,-2.1321,-2.2928,-2.2928,-2.2928,-2.2928,-2.2996,-2.327,-2.3475,-2.3543,-2.3952,-2.3952,-2.3679,-2.4224,-2.4563,-2.4713,-2.4984,-2.5119,-2.5119,-2.5119,-2.5119,-2.5178,-2.5593,-2.5871,-2.6091,-2.6574,-2.6852,-2.6983,-2.6983,-2.6983,-2.6983,-2.6983,-2.6983,-2.7202,-2.8331,-3.002,-3.1789,-3.2927,-3.4609,-3.6016,-3.6016,-3.6016,-3.6016,-3.6016,-3.6016,-3.6016,-3.6016,-3.6016,-3.6016,-3.6016,-3.6016,-3.6016,-3.6016,-3.6016,-3.6016,-3.6016,-3.6084,-3.6152,-3.6287,-3.6606,-3.6789,-3.6924,-3.7415,-3.7636,-3.7435,-3.7904,-3.8037,-3.777,-3.8037,-3.8191,-3.8191,-3.8191,-3.8191,-3.8191,-3.8191,-3.8191,-3.8191,-3.8191,-3.8191,0.0,0.0,0.0,0.0,0.0,0.0,0.0,0.0,0.0,-1.496,-1.4984,-1.4984,-1.4992,-1.4984,-1.4984,-1.4984,-1.4968,-1.4968,-1.4968,-1.4968,-1.4968,-1.4968,-1.4822,-1.4716,-1.4708,-1.4399,-1.4261,-1.4408,-1.4107,-1.3985,-1.4156,-1.6893,-1.8379,-1.8379,-2.1321,-2.2928,-2.2928,-2.2928,-2.3065,-2.3406,-2.3406,-2.3611,-2.3966,-2.4292,-2.4428,-2.4428,-2.4495,-2.4713,-2.5052,-2.5119,-2.5119,-2.5119,-2.5119,-2.5119,-2.5134,-2.5163,-2.5491,-2.6018,-2.6061,-2.6471,-2.6983,-2.6983,-2.6983,-2.6983,-2.6983,-2.6983,-2.6983,-2.7056,-2.925,-3.1508,-3.1578,-3.3831,-3.6016,-3.6016,-3.6016,-3.6016,-3.6016,-3.6016,-3.6016,-3.6016,-3.6016,-3.6016,-3.6016,-3.6016,-3.6016,-3.6016,-3.6016,-3.6016,-3.6016,-3.6268,-3.6586,-3.7011,-3.7348,-3.7683,-3.8104,-3.8125,-3.8191,-3.8125,-3.8191,-3.8191,-3.8191,-3.8191,-3.8191,-3.8191,-3.8191,-3.8191,-3.8191,-3.8191,-3.8191,-3.8191,-3.8191,-3.8191,0.0,0.0,0.0,0.0,0.0,0.0,0.0,0.0,-1.4586,-1.4765,-1.4708,-1.4627,-1.4627,-1.4814,-1.4927,-1.4822,-1.4895,-1.4927,-1.4814,-1.4895,-1.4927,-1.4814,-1.4749,-1.4619,-1.4391,-1.4253,-1.4156,-1.4099,-1.4819,-1.5337,-1.5417,-1.8223,-1.9785,-1.9785,-2.1816,-2.2928,-2.2928,-2.2928,-2.3065,-2.3406,-2.3679,-2.3952,-2.4292,-2.4713,-2.4916,-2.4916,-2.4916,-2.4984,-2.5119,-2.5119,-2.5119,-2.5119,-2.5119,-2.5119,-2.5149,-2.5286,-2.5637,-2.6047,-2.6252,-2.6617,-2.6983,-2.6983,-2.6983,-2.6983,-2.6983,-2.6983,-2.7202,-2.8114,-2.9877,-3.1719,-3.2718,-3.4471,-3.6016,-3.6016,-3.6016,-3.6016,-3.6016,-3.6016,-3.6016,-3.6016,-3.6016,-3.6016,-3.6016,-3.6016,-3.5937,-3.5664,-3.584,-3.5918,-3.5644,-3.5975,-3.6336,-3.6654,-3.7079,-3.7415,-3.777,-3.8037,-3.8191,-3.8191,-3.8191,-3.8191,-3.8191,-3.8191,-3.8191,-3.8191,-3.8191,-3.8191,-3.8191,-3.8191,-3.8191,-3.8191,-3.8191,-3.8191,0.0,0.0,0.0,0.0,0.0,0.0,0.0,0.0,-1.4091,-1.4456,-1.4481,-1.4432,-1.4432,-1.4627,-1.4749,-1.4635,-1.4708,-1.4749,-1.4635,-1.4716,-1.4741,-1.4627,-1.457,-1.444,-1.4205,-1.4123,-1.4034,-1.3912,-1.5239,-1.6079,-1.6079,-1.8949,-2.0837,-2.1333,-2.2366,-2.2928,-2.2928,-2.309,-2.3365,-2.3611,-2.4132,-2.4474,-2.4713,-2.4984,-2.5119,-2.5119,-2.5119,-2.5119,-2.5119,-2.5119,-2.5119,-2.5119,-2.5119,-2.5119,-2.5163,-2.5418,-2.574,-2.6061,-2.6383,-2.672,-2.6983,-2.6983,-2.6983,-2.6983,-2.6983,-2.6983,-2.7347,-2.8748,-3.0305,-3.186,-3.3415,-3.4883,-3.6016,-3.6016,-3.6016,-3.6055,-3.6211,-3.623,-3.623,-3.623,-3.6348,-3.6445,-3.6445,-3.6445,-3.6348,-3.6074,-3.6152,-3.6191,-3.6055,-3.6219,-3.653,-3.6853,-3.7227,-3.7549,-3.777,-3.8037,-3.8253,-3.8398,-3.8398,-3.8481,-3.8626,-3.8481,-3.8398,-3.8398,-3.8253,-3.8191,-3.8191,-3.8191,-3.8191,-3.8191,-3.8191,-3.8191,0.0,0.0,0.0,0.0,0.0,0.0,0.0,0.0,-1.3246,-1.3985,-1.4261,-1.4383,-1.4408,-1.4416,-1.4408,-1.4416,-1.4424,-1.4432,-1.4424,-1.4432,-1.4432,-1.4424,-1.4278,-1.418,-1.4172,-1.401,-1.3904,-1.3904,-1.531,-1.615,-1.615,-1.9019,-2.1321,-2.2859,-2.2928,-2.2928,-2.2928,-2.3555,-2.3901,-2.4034,-2.4673,-2.5016,-2.5119,-2.5119,-2.5119,-2.5119,-2.5119,-2.5119,-2.5119,-2.5119,-2.5119,-2.5119,-2.5119,-2.5134,-2.511,-2.5418,-2.574,-2.6076,-2.6398,-2.672,-2.6983,-2.6983,-2.6983,-2.6983,-2.6983,-2.6983,-2.7347,-2.8748,-3.0305,-3.186,-3.3484,-3.4902,-3.6016,-3.6035,-3.6035,-3.6152,-3.6601,-3.6699,-3.6699,-3.6699,-3.7012,-3.7305,-3.7305,-3.7305,-3.7285,-3.7285,-3.6934,-3.6816,-3.7226,-3.7162,-3.726,-3.7702,-3.8057,-3.8233,-3.8233,-3.8233,-3.8398,-3.8786,-3.8807,-3.8993,-3.9447,-3.9034,-3.8807,-3.8807,-3.844,-3.8212,-3.8212,-3.8191,-3.8191,-3.8191,-3.8191,-3.8191,-0.8852,0.0,0.0,0.0,0.0,0.0,0.0,0.0,-1.202,-1.3003,-1.3141,-1.3279,-1.3928,-1.3945,-1.3904,-1.4026,-1.4261,-1.4391,-1.4261,-1.4351,-1.4383,-1.4261,-1.4205,-1.4123,-1.3993,-1.3928,-1.3904,-1.3904,-1.6282,-1.7749,-1.7749,-2.0617,-2.2448,-2.2859,-2.2928,-2.2996,-2.327,-2.342,-2.3831,-2.4374,-2.4527,-2.48,-2.5119,-2.5119,-2.5119,-2.5119,-2.5119,-2.5119,-2.5119,-2.5119,-2.5119,-2.5119,-2.5119,-2.5198,-2.5403,-2.5491,-2.5886,-2.6383,-2.6471,-2.672,-2.6983,-2.6983,-2.6983,-2.6983,-2.6983,-2.6983,-2.7347,-2.8748,-3.0305,-3.207,-3.4677,-3.5675,-3.6094,-3.6426,-3.6484,-3.6601,-3.7031,-3.7363,-3.748,-3.7187,-3.7226,-3.7305,-3.7305,-3.7305,-3.7187,-3.6894,-3.6738,-3.6838,-3.7213,-3.7222,-3.7585,-3.8531,-3.8746,-3.889,-3.9096,-3.9164,-3.9226,-3.9261,-3.9282,-3.9344,-3.9468,-3.9344,-3.9282,-3.9282,-3.8827,-3.86,-3.8667,-3.8336,-3.8191,-3.8191,-3.8191,-3.8191,-0.9007,-0.9072,0.0,-0.9259,0.0,0.0,-1.0404,-1.081,-1.133,0.0,-1.2702,-1.2881,-1.3555,-1.3539,-1.3474,-1.3652,-1.392,-1.4091,-1.4066,-1.4148,-1.4172,-1.4075,-1.4066,-1.4018,-1.3912,-1.3904,-1.3904,-1.3904,-1.6705,-1.8938,-2.0201,-2.1953,-2.2928,-2.2928,-2.2928,-2.3065,-2.3406,-2.3667,-2.4078,-2.4495,-2.4775,-2.4979,-2.5119,-2.5119,-2.5119,-2.5119,-2.5119,-2.5119,-2.5119,-2.5119,-2.5119,-2.5134,-2.5198,-2.5374,-2.5564,-2.5827,-2.6179,-2.653,-2.6661,-2.6837,-2.6983,-2.6983,-2.6983,-2.6983,-2.6983,-2.742,-2.8259,-2.9735,-3.1719,-3.3762,-3.5519,-3.6016,-3.6133,-3.6562,-3.668,-3.6836,-3.7422,-3.7754,-3.7851,-3.7598,-3.7715,-3.7832,-3.7832,-3.7832,-3.7754,-3.75,-3.7305,-3.7387,-3.7986,-3.7828,-3.8116,-3.9138,-3.9224,-3.926,-3.9468,-3.9468,-3.955,-3.9736,-3.9757,-3.9909,-4.0096,-3.993,-3.9757,-3.9757,-3.9302,-3.9075,-3.9075,-3.8502,-3.8191,-3.8191,-3.8191,-3.8191,-0.9275,-0.9355,-0.9551,-0.9738,-0.938,0.0,-1.0599,-1.0729,-1.0899,-1.206,-1.2426,-1.2678,-1.3116,-1.3059,-1.3003,-1.3165,-1.3401,-1.3558,-1.3847,-1.3888,-1.3904,-1.3904,-1.3904,-1.3904,-1.3904,-1.3904,-1.3904,-1.3904,-1.6705,-1.9715,-2.2722,-2.2928,-2.2928,-2.2928,-2.2928,-2.3133,-2.3475,-2.408,-2.4438,-2.4578,-2.5208,-2.533,-2.5119,-2.5119,-2.5119,-2.5119,-2.5119,-2.5119,-2.5134,-2.5163,-2.511,-2.5207,-2.5418,-2.5579,-2.571,-2.6252,-2.65,-2.6588,-2.6852,-2.6969,-2.6983,-2.6983,-2.6983,-2.7056,-2.7202,-2.8186,-2.952,-3.1296,-3.3831,-3.6016,-3.6016,-3.6055,-3.6211,-3.6641,-3.6777,-3.7031,-3.7832,-3.7988,-3.7988,-3.7988,-3.8301,-3.8574,-3.8574,-3.8574,-3.8574,-3.8574,-3.8203,-3.823,-3.9116,-3.8797,-3.8788,-3.9586,-3.9651,-3.9682,-3.9682,-3.9682,-3.9868,-4.0282,-4.0303,-4.0468,-4.0862,-4.051,-4.0303,-4.0303,-3.9847,-3.953,-3.9468,-3.873,-3.8336,-3.8336,-3.8336,-3.8336,-0.9795,-0.9918,-0.9935,-0.938,-0.9575,0.0,-0.9023,-0.9364,-0.9989,0.0,-1.071,-1.1028,-1.1914,-1.206,-1.2044,-1.2085,-1.2596,-1.3089,-1.3558,-1.3815,-1.3904,-1.3904,-1.3904,-1.3904,-1.3904,-1.3904,-1.3904,-1.3904,-1.6705,-1.9715,-2.2722,-2.2928,-2.2928,-2.2928,-2.3133,-2.3475,-2.3884,-2.4295,-2.4635,-2.4984,-2.5125,-2.5178,-2.5119,-2.5119,-2.5119,-2.5119,-2.5119,-2.5119,-2.5149,-2.533,-2.5432,-2.5447,-2.5505,-2.5857,-2.6296,-2.6164,-2.6442,-2.6866,-2.6661,-2.6764,-2.6983,-2.6983,-2.6983,-2.7202,-2.8403,-2.8963,-2.9806,-3.2561,-3.4609,-3.6016,-3.6016,-3.6289,-3.666,-3.707,-3.7441,-3.7812,-3.834,-3.8457,-3.8457,-3.8457,-3.8516,-3.8574,-3.8574,-3.8574,-3.8574,-3.8574,-3.8203,-3.823,-3.9116,-3.9057,-3.9253,-4.0055,-4.0462,-4.0613,-4.0613,-4.0613,-4.0655,-4.0737,-4.0737,-4.0779,-4.0862,-4.08,-4.0737,-4.0737,-4.0323,-3.9909,-3.9468,-3.9351,-3.9268,-3.9268,-3.9268,-3.9268,-0.9981,-0.9949,-1.0008,-0.9697,-0.9747,0.0,0.0,-0.9299,-0.964,-1.0184,-1.0152,-1.0351,-1.1208,-1.1224,-1.1191,-1.1459,-1.2101,-1.2637,-1.275,-1.3303,-1.3636,-1.3636,-1.3636,-1.3669,-1.3766,-1.3774,-1.4435,-1.5999,-1.825,-2.0479,-2.2791,-2.2928,-2.2996,-2.3133,-2.3338,-2.3679,-2.4224,-2.4428,-2.4713,-2.5119,-2.5119,-2.5119,-2.5119,-2.5119,-2.5119,-2.5119,-2.5119,-2.5119,-2.5149,-2.5403,-2.5622,-2.5769,-2.5769,-2.5974,-2.6266,-2.6266,-2.6471,-2.6749,-2.6749,-2.6852,-2.6983,-2.6983,-2.7478,-2.8259,-2.8963,-3.0305,-3.2,-3.4264,-3.5451,-3.6074,-3.6289,-3.6504,-3.6836,-3.7461,-3.7773,-3.8047,-3.8476,-3.8574,-3.8574,-3.8574,-3.8574,-3.8574,-3.8574,-3.8574,-3.8574,-3.8574,-3.8398,-3.8485,-3.9156,-3.9318,-3.9616,-4.0218,-4.0668,-4.0882,-4.0882,-4.0882,-4.0882,-4.0882,-4.0882,-4.0882,-4.0882,-4.0882,-4.0882,-4.0882,-4.0655,-4.0448,-4.0199,-4.0199,-3.9972,-3.9468,-3.9468,-3.9468,-1.0282,-1.0193,-1.0233,-1.0228,-0.9984,-0.9747,0.0,0.0,0.0,-0.9973,-0.9892,-0.9925,0.0,0.0,-1.035,-1.0802,-1.1468,-1.1898,-1.1683,-1.241,-1.2986,-1.3189,-1.3246,-1.3344,-1.3522,-1.3612,-1.4976,-1.802,-1.9484,-2.1015,-2.2697,-2.2832,-2.3065,-2.3406,-2.3475,-2.3816,-2.4495,-2.4563,-2.4781,-2.5119,-2.5119,-2.5119,-2.5119,-2.5119,-2.5119,-2.5119,-2.5119,-2.5163,-2.5169,-2.5491,-2.5813,-2.6105,-2.6047,-2.6047,-2.6135,-2.6339,-2.6457,-2.6544,-2.6808,-2.6939,-2.7056,-2.7347,-2.8604,-3.0091,-3.0091,-3.2,-3.4471,-3.5675,-3.6016,-3.6113,-3.6562,-3.6738,-3.6992,-3.7734,-3.7988,-3.8144,-3.8496,-3.8574,-3.8574,-3.8574,-3.8574,-3.8574,-3.8574,-3.8574,-3.8574,-3.8574,-3.8574,-3.872,-3.903,-3.9373,-3.9734,-4.0166,-4.0525,-4.0811,-4.0882,-4.0882,-4.0882,-4.0882,-4.0882,-4.0882,-4.0882,-4.0882,-4.0882,-4.0882,-4.0882,-4.0882,-4.0882,-4.0882,-4.051,-3.9785,-3.9785,-3.9785,-1.1175,-1.1313,-1.1338,-1.0449,-1.059,-1.0607,-0.911,0.0,-0.929,-0.8906,0.0,-0.9259,-0.9543,0.0,0.0,-0.9633,-1.0176,-1.0585,-1.0568,-1.098,-1.1657,-1.2604,-1.28,-1.2962,-1.3141,-1.3721,-1.5109,-1.7588,-1.8576,-2.0067,-2.2364,-2.2712,-2.3065,-2.3406,-2.3747,-2.4088,-2.4495,-2.4849,-2.5052,-2.5119,-2.5119,-2.5119,-2.5119,-2.5119,-2.5119,-2.5119,-2.5119,-2.5213,-2.5505,-2.5827,-2.6149,-2.6413,-2.6135,-2.6193,-2.6413,-2.6164,-2.6252,-2.6515,-2.6544,-2.6749,-2.7202,-2.8547,-3.0943,-3.3276,-3.3276,-3.4471,-3.5811,-3.5947,-3.6016,-3.6113,-3.6562,-3.6953,-3.7344,-3.7812,-3.8223,-3.8516,-3.8555,-3.8574,-3.8574,-3.8574,-3.8574,-3.8574,-3.8574,-3.8574,-3.8574,-3.8574,-3.8574,-3.8647,-3.8647,-3.9011,-3.9373,-3.9714,-4.0166,-4.0525,-4.0882,-4.0882,-4.0882,-4.0882,-4.0882,-4.0882,-4.0882,-4.0882,-4.0882,-4.0882,-4.0882,-4.0882,-4.0882,-4.0882,-4.082,-4.0717,-4.0717,-4.0717,-1.1175,-1.1265,-1.1297,-1.0631,-1.0615,-1.0461,-0.9339,-0.9167,-0.9112,-0.8779,0.0,0.0,0.0,0.0,0.0,0.0,-0.9786,-1.0079,-0.993,-1.0363,-1.098,-1.1841,-1.1833,-1.1947,-1.2426,-1.4133,-1.5893,-1.7432,-1.9056,-2.067,-2.2298,-2.2539,-2.2957,-2.3747,-2.3884,-2.4306,-2.4849,-2.4984,-2.5119,-2.5134,-2.5242,-2.533,-2.533,-2.552,-2.5608,-2.5608,-2.5608,-2.5681,-2.5842,-2.6164,-2.6383,-2.6471,-2.6149,-2.6105,-2.6208,-2.6061,-2.6105,-2.6281,-2.6661,-2.6881,-2.7274,-2.8748,-3.0091,-3.1437,-3.3276,-3.4264,-3.4902,-3.5743,-3.6016,-3.6172,-3.6855,-3.7168,-3.7461,-3.8144,-3.8437,-3.8574,-3.8574,-3.8574,-3.8574,-3.8574,-3.8574,-3.8574,-3.8574,-3.8574,-3.8574,-3.8574,-3.8574,-3.8574,-3.8574,-3.8958,-3.9248,-3.9373,-3.9734,-4.0002,-4.0218,-4.0218,-4.0218,-4.0218,-4.0453,-4.0668,-4.0882,-4.0882,-4.0882,-4.0882,-4.0882,-4.0882,-4.0882,-4.0882,-4.0882,-4.0882,-4.0882,-4.0882,-1.1386,-1.1419,-1.1435,-1.0785,-1.0526,-1.0233,-0.9462,-0.9226,-0.9129,-0.8999,-0.9088,0.0,0.0,0.0,-0.9169,0.0,0.0,-0.9681,0.0,-0.9738,-1.0225,-1.1037,-1.1037,-1.1282,-1.2038,-1.4083,-1.5968,-1.7385,-1.9137,-2.0775,-2.2111,-2.2405,-2.2997,-2.3826,-2.4046,-2.4442,-2.5119,-2.5119,-2.5119,-2.5134,-2.5374,-2.5535,-2.5535,-2.5871,-2.6018,-2.6018,-2.6018,-2.6061,-2.6164,-2.6413,-2.65,-2.6471,-2.6149,-2.5959,-2.59,-2.5988,-2.6018,-2.6105,-2.6764,-2.7274,-2.784,-2.9322,-3.0091,-3.0943,-3.3623,-3.4402,-3.4609,-3.5675,-3.6016,-3.6211,-3.707,-3.7305,-3.7519,-3.8379,-3.8574,-3.8574,-3.8574,-3.8574,-3.8574,-3.8574,-3.8574,-3.8574,-3.8574,-3.8574,-3.8574,-3.8574,-3.8574,-3.8574,-3.8574,-3.8865,-3.9103,-3.9176,-3.9445,-3.9702,-4.004,-4.004,-4.0112,-4.0185,-4.0616,-4.0864,-4.0882,-4.0986,-4.1007,-4.0882,-4.0882,-4.0882,-4.0882,-4.0882,-4.0882,-4.0882,-4.0882,-4.0882,-1.219,-1.2255,-1.219,-1.0794,-1.0383,-1.0148,-0.9307,-0.9282,-0.9396,-0.9388,-0.9804,-1.0114,-0.9892,-0.9851,0.0,0.0,0.0,0.0,0.0,0.0,-0.9069,-1.0131,-1.071,-1.1366,-1.2376,-1.3166,-1.4735,-1.7482,-1.848,-1.9746,-2.1547,-2.2508,-2.317,-2.3504,-2.4136,-2.4713,-2.5119,-2.5119,-2.5119,-2.5134,-2.5374,-2.5535,-2.5535,-2.5871,-2.6018,-2.6018,-2.6018,-2.6193,-2.6486,-2.65,-2.65,-2.6471,-2.6149,-2.5827,-2.5579,-2.59,-2.6018,-2.6105,-2.6764,-2.7897,-2.9377,-3.0943,-3.2421,-3.3918,-3.5451,-3.5947,-3.5947,-3.6016,-3.6016,-3.6211,-3.707,-3.7305,-3.7519,-3.8379,-3.8574,-3.8574,-3.8574,-3.8574,-3.8574,-3.8574,-3.8574,-3.8574,-3.8574,-3.8574,-3.8574,-3.8574,-3.8574,-3.8574,-3.8574,-3.8647,-3.8793,-3.9176,-3.9176,-3.9718,-4.087,-4.0963,-4.1109,-4.1545,-4.1959,-4.1814,-4.0924,-4.1317,-4.1338,-4.0882,-4.0882,-4.0882,-4.0882,-4.0882,-4.0882,-4.0882,-4.0882,-4.0882,-1.2629,-1.2653,-1.2483,-1.1411,-1.0964,-1.055,-0.9657,-0.9673,-0.9869,-0.9583,-1.0054,-1.042,-1.0171,-0.9965,0.0,0.0,0.0,0.0,0.0,0.0,-0.8609,0.0,0.0,0.0,-1.1594,-1.2687,-1.4392,-1.6801,-1.7807,-1.9092,-2.0944,-2.1656,-2.2438,-2.3182,-2.3823,-2.4497,-2.5119,-2.5119,-2.5169,-2.5374,-2.5696,-2.5959,-2.6193,-2.6515,-2.6661,-2.6661,-2.6661,-2.672,-2.6822,-2.6822,-2.6705,-2.6471,-2.6149,-2.5813,-2.5564,-2.59,-2.6018,-2.6105,-2.6764,-2.7985,-2.9322,-2.9806,-3.1014,-3.2561,-3.4057,-3.454,-3.4765,-3.5743,-3.623,-3.6582,-3.7148,-3.75,-3.7851,-3.8437,-3.8574,-3.8574,-3.8574,-3.8574,-3.8574,-3.8574,-3.8574,-3.8574,-3.8574,-3.8574,-3.8574,-3.8574,-3.8574,-3.8574,-3.8574,-3.8828,-3.9058,-3.9225,-3.95,-3.981,-4.0246,-4.0266,-4.0395,-4.0747,-4.0962,-4.0996,-4.0988,-4.1351,-4.1424,-4.0988,-4.1208,-4.1191,-4.0976,-4.0686,-4.0523,-4.0525,-4.0218,-4.0361,-1.3106,-1.3165,-1.2986,-1.2028,-1.1614,-1.1208,-1.0306,-1.0379,-1.0574,-1.0339,-1.0607,-1.085,-1.0753,-1.0379,-1.0022,0.0,0.0,0.0,0.0,-0.8325,-0.8398,0.0,0.0,0.0,0.0,-1.2798,-1.4359,-1.6775,-1.7342,-1.8385,-2.0288,-2.1177,-2.2104,-2.3055,-2.3808,-2.4515,-2.5119,-2.5119,-2.5213,-2.5535,-2.5857,-2.6193,-2.6515,-2.6837,-2.6983,-2.6983,-2.6983,-2.6983,-2.6983,-2.6983,-2.6735,-2.631,-2.6091,-2.5754,-2.5418,-2.5857,-2.6164,-2.6427,-2.6852,-2.7985,-2.9322,-2.9806,-3.1084,-3.2561,-3.4126,-3.4609,-3.4746,-3.5743,-3.6328,-3.6758,-3.7187,-3.7617,-3.8027,-3.8476,-3.8574,-3.8574,-3.8574,-3.8574,-3.8574,-3.8574,-3.8574,-3.8574,-3.8574,-3.8691,-3.875,-3.8594,-3.8691,-3.8789,-3.8789,-3.918,-3.9453,-3.9453,-3.9726,-4.0036,-4.0325,-4.0633,-4.0785,-4.0853,-4.0992,-4.1083,-4.1008,-4.1447,-4.1447,-4.1008,-4.1211,-4.1292,-4.1008,-4.0713,-4.0552,-4.0582,-4.0109,-4.0245]}]]